<?xml version="1.0" encoding="UTF-8" standalone="no" ?>
<gpx xmlns="http://www.topografix.com/GPX/1/1" xmlns:xsi="http://www.w3.org/2001/XMLSchema-instance" xsi:schemaLocation="http://www.topografix.com/GPX/1/1 http://www.topografix.com/GPX/1/1/gpx.xsd" version="1.1" creator="VisuGPX - https://www.visugpx.com">
  <metadata>
    <name>5348489-GR 54 Intégral</name>
    <desc><![CDATA[Le GR54 est un sentier de grande randonnée de grande difficulté qui chemine sur le tour de l'Oisan et des Ecrins au cur du Parc national des Écrins dans les Alpes. C'est l'un des plus montagnard des GR de France et un des plus technique avec le GR20.

Retrouvez toutes les informations utiles pour effectuer cette randonnée montagnarde :  les hébergements, les étapes et l'itinéraire dans le topoguide dédié à cette randonnée [url]https://www.nature-randonnee.fr/Topo-guide-Tour-Oisans-Ecrins.php[/url]]]></desc>
  </metadata>
  <trk>
    <name><![CDATA[5348489-GR 54 Intégral]]></name>
    <trkseg>
      <trkpt lat="45.06417" lon="6.0389">
        <ele>724</ele>
        <time>2020-11-06T10:52:47Z</time>
      </trkpt>
      <trkpt lat="45.06394" lon="6.04002">
        <ele>726</ele>
        <time>2020-11-06T10:54:37Z</time>
      </trkpt>
      <trkpt lat="45.06399" lon="6.04083">
        <ele>734</ele>
        <time>2020-11-06T10:55:54Z</time>
      </trkpt>
      <trkpt lat="45.06381" lon="6.04117">
        <ele>747</ele>
        <time>2020-11-06T10:56:34Z</time>
      </trkpt>
      <trkpt lat="45.0643" lon="6.04138">
        <ele>765</ele>
        <time>2020-11-06T10:57:42Z</time>
      </trkpt>
      <trkpt lat="45.06418" lon="6.04152">
        <ele>768</ele>
        <time>2020-11-06T10:58:03Z</time>
      </trkpt>
      <trkpt lat="45.06431" lon="6.04167">
        <ele>779</ele>
        <time>2020-11-06T10:58:25Z</time>
      </trkpt>
      <trkpt lat="45.0643" lon="6.04195">
        <ele>796</ele>
        <time>2020-11-06T10:58:51Z</time>
      </trkpt>
      <trkpt lat="45.0641" lon="6.04207">
        <ele>799</ele>
        <time>2020-11-06T10:59:20Z</time>
      </trkpt>
      <trkpt lat="45.06363" lon="6.04242">
        <ele>821</ele>
        <time>2020-11-06T11:00:31Z</time>
      </trkpt>
      <trkpt lat="45.06383" lon="6.04276">
        <ele>845</ele>
        <time>2020-11-06T11:01:13Z</time>
      </trkpt>
      <trkpt lat="45.0643" lon="6.043">
        <ele>860</ele>
        <time>2020-11-06T11:02:20Z</time>
      </trkpt>
      <trkpt lat="45.0633" lon="6.0438">
        <ele>919</ele>
        <time>2020-11-06T11:04:53Z</time>
      </trkpt>
      <trkpt lat="45.06355" lon="6.04409">
        <ele>932</ele>
        <time>2020-11-06T11:05:36Z</time>
      </trkpt>
      <trkpt lat="45.06382" lon="6.04558">
        <ele>967</ele>
        <time>2020-11-06T11:08:01Z</time>
      </trkpt>
      <trkpt lat="45.06397" lon="6.04597">
        <ele>974</ele>
        <time>2020-11-06T11:08:43Z</time>
      </trkpt>
      <trkpt lat="45.06394" lon="6.04623">
        <ele>983</ele>
        <time>2020-11-06T11:09:08Z</time>
      </trkpt>
      <trkpt lat="45.06465" lon="6.04676">
        <ele>992</ele>
        <time>2020-11-06T11:10:55Z</time>
      </trkpt>
      <trkpt lat="45.06541" lon="6.04696">
        <ele>996</ele>
        <time>2020-11-06T11:12:38Z</time>
      </trkpt>
      <trkpt lat="45.06612" lon="6.04727">
        <ele>998</ele>
        <time>2020-11-06T11:14:17Z</time>
      </trkpt>
      <trkpt lat="45.06673" lon="6.0483">
        <ele>1009</ele>
        <time>2020-11-06T11:16:24Z</time>
      </trkpt>
      <trkpt lat="45.06655" lon="6.04899">
        <ele>1031</ele>
        <time>2020-11-06T11:17:33Z</time>
      </trkpt>
      <trkpt lat="45.06706" lon="6.051">
        <ele>1067</ele>
        <time>2020-11-06T11:20:55Z</time>
      </trkpt>
      <trkpt lat="45.0669" lon="6.05308">
        <ele>1118</ele>
        <time>2020-11-06T11:24:12Z</time>
      </trkpt>
      <trkpt lat="45.06662" lon="6.05248">
        <ele>1122</ele>
        <time>2020-11-06T11:25:20Z</time>
      </trkpt>
      <trkpt lat="45.06617" lon="6.05201">
        <ele>1141</ele>
        <time>2020-11-06T11:26:34Z</time>
      </trkpt>
      <trkpt lat="45.06594" lon="6.05158">
        <ele>1142</ele>
        <time>2020-11-06T11:27:25Z</time>
      </trkpt>
      <trkpt lat="45.0655" lon="6.05122">
        <ele>1159</ele>
        <time>2020-11-06T11:28:33Z</time>
      </trkpt>
      <trkpt lat="45.0649" lon="6.05034">
        <ele>1160</ele>
        <time>2020-11-06T11:30:28Z</time>
      </trkpt>
      <trkpt lat="45.06421" lon="6.05044">
        <ele>1195</ele>
        <time>2020-11-06T11:32:01Z</time>
      </trkpt>
      <trkpt lat="45.06347" lon="6.04993">
        <ele>1206</ele>
        <time>2020-11-06T11:33:50Z</time>
      </trkpt>
      <trkpt lat="45.06297" lon="6.04984">
        <ele>1202</ele>
        <time>2020-11-06T11:34:58Z</time>
      </trkpt>
      <trkpt lat="45.06262" lon="6.05008">
        <ele>1208</ele>
        <time>2020-11-06T11:35:50Z</time>
      </trkpt>
      <trkpt lat="45.06283" lon="6.05019">
        <ele>1215</ele>
        <time>2020-11-06T11:36:20Z</time>
      </trkpt>
      <trkpt lat="45.06261" lon="6.05041">
        <ele>1219</ele>
        <time>2020-11-06T11:36:55Z</time>
      </trkpt>
      <trkpt lat="45.06271" lon="6.05056">
        <ele>1224</ele>
        <time>2020-11-06T11:37:15Z</time>
      </trkpt>
      <trkpt lat="45.06292" lon="6.05043">
        <ele>1222</ele>
        <time>2020-11-06T11:37:45Z</time>
      </trkpt>
      <trkpt lat="45.06311" lon="6.05042">
        <ele>1224</ele>
        <time>2020-11-06T11:38:11Z</time>
      </trkpt>
      <trkpt lat="45.06289" lon="6.05074">
        <ele>1230</ele>
        <time>2020-11-06T11:38:53Z</time>
      </trkpt>
      <trkpt lat="45.06305" lon="6.05096">
        <ele>1238</ele>
        <time>2020-11-06T11:39:23Z</time>
      </trkpt>
      <trkpt lat="45.06296" lon="6.05106">
        <ele>1242</ele>
        <time>2020-11-06T11:39:38Z</time>
      </trkpt>
      <trkpt lat="45.06356" lon="6.0525">
        <ele>1305</ele>
        <time>2020-11-06T11:42:16Z</time>
      </trkpt>
      <trkpt lat="45.06433" lon="6.05328">
        <ele>1307</ele>
        <time>2020-11-06T11:44:22Z</time>
      </trkpt>
      <trkpt lat="45.06405" lon="6.05471">
        <ele>1357</ele>
        <time>2020-11-06T11:46:42Z</time>
      </trkpt>
      <trkpt lat="45.06433" lon="6.05544">
        <ele>1352</ele>
        <time>2020-11-06T11:48:00Z</time>
      </trkpt>
      <trkpt lat="45.06429" lon="6.05643">
        <ele>1374</ele>
        <time>2020-11-06T11:49:34Z</time>
      </trkpt>
      <trkpt lat="45.06467" lon="6.05707">
        <ele>1360</ele>
        <time>2020-11-06T11:50:52Z</time>
      </trkpt>
      <trkpt lat="45.06452" lon="6.05875">
        <ele>1409</ele>
        <time>2020-11-06T11:53:32Z</time>
      </trkpt>
      <trkpt lat="45.06494" lon="6.06014">
        <ele>1402</ele>
        <time>2020-11-06T11:55:54Z</time>
      </trkpt>
      <trkpt lat="45.06458" lon="6.05991">
        <ele>1419</ele>
        <time>2020-11-06T11:56:47Z</time>
      </trkpt>
      <trkpt lat="45.06479" lon="6.06066">
        <ele>1414</ele>
        <time>2020-11-06T11:58:03Z</time>
      </trkpt>
      <trkpt lat="45.06461" lon="6.06117">
        <ele>1430</ele>
        <time>2020-11-06T11:58:57Z</time>
      </trkpt>
      <trkpt lat="45.06606" lon="6.06147">
        <ele>1418</ele>
        <time>2020-11-06T12:02:12Z</time>
      </trkpt>
      <trkpt lat="45.06762" lon="6.0601">
        <ele>1424</ele>
        <time>2020-11-06T12:06:17Z</time>
      </trkpt>
      <trkpt lat="45.06806" lon="6.06029">
        <ele>1430</ele>
        <time>2020-11-06T12:07:19Z</time>
      </trkpt>
      <trkpt lat="45.06817" lon="6.0607">
        <ele>1430</ele>
        <time>2020-11-06T12:08:00Z</time>
      </trkpt>
      <trkpt lat="45.06771" lon="6.06188">
        <ele>1438</ele>
        <time>2020-11-06T12:10:07Z</time>
      </trkpt>
      <trkpt lat="45.06779" lon="6.06283">
        <ele>1448</ele>
        <time>2020-11-06T12:11:37Z</time>
      </trkpt>
      <trkpt lat="45.06776" lon="6.06379">
        <ele>1466</ele>
        <time>2020-11-06T12:13:08Z</time>
      </trkpt>
      <trkpt lat="45.06824" lon="6.0639">
        <ele>1466</ele>
        <time>2020-11-06T12:14:13Z</time>
      </trkpt>
      <trkpt lat="45.06902" lon="6.06364">
        <ele>1461</ele>
        <time>2020-11-06T12:16:00Z</time>
      </trkpt>
      <trkpt lat="45.06958" lon="6.06401">
        <ele>1465</ele>
        <time>2020-11-06T12:17:22Z</time>
      </trkpt>
      <trkpt lat="45.07144" lon="6.06448">
        <ele>1486</ele>
        <time>2020-11-06T12:21:34Z</time>
      </trkpt>
      <trkpt lat="45.07223" lon="6.06426">
        <ele>1481</ele>
        <time>2020-11-06T12:23:22Z</time>
      </trkpt>
      <trkpt lat="45.07297" lon="6.06441">
        <ele>1493</ele>
        <time>2020-11-06T12:25:02Z</time>
      </trkpt>
      <trkpt lat="45.07361" lon="6.06409">
        <ele>1489</ele>
        <time>2020-11-06T12:26:32Z</time>
      </trkpt>
      <trkpt lat="45.07425" lon="6.06398">
        <ele>1495</ele>
        <time>2020-11-06T12:27:58Z</time>
      </trkpt>
      <trkpt lat="45.07456" lon="6.06317">
        <ele>1485</ele>
        <time>2020-11-06T12:29:25Z</time>
      </trkpt>
      <trkpt lat="45.07587" lon="6.06276">
        <ele>1502</ele>
        <time>2020-11-06T12:32:24Z</time>
      </trkpt>
      <trkpt lat="45.07759" lon="6.0633">
        <ele>1514</ele>
        <time>2020-11-06T12:36:19Z</time>
      </trkpt>
      <trkpt lat="45.07866" lon="6.06413">
        <ele>1521</ele>
        <time>2020-11-06T12:39:02Z</time>
      </trkpt>
      <trkpt lat="45.07909" lon="6.06403">
        <ele>1505</ele>
        <time>2020-11-06T12:40:00Z</time>
      </trkpt>
      <trkpt lat="45.0792" lon="6.06467">
        <ele>1513</ele>
        <time>2020-11-06T12:41:02Z</time>
      </trkpt>
      <trkpt lat="45.07943" lon="6.06523">
        <ele>1503</ele>
        <time>2020-11-06T12:42:03Z</time>
      </trkpt>
      <trkpt lat="45.07982" lon="6.06652">
        <ele>1492</ele>
        <time>2020-11-06T12:44:15Z</time>
      </trkpt>
      <trkpt lat="45.08009" lon="6.06677">
        <ele>1466</ele>
        <time>2020-11-06T12:44:58Z</time>
      </trkpt>
      <trkpt lat="45.08018" lon="6.06703">
        <ele>1463</ele>
        <time>2020-11-06T12:45:26Z</time>
      </trkpt>
      <trkpt lat="45.08014" lon="6.06722">
        <ele>1468</ele>
        <time>2020-11-06T12:45:44Z</time>
      </trkpt>
      <trkpt lat="45.08033" lon="6.06809">
        <ele>1475</ele>
        <time>2020-11-06T12:47:10Z</time>
      </trkpt>
      <trkpt lat="45.08041" lon="6.0683">
        <ele>1473</ele>
        <time>2020-11-06T12:47:33Z</time>
      </trkpt>
      <trkpt lat="45.08059" lon="6.06845">
        <ele>1458</ele>
        <time>2020-11-06T12:48:01Z</time>
      </trkpt>
      <trkpt lat="45.08071" lon="6.06865">
        <ele>1448</ele>
        <time>2020-11-06T12:48:25Z</time>
      </trkpt>
      <trkpt lat="45.08072" lon="6.06849">
        <ele>1446</ele>
        <time>2020-11-06T12:48:40Z</time>
      </trkpt>
      <trkpt lat="45.08109" lon="6.0691">
        <ele>1445</ele>
        <time>2020-11-06T12:49:56Z</time>
      </trkpt>
      <trkpt lat="45.08131" lon="6.06916">
        <ele>1450</ele>
        <time>2020-11-06T12:50:26Z</time>
      </trkpt>
      <trkpt lat="45.0815" lon="6.06933">
        <ele>1454</ele>
        <time>2020-11-06T12:50:56Z</time>
      </trkpt>
      <trkpt lat="45.08134" lon="6.07049">
        <ele>1455</ele>
        <time>2020-11-06T12:52:48Z</time>
      </trkpt>
      <trkpt lat="45.08187" lon="6.0728">
        <ele>1474</ele>
        <time>2020-11-06T12:56:36Z</time>
      </trkpt>
      <trkpt lat="45.0822" lon="6.074">
        <ele>1487</ele>
        <time>2020-11-06T12:58:38Z</time>
      </trkpt>
      <trkpt lat="45.08196" lon="6.07516">
        <ele>1489</ele>
        <time>2020-11-06T13:00:32Z</time>
      </trkpt>
      <trkpt lat="45.08176" lon="6.07692">
        <ele>1499</ele>
        <time>2020-11-06T13:03:20Z</time>
      </trkpt>
      <trkpt lat="45.08188" lon="6.07903">
        <ele>1519</ele>
        <time>2020-11-06T13:06:39Z</time>
      </trkpt>
      <trkpt lat="45.08179" lon="6.08008">
        <ele>1525</ele>
        <time>2020-11-06T13:08:19Z</time>
      </trkpt>
      <trkpt lat="45.08149" lon="6.08186">
        <ele>1537</ele>
        <time>2020-11-06T13:11:11Z</time>
      </trkpt>
      <trkpt lat="45.08164" lon="6.08231">
        <ele>1538</ele>
        <time>2020-11-06T13:11:58Z</time>
      </trkpt>
      <trkpt lat="45.08141" lon="6.08317">
        <ele>1542</ele>
        <time>2020-11-06T13:13:25Z</time>
      </trkpt>
      <trkpt lat="45.08149" lon="6.08422">
        <ele>1549</ele>
        <time>2020-11-06T13:15:04Z</time>
      </trkpt>
      <trkpt lat="45.08119" lon="6.08585">
        <ele>1560</ele>
        <time>2020-11-06T13:17:43Z</time>
      </trkpt>
      <trkpt lat="45.0812" lon="6.08701">
        <ele>1570</ele>
        <time>2020-11-06T13:19:32Z</time>
      </trkpt>
      <trkpt lat="45.0809" lon="6.08774">
        <ele>1569</ele>
        <time>2020-11-06T13:20:52Z</time>
      </trkpt>
      <trkpt lat="45.08066" lon="6.09001">
        <ele>1583</ele>
        <time>2020-11-06T13:24:28Z</time>
      </trkpt>
      <trkpt lat="45.08084" lon="6.09141">
        <ele>1581</ele>
        <time>2020-11-06T13:26:42Z</time>
      </trkpt>
      <trkpt lat="45.08091" lon="6.09338">
        <ele>1594</ele>
        <time>2020-11-06T13:29:48Z</time>
      </trkpt>
      <trkpt lat="45.08149" lon="6.09578">
        <ele>1603</ele>
        <time>2020-11-06T13:33:47Z</time>
      </trkpt>
      <trkpt lat="45.08132" lon="6.09613">
        <ele>1605</ele>
        <time>2020-11-06T13:34:27Z</time>
      </trkpt>
      <trkpt lat="45.0814" lon="6.0975">
        <ele>1611</ele>
        <time>2020-11-06T13:36:37Z</time>
      </trkpt>
      <trkpt lat="45.08096" lon="6.10029">
        <ele>1633</ele>
        <time>2020-11-06T13:41:06Z</time>
      </trkpt>
      <trkpt lat="45.08064" lon="6.10134">
        <ele>1643</ele>
        <time>2020-11-06T13:42:54Z</time>
      </trkpt>
      <trkpt lat="45.08026" lon="6.10239">
        <ele>1647</ele>
        <time>2020-11-06T13:44:45Z</time>
      </trkpt>
      <trkpt lat="45.07972" lon="6.10314">
        <ele>1650</ele>
        <time>2020-11-06T13:46:26Z</time>
      </trkpt>
      <trkpt lat="45.07887" lon="6.10454">
        <ele>1651</ele>
        <time>2020-11-06T13:49:20Z</time>
      </trkpt>
      <trkpt lat="45.07809" lon="6.10735">
        <ele>1679</ele>
        <time>2020-11-06T13:54:04Z</time>
      </trkpt>
      <trkpt lat="45.07882" lon="6.10844">
        <ele>1700</ele>
        <time>2020-11-06T13:56:26Z</time>
      </trkpt>
      <trkpt lat="45.07905" lon="6.11031">
        <ele>1710</ele>
        <time>2020-11-06T13:59:25Z</time>
      </trkpt>
      <trkpt lat="45.07856" lon="6.1131">
        <ele>1706</ele>
        <time>2020-11-06T14:03:56Z</time>
      </trkpt>
      <trkpt lat="45.07846" lon="6.11456">
        <ele>1714</ele>
        <time>2020-11-06T14:06:14Z</time>
      </trkpt>
      <trkpt lat="45.07849" lon="6.11589">
        <ele>1728</ele>
        <time>2020-11-06T14:08:19Z</time>
      </trkpt>
      <trkpt lat="45.07785" lon="6.11805">
        <ele>1743</ele>
        <time>2020-11-06T14:12:00Z</time>
      </trkpt>
      <trkpt lat="45.07793" lon="6.12007">
        <ele>1755</ele>
        <time>2020-11-06T14:15:11Z</time>
      </trkpt>
      <trkpt lat="45.07816" lon="6.12076">
        <ele>1757</ele>
        <time>2020-11-06T14:16:23Z</time>
      </trkpt>
      <trkpt lat="45.07835" lon="6.12284">
        <ele>1774</ele>
        <time>2020-11-06T14:19:40Z</time>
      </trkpt>
      <trkpt lat="45.07922" lon="6.1252">
        <ele>1778</ele>
        <time>2020-11-06T14:23:51Z</time>
      </trkpt>
      <trkpt lat="45.08109" lon="6.12922">
        <ele>1819</ele>
        <time>2020-11-06T14:31:25Z</time>
      </trkpt>
      <trkpt lat="45.08052" lon="6.13091">
        <ele>1832</ele>
        <time>2020-11-06T14:34:21Z</time>
      </trkpt>
      <trkpt lat="45.08084" lon="6.13153">
        <ele>1828</ele>
        <time>2020-11-06T14:35:34Z</time>
      </trkpt>
      <trkpt lat="45.0812" lon="6.13211">
        <ele>1836</ele>
        <time>2020-11-06T14:36:46Z</time>
      </trkpt>
      <trkpt lat="45.08053" lon="6.13235">
        <ele>1843</ele>
        <time>2020-11-06T14:38:19Z</time>
      </trkpt>
      <trkpt lat="45.08032" lon="6.13211">
        <ele>1844</ele>
        <time>2020-11-06T14:38:55Z</time>
      </trkpt>
      <trkpt lat="45.07975" lon="6.13087">
        <ele>1854</ele>
        <time>2020-11-06T14:41:14Z</time>
      </trkpt>
      <trkpt lat="45.07962" lon="6.13145">
        <ele>1858</ele>
        <time>2020-11-06T14:42:11Z</time>
      </trkpt>
      <trkpt lat="45.07947" lon="6.13185">
        <ele>1863</ele>
        <time>2020-11-06T14:42:54Z</time>
      </trkpt>
      <trkpt lat="45.07988" lon="6.13398">
        <ele>1878</ele>
        <time>2020-11-06T14:46:22Z</time>
      </trkpt>
      <trkpt lat="45.08053" lon="6.13572">
        <ele>1893</ele>
        <time>2020-11-06T14:49:28Z</time>
      </trkpt>
      <trkpt lat="45.08072" lon="6.1384">
        <ele>1917</ele>
        <time>2020-11-06T14:53:41Z</time>
      </trkpt>
      <trkpt lat="45.08175" lon="6.14175">
        <ele>1936</ele>
        <time>2020-11-06T14:59:26Z</time>
      </trkpt>
      <trkpt lat="45.08379" lon="6.14539">
        <ele>1970</ele>
        <time>2020-11-06T15:06:44Z</time>
      </trkpt>
      <trkpt lat="45.08647" lon="6.14878">
        <ele>1990</ele>
        <time>2020-11-06T15:14:43Z</time>
      </trkpt>
      <trkpt lat="45.08743" lon="6.149">
        <ele>1989</ele>
        <time>2020-11-06T15:16:53Z</time>
      </trkpt>
      <trkpt lat="45.08856" lon="6.14939">
        <ele>1985</ele>
        <time>2020-11-06T15:19:28Z</time>
      </trkpt>
      <trkpt lat="45.08902" lon="6.14915">
        <ele>1985</ele>
        <time>2020-11-06T15:20:33Z</time>
      </trkpt>
      <trkpt lat="45.08956" lon="6.14932">
        <ele>1973</ele>
        <time>2020-11-06T15:21:47Z</time>
      </trkpt>
      <trkpt lat="45.09057" lon="6.14846">
        <ele>1986</ele>
        <time>2020-11-06T15:24:24Z</time>
      </trkpt>
      <trkpt lat="45.08982" lon="6.14956">
        <ele>1964</ele>
        <time>2020-11-06T15:26:49Z</time>
      </trkpt>
      <trkpt lat="45.09034" lon="6.14913">
        <ele>1964</ele>
        <time>2020-11-06T15:28:09Z</time>
      </trkpt>
      <trkpt lat="45.09103" lon="6.14894">
        <ele>1969</ele>
        <time>2020-11-06T15:29:43Z</time>
      </trkpt>
      <trkpt lat="45.09168" lon="6.14973">
        <ele>1944</ele>
        <time>2020-11-06T15:31:37Z</time>
      </trkpt>
      <trkpt lat="45.09141" lon="6.14979">
        <ele>1934</ele>
        <time>2020-11-06T15:32:13Z</time>
      </trkpt>
      <trkpt lat="45.09159" lon="6.1502">
        <ele>1920</ele>
        <time>2020-11-06T15:32:59Z</time>
      </trkpt>
      <trkpt lat="45.09167" lon="6.15067">
        <ele>1902</ele>
        <time>2020-11-06T15:33:45Z</time>
      </trkpt>
      <trkpt lat="45.09193" lon="6.15097">
        <ele>1894</ele>
        <time>2020-11-06T15:34:29Z</time>
      </trkpt>
      <trkpt lat="45.09173" lon="6.15121">
        <ele>1878</ele>
        <time>2020-11-06T15:35:04Z</time>
      </trkpt>
      <trkpt lat="45.09217" lon="6.15164">
        <ele>1863</ele>
        <time>2020-11-06T15:36:16Z</time>
      </trkpt>
      <trkpt lat="45.092" lon="6.15194">
        <ele>1846</ele>
        <time>2020-11-06T15:36:52Z</time>
      </trkpt>
      <trkpt lat="45.09244" lon="6.152">
        <ele>1847</ele>
        <time>2020-11-06T15:37:51Z</time>
      </trkpt>
      <trkpt lat="45.09294" lon="6.15263">
        <ele>1821</ele>
        <time>2020-11-06T15:39:20Z</time>
      </trkpt>
      <trkpt lat="45.09334" lon="6.15297">
        <ele>1812</ele>
        <time>2020-11-06T15:40:22Z</time>
      </trkpt>
      <trkpt lat="45.09311" lon="6.15295">
        <ele>1809</ele>
        <time>2020-11-06T15:40:53Z</time>
      </trkpt>
      <trkpt lat="45.0934" lon="6.15327">
        <ele>1801</ele>
        <time>2020-11-06T15:41:42Z</time>
      </trkpt>
      <trkpt lat="45.09296" lon="6.15329">
        <ele>1793</ele>
        <time>2020-11-06T15:42:41Z</time>
      </trkpt>
      <trkpt lat="45.09305" lon="6.15361">
        <ele>1781</ele>
        <time>2020-11-06T15:43:13Z</time>
      </trkpt>
      <trkpt lat="45.09208" lon="6.15378">
        <ele>1756</ele>
        <time>2020-11-06T15:45:24Z</time>
      </trkpt>
      <trkpt lat="45.09152" lon="6.15374">
        <ele>1746</ele>
        <time>2020-11-06T15:46:39Z</time>
      </trkpt>
      <trkpt lat="45.09238" lon="6.15479">
        <ele>1720</ele>
        <time>2020-11-06T15:49:10Z</time>
      </trkpt>
      <trkpt lat="45.09181" lon="6.15481">
        <ele>1708</ele>
        <time>2020-11-06T15:50:26Z</time>
      </trkpt>
      <trkpt lat="45.09259" lon="6.15569">
        <ele>1690</ele>
        <time>2020-11-06T15:52:39Z</time>
      </trkpt>
      <trkpt lat="45.09241" lon="6.15619">
        <ele>1672</ele>
        <time>2020-11-06T15:53:32Z</time>
      </trkpt>
      <trkpt lat="45.09179" lon="6.15606">
        <ele>1662</ele>
        <time>2020-11-06T15:54:56Z</time>
      </trkpt>
      <trkpt lat="45.09132" lon="6.1563">
        <ele>1647</ele>
        <time>2020-11-06T15:56:02Z</time>
      </trkpt>
      <trkpt lat="45.09152" lon="6.15767">
        <ele>1621</ele>
        <time>2020-11-06T15:58:14Z</time>
      </trkpt>
      <trkpt lat="45.09129" lon="6.15803">
        <ele>1614</ele>
        <time>2020-11-06T15:59:00Z</time>
      </trkpt>
      <trkpt lat="45.09144" lon="6.15844">
        <ele>1610</ele>
        <time>2020-11-06T15:59:44Z</time>
      </trkpt>
      <trkpt lat="45.09114" lon="6.15954">
        <ele>1589</ele>
        <time>2020-11-06T16:01:35Z</time>
      </trkpt>
      <trkpt lat="45.09132" lon="6.1599">
        <ele>1583</ele>
        <time>2020-11-06T16:02:16Z</time>
      </trkpt>
      <trkpt lat="45.09044" lon="6.16348">
        <ele>1495</ele>
        <time>2020-11-06T16:08:13Z</time>
      </trkpt>
      <trkpt lat="45.08964" lon="6.16436">
        <ele>1459</ele>
        <time>2020-11-06T16:10:28Z</time>
      </trkpt>
      <trkpt lat="45.08915" lon="6.16434">
        <ele>1448</ele>
        <time>2020-11-06T16:11:34Z</time>
      </trkpt>
      <trkpt lat="45.08853" lon="6.1634">
        <ele>1459</ele>
        <time>2020-11-06T16:13:35Z</time>
      </trkpt>
      <trkpt lat="45.08811" lon="6.16346">
        <ele>1451</ele>
        <time>2020-11-06T16:14:31Z</time>
      </trkpt>
      <trkpt lat="45.08709" lon="6.16288">
        <ele>1442</ele>
        <time>2020-11-06T16:16:58Z</time>
      </trkpt>
      <trkpt lat="45.08684" lon="6.16305">
        <ele>1437</ele>
        <time>2020-11-06T16:17:35Z</time>
      </trkpt>
      <trkpt lat="45.08655" lon="6.16348">
        <ele>1427</ele>
        <time>2020-11-06T16:18:31Z</time>
      </trkpt>
      <trkpt lat="45.0857" lon="6.16303">
        <ele>1414</ele>
        <time>2020-11-06T16:20:32Z</time>
      </trkpt>
      <trkpt lat="45.08438" lon="6.16288">
        <ele>1407</ele>
        <time>2020-11-06T16:23:29Z</time>
      </trkpt>
      <trkpt lat="45.08397" lon="6.16308">
        <ele>1401</ele>
        <time>2020-11-06T16:24:27Z</time>
      </trkpt>
      <trkpt lat="45.083" lon="6.1623">
        <ele>1399</ele>
        <time>2020-11-06T16:26:56Z</time>
      </trkpt>
      <trkpt lat="45.08261" lon="6.16168">
        <ele>1399</ele>
        <time>2020-11-06T16:28:14Z</time>
      </trkpt>
      <trkpt lat="45.08222" lon="6.16114">
        <ele>1399</ele>
        <time>2020-11-06T16:29:27Z</time>
      </trkpt>
      <trkpt lat="45.08155" lon="6.16063">
        <ele>1395</ele>
        <time>2020-11-06T16:31:08Z</time>
      </trkpt>
      <trkpt lat="45.08097" lon="6.15951">
        <ele>1408</ele>
        <time>2020-11-06T16:33:19Z</time>
      </trkpt>
      <trkpt lat="45.07929" lon="6.15805">
        <ele>1415</ele>
        <time>2020-11-06T16:37:42Z</time>
      </trkpt>
      <trkpt lat="45.07879" lon="6.15799">
        <ele>1408</ele>
        <time>2020-11-06T16:38:49Z</time>
      </trkpt>
      <trkpt lat="45.07796" lon="6.15737">
        <ele>1415</ele>
        <time>2020-11-06T16:40:54Z</time>
      </trkpt>
      <trkpt lat="45.07712" lon="6.15758">
        <ele>1401</ele>
        <time>2020-11-06T16:42:48Z</time>
      </trkpt>
      <trkpt lat="45.07541" lon="6.15715">
        <ele>1409</ele>
        <time>2020-11-06T16:46:40Z</time>
      </trkpt>
      <trkpt lat="45.07482" lon="6.15754">
        <ele>1393</ele>
        <time>2020-11-06T16:48:07Z</time>
      </trkpt>
      <trkpt lat="45.07385" lon="6.15692">
        <ele>1387</ele>
        <time>2020-11-06T16:50:29Z</time>
      </trkpt>
      <trkpt lat="45.073" lon="6.15677">
        <ele>1372</ele>
        <time>2020-11-06T16:52:23Z</time>
      </trkpt>
      <trkpt lat="45.07131" lon="6.15531">
        <ele>1362</ele>
        <time>2020-11-06T16:56:47Z</time>
      </trkpt>
      <trkpt lat="45.07106" lon="6.15544">
        <ele>1355</ele>
        <time>2020-11-06T16:57:23Z</time>
      </trkpt>
      <trkpt lat="45.07108" lon="6.1558">
        <ele>1350</ele>
        <time>2020-11-06T16:57:57Z</time>
      </trkpt>
      <trkpt lat="45.07085" lon="6.15584">
        <ele>1344</ele>
        <time>2020-11-06T16:58:28Z</time>
      </trkpt>
      <trkpt lat="45.06996" lon="6.15529">
        <ele>1337</ele>
        <time>2020-11-06T17:00:37Z</time>
      </trkpt>
      <trkpt lat="45.06982" lon="6.15578">
        <ele>1323</ele>
        <time>2020-11-06T17:01:27Z</time>
      </trkpt>
      <trkpt lat="45.06949" lon="6.15625">
        <ele>1302</ele>
        <time>2020-11-06T17:02:30Z</time>
      </trkpt>
      <trkpt lat="45.06897" lon="6.15638">
        <ele>1289</ele>
        <time>2020-11-06T17:03:40Z</time>
      </trkpt>
      <trkpt lat="45.06902" lon="6.15668">
        <ele>1285</ele>
        <time>2020-11-06T17:04:09Z</time>
      </trkpt>
      <trkpt lat="45.06891" lon="6.15717">
        <ele>1293</ele>
        <time>2020-11-06T17:04:58Z</time>
      </trkpt>
      <trkpt lat="45.06993" lon="6.15797">
        <ele>1312</ele>
        <time>2020-11-06T17:07:33Z</time>
      </trkpt>
      <trkpt lat="45.07032" lon="6.15887">
        <ele>1351</ele>
        <time>2020-11-06T17:09:13Z</time>
      </trkpt>
      <trkpt lat="45.07082" lon="6.15904">
        <ele>1370</ele>
        <time>2020-11-06T17:10:21Z</time>
      </trkpt>
      <trkpt lat="45.07079" lon="6.16078">
        <ele>1427</ele>
        <time>2020-11-06T17:13:05Z</time>
      </trkpt>
      <trkpt lat="45.071" lon="6.1617">
        <ele>1445</ele>
        <time>2020-11-06T17:14:36Z</time>
      </trkpt>
      <trkpt lat="45.07093" lon="6.16305">
        <ele>1458</ele>
        <time>2020-11-06T17:16:44Z</time>
      </trkpt>
      <trkpt lat="45.07094" lon="6.16464">
        <ele>1468</ele>
        <time>2020-11-06T17:19:14Z</time>
      </trkpt>
      <trkpt lat="45.07134" lon="6.16541">
        <ele>1485</ele>
        <time>2020-11-06T17:20:44Z</time>
      </trkpt>
      <trkpt lat="45.07125" lon="6.1673">
        <ele>1512</ele>
        <time>2020-11-06T17:23:43Z</time>
      </trkpt>
      <trkpt lat="45.07097" lon="6.16878">
        <ele>1531</ele>
        <time>2020-11-06T17:26:07Z</time>
      </trkpt>
      <trkpt lat="45.07265" lon="6.17342">
        <ele>1560</ele>
        <time>2020-11-06T17:34:18Z</time>
      </trkpt>
      <trkpt lat="45.07317" lon="6.17464">
        <ele>1563</ele>
        <time>2020-11-06T17:36:33Z</time>
      </trkpt>
      <trkpt lat="45.07478" lon="6.17672">
        <ele>1565</ele>
        <time>2020-11-06T17:41:23Z</time>
      </trkpt>
      <trkpt lat="45.07596" lon="6.17846">
        <ele>1558</ele>
        <time>2020-11-06T17:45:11Z</time>
      </trkpt>
      <trkpt lat="45.07758" lon="6.17983">
        <ele>1562</ele>
        <time>2020-11-06T17:49:23Z</time>
      </trkpt>
      <trkpt lat="45.07835" lon="6.17981">
        <ele>1567</ele>
        <time>2020-11-06T17:51:05Z</time>
      </trkpt>
      <trkpt lat="45.07838" lon="6.18046">
        <ele>1567</ele>
        <time>2020-11-06T17:52:07Z</time>
      </trkpt>
      <trkpt lat="45.07947" lon="6.1832">
        <ele>1599</ele>
        <time>2020-11-06T17:57:03Z</time>
      </trkpt>
      <trkpt lat="45.07926" lon="6.18374">
        <ele>1621</ele>
        <time>2020-11-06T17:58:01Z</time>
      </trkpt>
      <trkpt lat="45.0797" lon="6.18676">
        <ele>1667</ele>
        <time>2020-11-06T18:02:52Z</time>
      </trkpt>
      <trkpt lat="45.07961" lon="6.18717">
        <ele>1674</ele>
        <time>2020-11-06T18:03:32Z</time>
      </trkpt>
      <trkpt lat="45.0794" lon="6.18696">
        <ele>1687</ele>
        <time>2020-11-06T18:04:07Z</time>
      </trkpt>
      <trkpt lat="45.07944" lon="6.18975">
        <ele>1699</ele>
        <time>2020-11-06T18:08:29Z</time>
      </trkpt>
      <trkpt lat="45.07896" lon="6.19243">
        <ele>1751</ele>
        <time>2020-11-06T18:12:50Z</time>
      </trkpt>
      <trkpt lat="45.07866" lon="6.19546">
        <ele>1807</ele>
        <time>2020-11-06T18:17:38Z</time>
      </trkpt>
      <trkpt lat="45.07878" lon="6.19612">
        <ele>1811</ele>
        <time>2020-11-06T18:18:43Z</time>
      </trkpt>
      <trkpt lat="45.07856" lon="6.19631">
        <ele>1829</ele>
        <time>2020-11-06T18:19:17Z</time>
      </trkpt>
      <trkpt lat="45.07809" lon="6.19563">
        <ele>1848</ele>
        <time>2020-11-06T18:20:47Z</time>
      </trkpt>
      <trkpt lat="45.07797" lon="6.19513">
        <ele>1852</ele>
        <time>2020-11-06T18:21:36Z</time>
      </trkpt>
      <trkpt lat="45.07778" lon="6.19539">
        <ele>1868</ele>
        <time>2020-11-06T18:22:12Z</time>
      </trkpt>
      <trkpt lat="45.07767" lon="6.19485">
        <ele>1872</ele>
        <time>2020-11-06T18:23:05Z</time>
      </trkpt>
      <trkpt lat="45.07744" lon="6.19518">
        <ele>1887</ele>
        <time>2020-11-06T18:23:48Z</time>
      </trkpt>
      <trkpt lat="45.07729" lon="6.19492">
        <ele>1888</ele>
        <time>2020-11-06T18:24:20Z</time>
      </trkpt>
      <trkpt lat="45.07608" lon="6.19603">
        <ele>1935</ele>
        <time>2020-11-06T18:27:32Z</time>
      </trkpt>
      <trkpt lat="45.07647" lon="6.19739">
        <ele>1972</ele>
        <time>2020-11-06T18:29:51Z</time>
      </trkpt>
      <trkpt lat="45.07558" lon="6.19728">
        <ele>1984</ele>
        <time>2020-11-06T18:31:50Z</time>
      </trkpt>
      <trkpt lat="45.07523" lon="6.19747">
        <ele>1991</ele>
        <time>2020-11-06T18:32:40Z</time>
      </trkpt>
      <trkpt lat="45.07515" lon="6.19777">
        <ele>2003</ele>
        <time>2020-11-06T18:33:10Z</time>
      </trkpt>
      <trkpt lat="45.07532" lon="6.19814">
        <ele>2017</ele>
        <time>2020-11-06T18:33:52Z</time>
      </trkpt>
      <trkpt lat="45.07534" lon="6.19855">
        <ele>2033</ele>
        <time>2020-11-06T18:34:30Z</time>
      </trkpt>
      <trkpt lat="45.07546" lon="6.19893">
        <ele>2046</ele>
        <time>2020-11-06T18:35:10Z</time>
      </trkpt>
      <trkpt lat="45.07532" lon="6.19912">
        <ele>2054</ele>
        <time>2020-11-06T18:35:36Z</time>
      </trkpt>
      <trkpt lat="45.07597" lon="6.19988">
        <ele>2072</ele>
        <time>2020-11-06T18:37:28Z</time>
      </trkpt>
      <trkpt lat="45.07632" lon="6.20101">
        <ele>2088</ele>
        <time>2020-11-06T18:39:24Z</time>
      </trkpt>
      <trkpt lat="45.07612" lon="6.20114">
        <ele>2101</ele>
        <time>2020-11-06T18:39:54Z</time>
      </trkpt>
      <trkpt lat="45.07582" lon="6.20101">
        <ele>2112</ele>
        <time>2020-11-06T18:40:36Z</time>
      </trkpt>
      <trkpt lat="45.07535" lon="6.20097">
        <ele>2124</ele>
        <time>2020-11-06T18:41:38Z</time>
      </trkpt>
      <trkpt lat="45.07467" lon="6.20103">
        <ele>2139</ele>
        <time>2020-11-06T18:43:09Z</time>
      </trkpt>
      <trkpt lat="45.07564" lon="6.2026">
        <ele>2167</ele>
        <time>2020-11-06T18:46:26Z</time>
      </trkpt>
      <trkpt lat="45.07535" lon="6.20275">
        <ele>2183</ele>
        <time>2020-11-06T18:47:07Z</time>
      </trkpt>
      <trkpt lat="45.07479" lon="6.20241">
        <ele>2190</ele>
        <time>2020-11-06T18:48:28Z</time>
      </trkpt>
      <trkpt lat="45.07453" lon="6.20241">
        <ele>2196</ele>
        <time>2020-11-06T18:49:03Z</time>
      </trkpt>
      <trkpt lat="45.0745" lon="6.20256">
        <ele>2202</ele>
        <time>2020-11-06T18:49:18Z</time>
      </trkpt>
      <trkpt lat="45.07406" lon="6.20236">
        <ele>2202</ele>
        <time>2020-11-06T18:50:19Z</time>
      </trkpt>
      <trkpt lat="45.07323" lon="6.20378">
        <ele>2237</ele>
        <time>2020-11-06T18:53:13Z</time>
      </trkpt>
      <trkpt lat="45.07355" lon="6.20515">
        <ele>2252</ele>
        <time>2020-11-06T18:55:29Z</time>
      </trkpt>
      <trkpt lat="45.07322" lon="6.20563">
        <ele>2242</ele>
        <time>2020-11-06T18:56:32Z</time>
      </trkpt>
      <trkpt lat="45.07146" lon="6.2061">
        <ele>2234</ele>
        <time>2020-11-06T19:00:31Z</time>
      </trkpt>
      <trkpt lat="45.07078" lon="6.20691">
        <ele>2225</ele>
        <time>2020-11-06T19:02:30Z</time>
      </trkpt>
      <trkpt lat="45.07061" lon="6.20814">
        <ele>2217</ele>
        <time>2020-11-06T19:04:28Z</time>
      </trkpt>
      <trkpt lat="45.07002" lon="6.21015">
        <ele>2212</ele>
        <time>2020-11-06T19:07:53Z</time>
      </trkpt>
      <trkpt lat="45.06914" lon="6.21161">
        <ele>2207</ele>
        <time>2020-11-06T19:10:54Z</time>
      </trkpt>
      <trkpt lat="45.06858" lon="6.21342">
        <ele>2207</ele>
        <time>2020-11-06T19:14:00Z</time>
      </trkpt>
      <trkpt lat="45.06593" lon="6.21751">
        <ele>2206</ele>
        <time>2020-11-06T19:22:43Z</time>
      </trkpt>
      <trkpt lat="45.0657" lon="6.21876">
        <ele>2199</ele>
        <time>2020-11-06T19:24:45Z</time>
      </trkpt>
      <trkpt lat="45.06565" lon="6.2202">
        <ele>2195</ele>
        <time>2020-11-06T19:27:01Z</time>
      </trkpt>
      <trkpt lat="45.06532" lon="6.22045">
        <ele>2196</ele>
        <time>2020-11-06T19:27:51Z</time>
      </trkpt>
      <trkpt lat="45.06503" lon="6.2211">
        <ele>2203</ele>
        <time>2020-11-06T19:29:03Z</time>
      </trkpt>
      <trkpt lat="45.06497" lon="6.22301">
        <ele>2225</ele>
        <time>2020-11-06T19:32:04Z</time>
      </trkpt>
      <trkpt lat="45.06383" lon="6.22706">
        <ele>2263</ele>
        <time>2020-11-06T19:38:55Z</time>
      </trkpt>
      <trkpt lat="45.06343" lon="6.22749">
        <ele>2271</ele>
        <time>2020-11-06T19:40:02Z</time>
      </trkpt>
      <trkpt lat="45.06315" lon="6.22809">
        <ele>2276</ele>
        <time>2020-11-06T19:41:09Z</time>
      </trkpt>
      <trkpt lat="45.06311" lon="6.22927">
        <ele>2283</ele>
        <time>2020-11-06T19:43:01Z</time>
      </trkpt>
      <trkpt lat="45.06321" lon="6.23009">
        <ele>2286</ele>
        <time>2020-11-06T19:44:19Z</time>
      </trkpt>
      <trkpt lat="45.06282" lon="6.23243">
        <ele>2308</ele>
        <time>2020-11-06T19:48:06Z</time>
      </trkpt>
      <trkpt lat="45.06285" lon="6.2335">
        <ele>2311</ele>
        <time>2020-11-06T19:49:47Z</time>
      </trkpt>
      <trkpt lat="45.06274" lon="6.23427">
        <ele>2314</ele>
        <time>2020-11-06T19:51:01Z</time>
      </trkpt>
      <trkpt lat="45.06276" lon="6.23582">
        <ele>2319</ele>
        <time>2020-11-06T19:53:27Z</time>
      </trkpt>
      <trkpt lat="45.06211" lon="6.2373">
        <ele>2336</ele>
        <time>2020-11-06T19:56:11Z</time>
      </trkpt>
      <trkpt lat="45.06024" lon="6.23859">
        <ele>2363</ele>
        <time>2020-11-06T20:00:49Z</time>
      </trkpt>
      <trkpt lat="45.05941" lon="6.23878">
        <ele>2357</ele>
        <time>2020-11-06T20:02:41Z</time>
      </trkpt>
      <trkpt lat="45.05888" lon="6.23865">
        <ele>2349</ele>
        <time>2020-11-06T20:03:53Z</time>
      </trkpt>
      <trkpt lat="45.05792" lon="6.23916">
        <ele>2330</ele>
        <time>2020-11-06T20:06:10Z</time>
      </trkpt>
      <trkpt lat="45.0573" lon="6.24097">
        <ele>2305</ele>
        <time>2020-11-06T20:09:19Z</time>
      </trkpt>
      <trkpt lat="45.05729" lon="6.24502">
        <ele>2262</ele>
        <time>2020-11-06T20:15:41Z</time>
      </trkpt>
      <trkpt lat="45.05692" lon="6.24777">
        <ele>2237</ele>
        <time>2020-11-06T20:20:05Z</time>
      </trkpt>
      <trkpt lat="45.05683" lon="6.25011">
        <ele>2215</ele>
        <time>2020-11-06T20:23:46Z</time>
      </trkpt>
      <trkpt lat="45.05732" lon="6.25236">
        <ele>2205</ele>
        <time>2020-11-06T20:27:28Z</time>
      </trkpt>
      <trkpt lat="45.055" lon="6.25399">
        <ele>2207</ele>
        <time>2020-11-06T20:33:13Z</time>
      </trkpt>
      <trkpt lat="45.05389" lon="6.25436">
        <ele>2209</ele>
        <time>2020-11-06T20:35:45Z</time>
      </trkpt>
      <trkpt lat="45.0521" lon="6.25652">
        <ele>2220</ele>
        <time>2020-11-06T20:40:59Z</time>
      </trkpt>
      <trkpt lat="45.05183" lon="6.2576">
        <ele>2216</ele>
        <time>2020-11-06T20:42:47Z</time>
      </trkpt>
      <trkpt lat="45.05256" lon="6.26163">
        <ele>2184</ele>
        <time>2020-11-06T20:49:20Z</time>
      </trkpt>
      <trkpt lat="45.05254" lon="6.26309">
        <ele>2167</ele>
        <time>2020-11-06T20:51:37Z</time>
      </trkpt>
      <trkpt lat="45.05291" lon="6.26373">
        <ele>2171</ele>
        <time>2020-11-06T20:52:55Z</time>
      </trkpt>
      <trkpt lat="45.05322" lon="6.26545">
        <ele>2166</ele>
        <time>2020-11-06T20:55:43Z</time>
      </trkpt>
      <trkpt lat="45.05309" lon="6.26687">
        <ele>2156</ele>
        <time>2020-11-06T20:57:58Z</time>
      </trkpt>
      <trkpt lat="45.0528" lon="6.26888">
        <ele>2115</ele>
        <time>2020-11-06T21:01:11Z</time>
      </trkpt>
      <trkpt lat="45.05168" lon="6.27217">
        <ele>2082</ele>
        <time>2020-11-06T21:06:55Z</time>
      </trkpt>
      <trkpt lat="45.0508" lon="6.27378">
        <ele>2051</ele>
        <time>2020-11-06T21:10:07Z</time>
      </trkpt>
      <trkpt lat="45.05094" lon="6.2741">
        <ele>2042</ele>
        <time>2020-11-06T21:10:43Z</time>
      </trkpt>
      <trkpt lat="45.05063" lon="6.2741">
        <ele>2041</ele>
        <time>2020-11-06T21:11:24Z</time>
      </trkpt>
      <trkpt lat="45.05054" lon="6.27451">
        <ele>2029</ele>
        <time>2020-11-06T21:12:04Z</time>
      </trkpt>
      <trkpt lat="45.0504" lon="6.27491">
        <ele>2016</ele>
        <time>2020-11-06T21:12:47Z</time>
      </trkpt>
      <trkpt lat="45.051" lon="6.27545">
        <ele>2009</ele>
        <time>2020-11-06T21:14:21Z</time>
      </trkpt>
      <trkpt lat="45.05107" lon="6.27592">
        <ele>1999</ele>
        <time>2020-11-06T21:15:07Z</time>
      </trkpt>
      <trkpt lat="45.05098" lon="6.27607">
        <ele>1996</ele>
        <time>2020-11-06T21:15:25Z</time>
      </trkpt>
      <trkpt lat="45.05139" lon="6.27614">
        <ele>1989</ele>
        <time>2020-11-06T21:16:20Z</time>
      </trkpt>
      <trkpt lat="45.05106" lon="6.27687">
        <ele>1973</ele>
        <time>2020-11-06T21:17:42Z</time>
      </trkpt>
      <trkpt lat="45.05156" lon="6.2768">
        <ele>1972</ele>
        <time>2020-11-06T21:18:49Z</time>
      </trkpt>
      <trkpt lat="45.05134" lon="6.27721">
        <ele>1963</ele>
        <time>2020-11-06T21:19:38Z</time>
      </trkpt>
      <trkpt lat="45.05192" lon="6.27678">
        <ele>1964</ele>
        <time>2020-11-06T21:21:05Z</time>
      </trkpt>
      <trkpt lat="45.05242" lon="6.27676">
        <ele>1948</ele>
        <time>2020-11-06T21:22:12Z</time>
      </trkpt>
      <trkpt lat="45.05221" lon="6.27732">
        <ele>1942</ele>
        <time>2020-11-06T21:23:12Z</time>
      </trkpt>
      <trkpt lat="45.05242" lon="6.27764">
        <ele>1928</ele>
        <time>2020-11-06T21:23:53Z</time>
      </trkpt>
      <trkpt lat="45.05224" lon="6.27792">
        <ele>1925</ele>
        <time>2020-11-06T21:24:28Z</time>
      </trkpt>
      <trkpt lat="45.0531" lon="6.27736">
        <ele>1917</ele>
        <time>2020-11-06T21:26:35Z</time>
      </trkpt>
      <trkpt lat="45.05298" lon="6.2779">
        <ele>1907</ele>
        <time>2020-11-06T21:27:28Z</time>
      </trkpt>
      <trkpt lat="45.05336" lon="6.2776">
        <ele>1905</ele>
        <time>2020-11-06T21:28:26Z</time>
      </trkpt>
      <trkpt lat="45.053" lon="6.27869">
        <ele>1886</ele>
        <time>2020-11-06T21:30:20Z</time>
      </trkpt>
      <trkpt lat="45.05353" lon="6.27809">
        <ele>1884</ele>
        <time>2020-11-06T21:31:50Z</time>
      </trkpt>
      <trkpt lat="45.05347" lon="6.27935">
        <ele>1856</ele>
        <time>2020-11-06T21:33:49Z</time>
      </trkpt>
      <trkpt lat="45.05407" lon="6.27832">
        <ele>1854</ele>
        <time>2020-11-06T21:35:55Z</time>
      </trkpt>
      <trkpt lat="45.05401" lon="6.27938">
        <ele>1834</ele>
        <time>2020-11-06T21:37:35Z</time>
      </trkpt>
      <trkpt lat="45.05444" lon="6.27955">
        <ele>1815</ele>
        <time>2020-11-06T21:38:35Z</time>
      </trkpt>
      <trkpt lat="45.05377" lon="6.28047">
        <ele>1811</ele>
        <time>2020-11-06T21:40:40Z</time>
      </trkpt>
      <trkpt lat="45.05701" lon="6.28">
        <ele>1743</ele>
        <time>2020-11-06T21:47:54Z</time>
      </trkpt>
      <trkpt lat="45.05635" lon="6.28148">
        <ele>1750</ele>
        <time>2020-11-06T21:50:39Z</time>
      </trkpt>
      <trkpt lat="45.0548" lon="6.28395">
        <ele>1776</ele>
        <time>2020-11-06T21:55:51Z</time>
      </trkpt>
      <trkpt lat="45.05412" lon="6.28459">
        <ele>1786</ele>
        <time>2020-11-06T21:57:40Z</time>
      </trkpt>
      <trkpt lat="45.05368" lon="6.28652">
        <ele>1793</ele>
        <time>2020-11-06T22:00:51Z</time>
      </trkpt>
      <trkpt lat="45.05282" lon="6.28738">
        <ele>1788</ele>
        <time>2020-11-06T22:03:11Z</time>
      </trkpt>
      <trkpt lat="45.05197" lon="6.28858">
        <ele>1800</ele>
        <time>2020-11-06T22:05:51Z</time>
      </trkpt>
      <trkpt lat="45.04899" lon="6.28946">
        <ele>1781</ele>
        <time>2020-11-06T22:12:38Z</time>
      </trkpt>
      <trkpt lat="45.04846" lon="6.28976">
        <ele>1749</ele>
        <time>2020-11-06T22:13:54Z</time>
      </trkpt>
      <trkpt lat="45.04819" lon="6.29079">
        <ele>1759</ele>
        <time>2020-11-06T22:15:37Z</time>
      </trkpt>
      <trkpt lat="45.0484" lon="6.29201">
        <ele>1798</ele>
        <time>2020-11-06T22:17:36Z</time>
      </trkpt>
      <trkpt lat="45.04937" lon="6.29446">
        <ele>1779</ele>
        <time>2020-11-06T22:22:01Z</time>
      </trkpt>
      <trkpt lat="45.04865" lon="6.2939">
        <ele>1771</ele>
        <time>2020-11-06T22:23:50Z</time>
      </trkpt>
      <trkpt lat="45.04922" lon="6.29534">
        <ele>1762</ele>
        <time>2020-11-06T22:26:26Z</time>
      </trkpt>
      <trkpt lat="45.04851" lon="6.29553">
        <ele>1734</ele>
        <time>2020-11-06T22:28:02Z</time>
      </trkpt>
      <trkpt lat="45.04816" lon="6.29762">
        <ele>1685</ele>
        <time>2020-11-06T22:31:25Z</time>
      </trkpt>
      <trkpt lat="45.04859" lon="6.30028">
        <ele>1643</ele>
        <time>2020-11-06T22:35:42Z</time>
      </trkpt>
      <trkpt lat="45.0481" lon="6.30178">
        <ele>1602</ele>
        <time>2020-11-06T22:38:18Z</time>
      </trkpt>
      <trkpt lat="45.04763" lon="6.30191">
        <ele>1594</ele>
        <time>2020-11-06T22:39:22Z</time>
      </trkpt>
      <trkpt lat="45.04712" lon="6.30234">
        <ele>1572</ele>
        <time>2020-11-06T22:40:41Z</time>
      </trkpt>
      <trkpt lat="45.04663" lon="6.30216">
        <ele>1556</ele>
        <time>2020-11-06T22:41:49Z</time>
      </trkpt>
      <trkpt lat="45.04708" lon="6.30304">
        <ele>1555</ele>
        <time>2020-11-06T22:43:31Z</time>
      </trkpt>
      <trkpt lat="45.04806" lon="6.30307">
        <ele>1579</ele>
        <time>2020-11-06T22:45:42Z</time>
      </trkpt>
      <trkpt lat="45.04684" lon="6.30373">
        <ele>1532</ele>
        <time>2020-11-06T22:48:36Z</time>
      </trkpt>
      <trkpt lat="45.0476" lon="6.30377">
        <ele>1555</ele>
        <time>2020-11-06T22:50:18Z</time>
      </trkpt>
      <trkpt lat="45.04695" lon="6.30517">
        <ele>1523</ele>
        <time>2020-11-06T22:52:55Z</time>
      </trkpt>
      <trkpt lat="45.04636" lon="6.30543">
        <ele>1513</ele>
        <time>2020-11-06T22:54:18Z</time>
      </trkpt>
      <trkpt lat="45.04581" lon="6.30521">
        <ele>1507</ele>
        <time>2020-11-06T22:55:34Z</time>
      </trkpt>
      <trkpt lat="45.04537" lon="6.3054">
        <ele>1491</ele>
        <time>2020-11-06T22:56:36Z</time>
      </trkpt>
      <trkpt lat="45.04498" lon="6.30607">
        <ele>1477</ele>
        <time>2020-11-06T22:57:57Z</time>
      </trkpt>
      <trkpt lat="45.04527" lon="6.30671">
        <ele>1477</ele>
        <time>2020-11-06T22:59:09Z</time>
      </trkpt>
      <trkpt lat="45.04613" lon="6.3074">
        <ele>1485</ele>
        <time>2020-11-06T23:01:21Z</time>
      </trkpt>
      <trkpt lat="45.0464" lon="6.30832">
        <ele>1479</ele>
        <time>2020-11-06T23:02:55Z</time>
      </trkpt>
      <trkpt lat="45.04634" lon="6.31073">
        <ele>1476</ele>
        <time>2020-11-06T23:06:42Z</time>
      </trkpt>
      <trkpt lat="45.04501" lon="6.31347">
        <ele>1463</ele>
        <time>2020-11-06T23:11:56Z</time>
      </trkpt>
      <trkpt lat="45.04519" lon="6.31474">
        <ele>1475</ele>
        <time>2020-11-06T23:13:58Z</time>
      </trkpt>
      <trkpt lat="45.04516" lon="6.31525">
        <ele>1481</ele>
        <time>2020-11-06T23:14:46Z</time>
      </trkpt>
      <trkpt lat="45.04543" lon="6.31562">
        <ele>1483</ele>
        <time>2020-11-06T23:15:36Z</time>
      </trkpt>
      <trkpt lat="45.04552" lon="6.31686">
        <ele>1502</ele>
        <time>2020-11-06T23:17:34Z</time>
      </trkpt>
      <trkpt lat="45.04542" lon="6.31809">
        <ele>1520</ele>
        <time>2020-11-06T23:19:31Z</time>
      </trkpt>
      <trkpt lat="45.04498" lon="6.31798">
        <ele>1531</ele>
        <time>2020-11-06T23:20:30Z</time>
      </trkpt>
      <trkpt lat="45.04537" lon="6.31856">
        <ele>1527</ele>
        <time>2020-11-06T23:21:46Z</time>
      </trkpt>
      <trkpt lat="45.04522" lon="6.31961">
        <ele>1543</ele>
        <time>2020-11-06T23:23:27Z</time>
      </trkpt>
      <trkpt lat="45.04498" lon="6.32051">
        <ele>1560</ele>
        <time>2020-11-06T23:24:57Z</time>
      </trkpt>
      <trkpt lat="45.04492" lon="6.32141">
        <ele>1566</ele>
        <time>2020-11-06T23:26:23Z</time>
      </trkpt>
      <trkpt lat="45.04439" lon="6.32268">
        <ele>1581</ele>
        <time>2020-11-06T23:28:42Z</time>
      </trkpt>
      <trkpt lat="45.04454" lon="6.32306">
        <ele>1577</ele>
        <time>2020-11-06T23:29:23Z</time>
      </trkpt>
      <trkpt lat="45.04428" lon="6.32321">
        <ele>1584</ele>
        <time>2020-11-06T23:30:00Z</time>
      </trkpt>
      <trkpt lat="45.04433" lon="6.32364">
        <ele>1581</ele>
        <time>2020-11-06T23:30:41Z</time>
      </trkpt>
      <trkpt lat="45.0439" lon="6.32326">
        <ele>1598</ele>
        <time>2020-11-06T23:31:49Z</time>
      </trkpt>
      <trkpt lat="45.04313" lon="6.32343">
        <ele>1626</ele>
        <time>2020-11-06T23:33:33Z</time>
      </trkpt>
      <trkpt lat="45.04261" lon="6.32324">
        <ele>1645</ele>
        <time>2020-11-06T23:34:45Z</time>
      </trkpt>
      <trkpt lat="45.04202" lon="6.3233">
        <ele>1674</ele>
        <time>2020-11-06T23:36:04Z</time>
      </trkpt>
      <trkpt lat="45.04195" lon="6.32272">
        <ele>1682</ele>
        <time>2020-11-06T23:36:59Z</time>
      </trkpt>
      <trkpt lat="45.0412" lon="6.32315">
        <ele>1713</ele>
        <time>2020-11-06T23:38:47Z</time>
      </trkpt>
      <trkpt lat="45.04094" lon="6.32371">
        <ele>1730</ele>
        <time>2020-11-06T23:39:50Z</time>
      </trkpt>
      <trkpt lat="45.04026" lon="6.32401">
        <ele>1753</ele>
        <time>2020-11-06T23:41:25Z</time>
      </trkpt>
      <trkpt lat="45.04105" lon="6.32424">
        <ele>1729</ele>
        <time>2020-11-06T23:43:13Z</time>
      </trkpt>
      <trkpt lat="45.04099" lon="6.32487">
        <ele>1729</ele>
        <time>2020-11-06T23:44:13Z</time>
      </trkpt>
      <trkpt lat="45.04108" lon="6.32527">
        <ele>1722</ele>
        <time>2020-11-06T23:44:52Z</time>
      </trkpt>
      <trkpt lat="45.04066" lon="6.32557">
        <ele>1725</ele>
        <time>2020-11-06T23:45:55Z</time>
      </trkpt>
      <trkpt lat="45.0407" lon="6.32626">
        <ele>1718</ele>
        <time>2020-11-06T23:47:00Z</time>
      </trkpt>
      <trkpt lat="45.0412" lon="6.32688">
        <ele>1708</ele>
        <time>2020-11-06T23:48:29Z</time>
      </trkpt>
      <trkpt lat="45.04152" lon="6.32862">
        <ele>1691</ele>
        <time>2020-11-06T23:51:19Z</time>
      </trkpt>
      <trkpt lat="45.04166" lon="6.33008">
        <ele>1668</ele>
        <time>2020-11-06T23:53:38Z</time>
      </trkpt>
      <trkpt lat="45.04129" lon="6.33135">
        <ele>1664</ele>
        <time>2020-11-06T23:55:47Z</time>
      </trkpt>
      <trkpt lat="45.04131" lon="6.33311">
        <ele>1650</ele>
        <time>2020-11-06T23:58:33Z</time>
      </trkpt>
      <trkpt lat="45.04141" lon="6.33377">
        <ele>1640</ele>
        <time>2020-11-06T23:59:37Z</time>
      </trkpt>
      <trkpt lat="45.04107" lon="6.33575">
        <ele>1649</ele>
        <time>2020-11-07T00:02:49Z</time>
      </trkpt>
      <trkpt lat="45.03993" lon="6.3369">
        <ele>1688</ele>
        <time>2020-11-07T00:05:56Z</time>
      </trkpt>
      <trkpt lat="45.03988" lon="6.33766">
        <ele>1684</ele>
        <time>2020-11-07T00:07:08Z</time>
      </trkpt>
      <trkpt lat="45.03903" lon="6.34064">
        <ele>1680</ele>
        <time>2020-11-07T00:12:11Z</time>
      </trkpt>
      <trkpt lat="45.03916" lon="6.34124">
        <ele>1654</ele>
        <time>2020-11-07T00:13:10Z</time>
      </trkpt>
      <trkpt lat="45.03809" lon="6.34463">
        <ele>1677</ele>
        <time>2020-11-07T00:19:00Z</time>
      </trkpt>
      <trkpt lat="45.03835" lon="6.34523">
        <ele>1654</ele>
        <time>2020-11-07T00:20:06Z</time>
      </trkpt>
      <trkpt lat="45.03797" lon="6.34654">
        <ele>1656</ele>
        <time>2020-11-07T00:22:20Z</time>
      </trkpt>
      <trkpt lat="45.03785" lon="6.34798">
        <ele>1648</ele>
        <time>2020-11-07T00:24:37Z</time>
      </trkpt>
      <trkpt lat="45.03702" lon="6.34879">
        <ele>1659</ele>
        <time>2020-11-07T00:26:51Z</time>
      </trkpt>
      <trkpt lat="45.03623" lon="6.35047">
        <ele>1667</ele>
        <time>2020-11-07T00:30:02Z</time>
      </trkpt>
      <trkpt lat="45.03567" lon="6.35087">
        <ele>1671</ele>
        <time>2020-11-07T00:31:25Z</time>
      </trkpt>
      <trkpt lat="45.0353" lon="6.35207">
        <ele>1659</ele>
        <time>2020-11-07T00:33:29Z</time>
      </trkpt>
      <trkpt lat="45.03449" lon="6.35323">
        <ele>1661</ele>
        <time>2020-11-07T00:36:03Z</time>
      </trkpt>
      <trkpt lat="45.03445" lon="6.35383">
        <ele>1661</ele>
        <time>2020-11-07T00:36:59Z</time>
      </trkpt>
      <trkpt lat="45.03285" lon="6.3557">
        <ele>1670</ele>
        <time>2020-11-07T00:41:36Z</time>
      </trkpt>
      <trkpt lat="45.03186" lon="6.35819">
        <ele>1667</ele>
        <time>2020-11-07T00:46:06Z</time>
      </trkpt>
      <trkpt lat="45.03259" lon="6.35873">
        <ele>1666</ele>
        <time>2020-11-07T00:47:56Z</time>
      </trkpt>
      <trkpt lat="45.03071" lon="6.36345">
        <ele>1671</ele>
        <time>2020-11-07T00:56:27Z</time>
      </trkpt>
      <trkpt lat="45.02892" lon="6.36536">
        <ele>1682</ele>
        <time>2020-11-07T01:01:26Z</time>
      </trkpt>
      <trkpt lat="45.02642" lon="6.36697">
        <ele>1696</ele>
        <time>2020-11-07T01:07:32Z</time>
      </trkpt>
      <trkpt lat="45.0257" lon="6.36705">
        <ele>1696</ele>
        <time>2020-11-07T01:09:09Z</time>
      </trkpt>
      <trkpt lat="45.02247" lon="6.36997">
        <ele>1716</ele>
        <time>2020-11-07T01:17:40Z</time>
      </trkpt>
      <trkpt lat="45.02122" lon="6.37106">
        <ele>1726</ele>
        <time>2020-11-07T01:20:56Z</time>
      </trkpt>
      <trkpt lat="45.02085" lon="6.37091">
        <ele>1715</ele>
        <time>2020-11-07T01:21:48Z</time>
      </trkpt>
      <trkpt lat="45.02031" lon="6.37158">
        <ele>1727</ele>
        <time>2020-11-07T01:23:23Z</time>
      </trkpt>
      <trkpt lat="45.01905" lon="6.37194">
        <ele>1727</ele>
        <time>2020-11-07T01:26:15Z</time>
      </trkpt>
      <trkpt lat="45.01789" lon="6.37175">
        <ele>1723</ele>
        <time>2020-11-07T01:28:51Z</time>
      </trkpt>
      <trkpt lat="45.01679" lon="6.37207">
        <ele>1743</ele>
        <time>2020-11-07T01:31:21Z</time>
      </trkpt>
      <trkpt lat="45.01632" lon="6.37162">
        <ele>1742</ele>
        <time>2020-11-07T01:32:36Z</time>
      </trkpt>
      <trkpt lat="45.01524" lon="6.37111">
        <ele>1754</ele>
        <time>2020-11-07T01:35:08Z</time>
      </trkpt>
      <trkpt lat="45.01447" lon="6.37218">
        <ele>1771</ele>
        <time>2020-11-07T01:37:32Z</time>
      </trkpt>
      <trkpt lat="45.01368" lon="6.37403">
        <ele>1805</ele>
        <time>2020-11-07T01:40:56Z</time>
      </trkpt>
      <trkpt lat="45.01334" lon="6.37336">
        <ele>1804</ele>
        <time>2020-11-07T01:42:14Z</time>
      </trkpt>
      <trkpt lat="45.01322" lon="6.37368">
        <ele>1811</ele>
        <time>2020-11-07T01:42:48Z</time>
      </trkpt>
      <trkpt lat="45.01289" lon="6.37368">
        <ele>1828</ele>
        <time>2020-11-07T01:43:32Z</time>
      </trkpt>
      <trkpt lat="45.01301" lon="6.37403">
        <ele>1823</ele>
        <time>2020-11-07T01:44:09Z</time>
      </trkpt>
      <trkpt lat="45.01275" lon="6.37405">
        <ele>1836</ele>
        <time>2020-11-07T01:44:44Z</time>
      </trkpt>
      <trkpt lat="45.01293" lon="6.37435">
        <ele>1832</ele>
        <time>2020-11-07T01:45:21Z</time>
      </trkpt>
      <trkpt lat="45.01266" lon="6.37443">
        <ele>1845</ele>
        <time>2020-11-07T01:45:58Z</time>
      </trkpt>
      <trkpt lat="45.01284" lon="6.37473">
        <ele>1844</ele>
        <time>2020-11-07T01:46:35Z</time>
      </trkpt>
      <trkpt lat="45.01265" lon="6.37495">
        <ele>1855</ele>
        <time>2020-11-07T01:47:07Z</time>
      </trkpt>
      <trkpt lat="45.01292" lon="6.37525">
        <ele>1860</ele>
        <time>2020-11-07T01:47:53Z</time>
      </trkpt>
      <trkpt lat="45.01268" lon="6.37536">
        <ele>1870</ele>
        <time>2020-11-07T01:48:27Z</time>
      </trkpt>
      <trkpt lat="45.01312" lon="6.37564">
        <ele>1876</ele>
        <time>2020-11-07T01:49:31Z</time>
      </trkpt>
      <trkpt lat="45.01248" lon="6.37589">
        <ele>1895</ele>
        <time>2020-11-07T01:51:00Z</time>
      </trkpt>
      <trkpt lat="45.0129" lon="6.37611">
        <ele>1902</ele>
        <time>2020-11-07T01:52:00Z</time>
      </trkpt>
      <trkpt lat="45.0126" lon="6.37619">
        <ele>1909</ele>
        <time>2020-11-07T01:52:40Z</time>
      </trkpt>
      <trkpt lat="45.01272" lon="6.37652">
        <ele>1925</ele>
        <time>2020-11-07T01:53:15Z</time>
      </trkpt>
      <trkpt lat="45.01154" lon="6.37675">
        <ele>1952</ele>
        <time>2020-11-07T01:55:54Z</time>
      </trkpt>
      <trkpt lat="45.01123" lon="6.37658">
        <ele>1953</ele>
        <time>2020-11-07T01:56:39Z</time>
      </trkpt>
      <trkpt lat="45.01128" lon="6.37694">
        <ele>1965</ele>
        <time>2020-11-07T01:57:13Z</time>
      </trkpt>
      <trkpt lat="45.01096" lon="6.37701">
        <ele>1973</ele>
        <time>2020-11-07T01:57:57Z</time>
      </trkpt>
      <trkpt lat="45.01095" lon="6.37748">
        <ele>1989</ele>
        <time>2020-11-07T01:58:41Z</time>
      </trkpt>
      <trkpt lat="45.01035" lon="6.37765">
        <ele>1998</ele>
        <time>2020-11-07T02:00:03Z</time>
      </trkpt>
      <trkpt lat="45.00922" lon="6.37819">
        <ele>2015</ele>
        <time>2020-11-07T02:02:42Z</time>
      </trkpt>
      <trkpt lat="45.00661" lon="6.37986">
        <ele>2053</ele>
        <time>2020-11-07T02:09:04Z</time>
      </trkpt>
      <trkpt lat="45.0047" lon="6.38173">
        <ele>2056</ele>
        <time>2020-11-07T02:14:14Z</time>
      </trkpt>
      <trkpt lat="45.00407" lon="6.38209">
        <ele>2060</ele>
        <time>2020-11-07T02:15:45Z</time>
      </trkpt>
      <trkpt lat="45.00338" lon="6.38231">
        <ele>2061</ele>
        <time>2020-11-07T02:17:19Z</time>
      </trkpt>
      <trkpt lat="44.99904" lon="6.38533">
        <ele>2080</ele>
        <time>2020-11-07T02:28:05Z</time>
      </trkpt>
      <trkpt lat="44.99867" lon="6.38589">
        <ele>2084</ele>
        <time>2020-11-07T02:29:17Z</time>
      </trkpt>
      <trkpt lat="44.99746" lon="6.38673">
        <ele>2092</ele>
        <time>2020-11-07T02:32:17Z</time>
      </trkpt>
      <trkpt lat="44.99577" lon="6.3881">
        <ele>2122</ele>
        <time>2020-11-07T02:36:37Z</time>
      </trkpt>
      <trkpt lat="44.99421" lon="6.38855">
        <ele>2139</ele>
        <time>2020-11-07T02:40:09Z</time>
      </trkpt>
      <trkpt lat="44.99304" lon="6.38922">
        <ele>2149</ele>
        <time>2020-11-07T02:42:58Z</time>
      </trkpt>
      <trkpt lat="44.99136" lon="6.39085">
        <ele>2168</ele>
        <time>2020-11-07T02:47:30Z</time>
      </trkpt>
      <trkpt lat="44.98835" lon="6.3942">
        <ele>2189</ele>
        <time>2020-11-07T02:56:01Z</time>
      </trkpt>
      <trkpt lat="44.98583" lon="6.39722">
        <ele>2212</ele>
        <time>2020-11-07T03:03:22Z</time>
      </trkpt>
      <trkpt lat="44.98447" lon="6.3993">
        <ele>2226</ele>
        <time>2020-11-07T03:07:49Z</time>
      </trkpt>
      <trkpt lat="44.98216" lon="6.40302">
        <ele>2244</ele>
        <time>2020-11-07T03:15:36Z</time>
      </trkpt>
      <trkpt lat="44.9802" lon="6.40477">
        <ele>2263</ele>
        <time>2020-11-07T03:20:46Z</time>
      </trkpt>
      <trkpt lat="44.97829" lon="6.40598">
        <ele>2300</ele>
        <time>2020-11-07T03:25:25Z</time>
      </trkpt>
      <trkpt lat="44.97765" lon="6.40699">
        <ele>2326</ele>
        <time>2020-11-07T03:27:33Z</time>
      </trkpt>
      <trkpt lat="44.97776" lon="6.40744">
        <ele>2336</ele>
        <time>2020-11-07T03:28:18Z</time>
      </trkpt>
      <trkpt lat="44.97764" lon="6.40776">
        <ele>2340</ele>
        <time>2020-11-07T03:28:52Z</time>
      </trkpt>
      <trkpt lat="44.97797" lon="6.40967">
        <ele>2357</ele>
        <time>2020-11-07T03:31:58Z</time>
      </trkpt>
      <trkpt lat="44.9779" lon="6.41053">
        <ele>2355</ele>
        <time>2020-11-07T03:33:19Z</time>
      </trkpt>
      <trkpt lat="44.9785" lon="6.41179">
        <ele>2358</ele>
        <time>2020-11-07T03:35:43Z</time>
      </trkpt>
      <trkpt lat="44.97941" lon="6.41522">
        <ele>2340</ele>
        <time>2020-11-07T03:41:28Z</time>
      </trkpt>
      <trkpt lat="44.97979" lon="6.41677">
        <ele>2318</ele>
        <time>2020-11-07T03:44:03Z</time>
      </trkpt>
      <trkpt lat="44.98004" lon="6.41797">
        <ele>2300</ele>
        <time>2020-11-07T03:46:01Z</time>
      </trkpt>
      <trkpt lat="44.98011" lon="6.41866">
        <ele>2288</ele>
        <time>2020-11-07T03:47:07Z</time>
      </trkpt>
      <trkpt lat="44.98048" lon="6.41904">
        <ele>2285</ele>
        <time>2020-11-07T03:48:08Z</time>
      </trkpt>
      <trkpt lat="44.98114" lon="6.42095">
        <ele>2261</ele>
        <time>2020-11-07T03:51:29Z</time>
      </trkpt>
      <trkpt lat="44.98165" lon="6.42121">
        <ele>2263</ele>
        <time>2020-11-07T03:52:41Z</time>
      </trkpt>
      <trkpt lat="44.98225" lon="6.42222">
        <ele>2259</ele>
        <time>2020-11-07T03:54:46Z</time>
      </trkpt>
      <trkpt lat="44.98212" lon="6.42308">
        <ele>2250</ele>
        <time>2020-11-07T03:56:09Z</time>
      </trkpt>
      <trkpt lat="44.98236" lon="6.42374">
        <ele>2247</ele>
        <time>2020-11-07T03:57:19Z</time>
      </trkpt>
      <trkpt lat="44.98234" lon="6.42679">
        <ele>2235</ele>
        <time>2020-11-07T04:02:07Z</time>
      </trkpt>
      <trkpt lat="44.98168" lon="6.42926">
        <ele>2211</ele>
        <time>2020-11-07T04:06:16Z</time>
      </trkpt>
      <trkpt lat="44.98072" lon="6.43475">
        <ele>2169</ele>
        <time>2020-11-07T04:15:10Z</time>
      </trkpt>
      <trkpt lat="44.98073" lon="6.43539">
        <ele>2169</ele>
        <time>2020-11-07T04:16:10Z</time>
      </trkpt>
      <trkpt lat="44.98049" lon="6.43589">
        <ele>2174</ele>
        <time>2020-11-07T04:17:07Z</time>
      </trkpt>
      <trkpt lat="44.98063" lon="6.43647">
        <ele>2170</ele>
        <time>2020-11-07T04:18:05Z</time>
      </trkpt>
      <trkpt lat="44.98045" lon="6.43692">
        <ele>2167</ele>
        <time>2020-11-07T04:18:54Z</time>
      </trkpt>
      <trkpt lat="44.98052" lon="6.4384">
        <ele>2164</ele>
        <time>2020-11-07T04:21:14Z</time>
      </trkpt>
      <trkpt lat="44.98005" lon="6.43926">
        <ele>2146</ele>
        <time>2020-11-07T04:22:56Z</time>
      </trkpt>
      <trkpt lat="44.97919" lon="6.44241">
        <ele>2090</ele>
        <time>2020-11-07T04:28:15Z</time>
      </trkpt>
      <trkpt lat="44.97897" lon="6.44237">
        <ele>2081</ele>
        <time>2020-11-07T04:28:45Z</time>
      </trkpt>
      <trkpt lat="44.97869" lon="6.44273">
        <ele>2065</ele>
        <time>2020-11-07T04:29:35Z</time>
      </trkpt>
      <trkpt lat="44.97867" lon="6.44331">
        <ele>2055</ele>
        <time>2020-11-07T04:30:30Z</time>
      </trkpt>
      <trkpt lat="44.97744" lon="6.44557">
        <ele>1966</ele>
        <time>2020-11-07T04:34:59Z</time>
      </trkpt>
      <trkpt lat="44.97594" lon="6.44632">
        <ele>1949</ele>
        <time>2020-11-07T04:38:32Z</time>
      </trkpt>
      <trkpt lat="44.97606" lon="6.44662">
        <ele>1932</ele>
        <time>2020-11-07T04:39:04Z</time>
      </trkpt>
      <trkpt lat="44.97589" lon="6.44677">
        <ele>1931</ele>
        <time>2020-11-07T04:39:31Z</time>
      </trkpt>
      <trkpt lat="44.97609" lon="6.44709">
        <ele>1923</ele>
        <time>2020-11-07T04:40:11Z</time>
      </trkpt>
      <trkpt lat="44.97595" lon="6.44752">
        <ele>1917</ele>
        <time>2020-11-07T04:40:56Z</time>
      </trkpt>
      <trkpt lat="44.97615" lon="6.44793">
        <ele>1916</ele>
        <time>2020-11-07T04:41:43Z</time>
      </trkpt>
      <trkpt lat="44.976" lon="6.44851">
        <ele>1912</ele>
        <time>2020-11-07T04:42:41Z</time>
      </trkpt>
      <trkpt lat="44.97588" lon="6.44951">
        <ele>1903</ele>
        <time>2020-11-07T04:44:17Z</time>
      </trkpt>
      <trkpt lat="44.97548" lon="6.45164">
        <ele>1889</ele>
        <time>2020-11-07T04:47:45Z</time>
      </trkpt>
      <trkpt lat="44.97577" lon="6.4522">
        <ele>1874</ele>
        <time>2020-11-07T04:48:50Z</time>
      </trkpt>
      <trkpt lat="44.97588" lon="6.45273">
        <ele>1865</ele>
        <time>2020-11-07T04:49:43Z</time>
      </trkpt>
      <trkpt lat="44.97563" lon="6.45333">
        <ele>1858</ele>
        <time>2020-11-07T04:50:48Z</time>
      </trkpt>
      <trkpt lat="44.97568" lon="6.454">
        <ele>1845</ele>
        <time>2020-11-07T04:51:52Z</time>
      </trkpt>
      <trkpt lat="44.97674" lon="6.45722">
        <ele>1782</ele>
        <time>2020-11-07T04:57:27Z</time>
      </trkpt>
      <trkpt lat="44.97661" lon="6.45857">
        <ele>1758</ele>
        <time>2020-11-07T04:59:36Z</time>
      </trkpt>
      <trkpt lat="44.97706" lon="6.46155">
        <ele>1723</ele>
        <time>2020-11-07T05:04:23Z</time>
      </trkpt>
      <trkpt lat="44.97791" lon="6.46262">
        <ele>1710</ele>
        <time>2020-11-07T05:06:55Z</time>
      </trkpt>
      <trkpt lat="44.97878" lon="6.46305">
        <ele>1697</ele>
        <time>2020-11-07T05:08:58Z</time>
      </trkpt>
      <trkpt lat="44.97866" lon="6.46359">
        <ele>1698</ele>
        <time>2020-11-07T05:09:52Z</time>
      </trkpt>
      <trkpt lat="44.97903" lon="6.464">
        <ele>1690</ele>
        <time>2020-11-07T05:10:54Z</time>
      </trkpt>
      <trkpt lat="44.97922" lon="6.46451">
        <ele>1689</ele>
        <time>2020-11-07T05:11:49Z</time>
      </trkpt>
      <trkpt lat="44.9799" lon="6.4652">
        <ele>1677</ele>
        <time>2020-11-07T05:13:41Z</time>
      </trkpt>
      <trkpt lat="44.9802" lon="6.46625">
        <ele>1669</ele>
        <time>2020-11-07T05:15:27Z</time>
      </trkpt>
      <trkpt lat="44.98122" lon="6.46767">
        <ele>1637</ele>
        <time>2020-11-07T05:18:39Z</time>
      </trkpt>
      <trkpt lat="44.98122" lon="6.46823">
        <ele>1639</ele>
        <time>2020-11-07T05:19:31Z</time>
      </trkpt>
      <trkpt lat="44.98172" lon="6.46784">
        <ele>1625</ele>
        <time>2020-11-07T05:20:48Z</time>
      </trkpt>
      <trkpt lat="44.98171" lon="6.46895">
        <ele>1625</ele>
        <time>2020-11-07T05:22:32Z</time>
      </trkpt>
      <trkpt lat="44.98196" lon="6.4693">
        <ele>1624</ele>
        <time>2020-11-07T05:23:19Z</time>
      </trkpt>
      <trkpt lat="44.98239" lon="6.46904">
        <ele>1613</ele>
        <time>2020-11-07T05:24:22Z</time>
      </trkpt>
      <trkpt lat="44.98342" lon="6.47022">
        <ele>1592</ele>
        <time>2020-11-07T05:27:19Z</time>
      </trkpt>
      <trkpt lat="44.98298" lon="6.47056">
        <ele>1601</ele>
        <time>2020-11-07T05:28:26Z</time>
      </trkpt>
      <trkpt lat="44.98306" lon="6.47097">
        <ele>1598</ele>
        <time>2020-11-07T05:29:06Z</time>
      </trkpt>
      <trkpt lat="44.98354" lon="6.47069">
        <ele>1586</ele>
        <time>2020-11-07T05:30:15Z</time>
      </trkpt>
      <trkpt lat="44.98351" lon="6.47116">
        <ele>1584</ele>
        <time>2020-11-07T05:31:00Z</time>
      </trkpt>
      <trkpt lat="44.98407" lon="6.47217">
        <ele>1573</ele>
        <time>2020-11-07T05:33:01Z</time>
      </trkpt>
      <trkpt lat="44.98453" lon="6.47376">
        <ele>1566</ele>
        <time>2020-11-07T05:35:43Z</time>
      </trkpt>
      <trkpt lat="44.98506" lon="6.47657">
        <ele>1544</ele>
        <time>2020-11-07T05:40:17Z</time>
      </trkpt>
      <trkpt lat="44.98559" lon="6.47818">
        <ele>1535</ele>
        <time>2020-11-07T05:43:05Z</time>
      </trkpt>
      <trkpt lat="44.98605" lon="6.479">
        <ele>1530</ele>
        <time>2020-11-07T05:44:44Z</time>
      </trkpt>
      <trkpt lat="44.98661" lon="6.48058">
        <ele>1520</ele>
        <time>2020-11-07T05:47:31Z</time>
      </trkpt>
      <trkpt lat="44.98728" lon="6.48104">
        <ele>1522</ele>
        <time>2020-11-07T05:49:10Z</time>
      </trkpt>
      <trkpt lat="44.98746" lon="6.48155">
        <ele>1524</ele>
        <time>2020-11-07T05:50:04Z</time>
      </trkpt>
      <trkpt lat="44.98641" lon="6.48264">
        <ele>1518</ele>
        <time>2020-11-07T05:52:58Z</time>
      </trkpt>
      <trkpt lat="44.98605" lon="6.48252">
        <ele>1517</ele>
        <time>2020-11-07T05:53:47Z</time>
      </trkpt>
      <trkpt lat="44.98398" lon="6.48374">
        <ele>1512</ele>
        <time>2020-11-07T05:58:46Z</time>
      </trkpt>
      <trkpt lat="44.98341" lon="6.48451">
        <ele>1509</ele>
        <time>2020-11-07T06:00:31Z</time>
      </trkpt>
      <trkpt lat="44.98328" lon="6.48505">
        <ele>1507</ele>
        <time>2020-11-07T06:01:25Z</time>
      </trkpt>
      <trkpt lat="44.98278" lon="6.48554">
        <ele>1512</ele>
        <time>2020-11-07T06:02:46Z</time>
      </trkpt>
      <trkpt lat="44.98277" lon="6.48636">
        <ele>1507</ele>
        <time>2020-11-07T06:04:04Z</time>
      </trkpt>
      <trkpt lat="44.98202" lon="6.48788">
        <ele>1509</ele>
        <time>2020-11-07T06:06:59Z</time>
      </trkpt>
      <trkpt lat="44.98157" lon="6.48923">
        <ele>1502</ele>
        <time>2020-11-07T06:09:20Z</time>
      </trkpt>
      <trkpt lat="44.98046" lon="6.49031">
        <ele>1497</ele>
        <time>2020-11-07T06:12:19Z</time>
      </trkpt>
      <trkpt lat="44.98022" lon="6.49179">
        <ele>1492</ele>
        <time>2020-11-07T06:14:43Z</time>
      </trkpt>
      <trkpt lat="44.97823" lon="6.49636">
        <ele>1485</ele>
        <time>2020-11-07T06:23:09Z</time>
      </trkpt>
      <trkpt lat="44.97689" lon="6.49676">
        <ele>1484</ele>
        <time>2020-11-07T06:26:12Z</time>
      </trkpt>
      <trkpt lat="44.97633" lon="6.49732">
        <ele>1485</ele>
        <time>2020-11-07T06:27:44Z</time>
      </trkpt>
      <trkpt lat="44.97597" lon="6.49842">
        <ele>1482</ele>
        <time>2020-11-07T06:29:38Z</time>
      </trkpt>
      <trkpt lat="44.97577" lon="6.50037">
        <ele>1479</ele>
        <time>2020-11-07T06:32:44Z</time>
      </trkpt>
      <trkpt lat="44.97457" lon="6.50245">
        <ele>1477</ele>
        <time>2020-11-07T06:36:57Z</time>
      </trkpt>
      <trkpt lat="44.97413" lon="6.50363">
        <ele>1473</ele>
        <time>2020-11-07T06:39:03Z</time>
      </trkpt>
      <trkpt lat="44.97381" lon="6.50395">
        <ele>1473</ele>
        <time>2020-11-07T06:39:56Z</time>
      </trkpt>
      <trkpt lat="44.97331" lon="6.50623">
        <ele>1467</ele>
        <time>2020-11-07T06:43:41Z</time>
      </trkpt>
      <trkpt lat="44.97254" lon="6.50539">
        <ele>1471</ele>
        <time>2020-11-07T06:45:51Z</time>
      </trkpt>
      <trkpt lat="44.97123" lon="6.50174">
        <ele>1492</ele>
        <time>2020-11-07T06:52:17Z</time>
      </trkpt>
      <trkpt lat="44.97067" lon="6.50039">
        <ele>1511</ele>
        <time>2020-11-07T06:54:45Z</time>
      </trkpt>
      <trkpt lat="44.9705" lon="6.49975">
        <ele>1524</ele>
        <time>2020-11-07T06:55:49Z</time>
      </trkpt>
      <trkpt lat="44.97011" lon="6.50095">
        <ele>1527</ele>
        <time>2020-11-07T06:57:54Z</time>
      </trkpt>
      <trkpt lat="44.96974" lon="6.50142">
        <ele>1529</ele>
        <time>2020-11-07T06:59:01Z</time>
      </trkpt>
      <trkpt lat="44.96944" lon="6.49859">
        <ele>1577</ele>
        <time>2020-11-07T07:03:31Z</time>
      </trkpt>
      <trkpt lat="44.96874" lon="6.4979">
        <ele>1605</ele>
        <time>2020-11-07T07:05:25Z</time>
      </trkpt>
      <trkpt lat="44.96801" lon="6.49897">
        <ele>1614</ele>
        <time>2020-11-07T07:07:45Z</time>
      </trkpt>
      <trkpt lat="44.96765" lon="6.49893">
        <ele>1626</ele>
        <time>2020-11-07T07:08:33Z</time>
      </trkpt>
      <trkpt lat="44.96713" lon="6.49837">
        <ele>1656</ele>
        <time>2020-11-07T07:10:00Z</time>
      </trkpt>
      <trkpt lat="44.96701" lon="6.49756">
        <ele>1666</ele>
        <time>2020-11-07T07:11:18Z</time>
      </trkpt>
      <trkpt lat="44.96756" lon="6.49666">
        <ele>1662</ele>
        <time>2020-11-07T07:13:11Z</time>
      </trkpt>
      <trkpt lat="44.96814" lon="6.49653">
        <ele>1651</ele>
        <time>2020-11-07T07:14:29Z</time>
      </trkpt>
      <trkpt lat="44.96827" lon="6.4949">
        <ele>1647</ele>
        <time>2020-11-07T07:17:04Z</time>
      </trkpt>
      <trkpt lat="44.96776" lon="6.49539">
        <ele>1665</ele>
        <time>2020-11-07T07:18:26Z</time>
      </trkpt>
      <trkpt lat="44.96674" lon="6.4958">
        <ele>1694</ele>
        <time>2020-11-07T07:20:48Z</time>
      </trkpt>
      <trkpt lat="44.96598" lon="6.49648">
        <ele>1718</ele>
        <time>2020-11-07T07:22:48Z</time>
      </trkpt>
      <trkpt lat="44.96549" lon="6.49578">
        <ele>1735</ele>
        <time>2020-11-07T07:24:21Z</time>
      </trkpt>
      <trkpt lat="44.96363" lon="6.49528">
        <ele>1796</ele>
        <time>2020-11-07T07:28:33Z</time>
      </trkpt>
      <trkpt lat="44.96302" lon="6.49462">
        <ele>1790</ele>
        <time>2020-11-07T07:30:16Z</time>
      </trkpt>
      <trkpt lat="44.96238" lon="6.49453">
        <ele>1809</ele>
        <time>2020-11-07T07:31:42Z</time>
      </trkpt>
      <trkpt lat="44.96168" lon="6.4938">
        <ele>1808</ele>
        <time>2020-11-07T07:33:38Z</time>
      </trkpt>
      <trkpt lat="44.96103" lon="6.49382">
        <ele>1824</ele>
        <time>2020-11-07T07:35:05Z</time>
      </trkpt>
      <trkpt lat="44.96012" lon="6.49421">
        <ele>1863</ele>
        <time>2020-11-07T07:37:12Z</time>
      </trkpt>
      <trkpt lat="44.95894" lon="6.49455">
        <ele>1906</ele>
        <time>2020-11-07T07:39:52Z</time>
      </trkpt>
      <trkpt lat="44.95685" lon="6.49591">
        <ele>1983</ele>
        <time>2020-11-07T07:44:59Z</time>
      </trkpt>
      <trkpt lat="44.9555" lon="6.49584">
        <ele>2006</ele>
        <time>2020-11-07T07:48:00Z</time>
      </trkpt>
      <trkpt lat="44.95562" lon="6.49498">
        <ele>1996</ele>
        <time>2020-11-07T07:49:22Z</time>
      </trkpt>
      <trkpt lat="44.95149" lon="6.49706">
        <ele>2089</ele>
        <time>2020-11-07T07:59:07Z</time>
      </trkpt>
      <trkpt lat="44.94919" lon="6.49872">
        <ele>2137</ele>
        <time>2020-11-07T08:04:52Z</time>
      </trkpt>
      <trkpt lat="44.94846" lon="6.5">
        <ele>2163</ele>
        <time>2020-11-07T08:07:27Z</time>
      </trkpt>
      <trkpt lat="44.9489" lon="6.50033">
        <ele>2171</ele>
        <time>2020-11-07T08:08:34Z</time>
      </trkpt>
      <trkpt lat="44.94705" lon="6.50138">
        <ele>2214</ele>
        <time>2020-11-07T08:13:00Z</time>
      </trkpt>
      <trkpt lat="44.94668" lon="6.50153">
        <ele>2224</ele>
        <time>2020-11-07T08:13:51Z</time>
      </trkpt>
      <trkpt lat="44.94568" lon="6.50204">
        <ele>2242</ele>
        <time>2020-11-07T08:16:13Z</time>
      </trkpt>
      <trkpt lat="44.94425" lon="6.50159">
        <ele>2262</ele>
        <time>2020-11-07T08:19:29Z</time>
      </trkpt>
      <trkpt lat="44.94171" lon="6.50211">
        <ele>2312</ele>
        <time>2020-11-07T08:25:11Z</time>
      </trkpt>
      <trkpt lat="44.94124" lon="6.50226">
        <ele>2325</ele>
        <time>2020-11-07T08:26:15Z</time>
      </trkpt>
      <trkpt lat="44.94193" lon="6.50327">
        <ele>2326</ele>
        <time>2020-11-07T08:28:28Z</time>
      </trkpt>
      <trkpt lat="44.94077" lon="6.50335">
        <ele>2350</ele>
        <time>2020-11-07T08:31:03Z</time>
      </trkpt>
      <trkpt lat="44.93998" lon="6.50286">
        <ele>2361</ele>
        <time>2020-11-07T08:32:58Z</time>
      </trkpt>
      <trkpt lat="44.93758" lon="6.50354">
        <ele>2399</ele>
        <time>2020-11-07T08:38:25Z</time>
      </trkpt>
      <trkpt lat="44.93687" lon="6.50389">
        <ele>2408</ele>
        <time>2020-11-07T08:40:05Z</time>
      </trkpt>
      <trkpt lat="44.9353" lon="6.50393">
        <ele>2429</ele>
        <time>2020-11-07T08:43:35Z</time>
      </trkpt>
      <trkpt lat="44.93413" lon="6.50509">
        <ele>2414</ele>
        <time>2020-11-07T08:46:45Z</time>
      </trkpt>
      <trkpt lat="44.93224" lon="6.50709">
        <ele>2388</ele>
        <time>2020-11-07T08:52:01Z</time>
      </trkpt>
      <trkpt lat="44.9306" lon="6.50812">
        <ele>2392</ele>
        <time>2020-11-07T08:56:00Z</time>
      </trkpt>
      <trkpt lat="44.92759" lon="6.5082">
        <ele>2373</ele>
        <time>2020-11-07T09:02:42Z</time>
      </trkpt>
      <trkpt lat="44.92607" lon="6.50781">
        <ele>2356</ele>
        <time>2020-11-07T09:06:08Z</time>
      </trkpt>
      <trkpt lat="44.9257" lon="6.50829">
        <ele>2352</ele>
        <time>2020-11-07T09:07:15Z</time>
      </trkpt>
      <trkpt lat="44.92564" lon="6.50876">
        <ele>2358</ele>
        <time>2020-11-07T09:08:00Z</time>
      </trkpt>
      <trkpt lat="44.92531" lon="6.50906">
        <ele>2356</ele>
        <time>2020-11-07T09:08:53Z</time>
      </trkpt>
      <trkpt lat="44.92479" lon="6.50867">
        <ele>2334</ele>
        <time>2020-11-07T09:10:11Z</time>
      </trkpt>
      <trkpt lat="44.92443" lon="6.50902">
        <ele>2331</ele>
        <time>2020-11-07T09:11:09Z</time>
      </trkpt>
      <trkpt lat="44.924" lon="6.50917">
        <ele>2325</ele>
        <time>2020-11-07T09:12:09Z</time>
      </trkpt>
      <trkpt lat="44.92315" lon="6.50884">
        <ele>2303</ele>
        <time>2020-11-07T09:14:06Z</time>
      </trkpt>
      <trkpt lat="44.9239" lon="6.50805">
        <ele>2293</ele>
        <time>2020-11-07T09:16:11Z</time>
      </trkpt>
      <trkpt lat="44.92397" lon="6.50754">
        <ele>2289</ele>
        <time>2020-11-07T09:17:00Z</time>
      </trkpt>
      <trkpt lat="44.92327" lon="6.50786">
        <ele>2270</ele>
        <time>2020-11-07T09:18:38Z</time>
      </trkpt>
      <trkpt lat="44.92288" lon="6.50762">
        <ele>2259</ele>
        <time>2020-11-07T09:19:35Z</time>
      </trkpt>
      <trkpt lat="44.92326" lon="6.50732">
        <ele>2256</ele>
        <time>2020-11-07T09:20:33Z</time>
      </trkpt>
      <trkpt lat="44.92283" lon="6.50691">
        <ele>2239</ele>
        <time>2020-11-07T09:21:42Z</time>
      </trkpt>
      <trkpt lat="44.92195" lon="6.50616">
        <ele>2216</ele>
        <time>2020-11-07T09:24:00Z</time>
      </trkpt>
      <trkpt lat="44.92294" lon="6.5059">
        <ele>2205</ele>
        <time>2020-11-07T09:26:14Z</time>
      </trkpt>
      <trkpt lat="44.92262" lon="6.50528">
        <ele>2179</ele>
        <time>2020-11-07T09:27:26Z</time>
      </trkpt>
      <trkpt lat="44.92165" lon="6.50503">
        <ele>2185</ele>
        <time>2020-11-07T09:29:38Z</time>
      </trkpt>
      <trkpt lat="44.92251" lon="6.50423">
        <ele>2143</ele>
        <time>2020-11-07T09:31:55Z</time>
      </trkpt>
      <trkpt lat="44.92311" lon="6.50415">
        <ele>2139</ele>
        <time>2020-11-07T09:33:16Z</time>
      </trkpt>
      <trkpt lat="44.92276" lon="6.50374">
        <ele>2131</ele>
        <time>2020-11-07T09:34:17Z</time>
      </trkpt>
      <trkpt lat="44.92207" lon="6.50354">
        <ele>2122</ele>
        <time>2020-11-07T09:35:50Z</time>
      </trkpt>
      <trkpt lat="44.92046" lon="6.50234">
        <ele>2081</ele>
        <time>2020-11-07T09:39:53Z</time>
      </trkpt>
      <trkpt lat="44.91879" lon="6.50228">
        <ele>2057</ele>
        <time>2020-11-07T09:43:36Z</time>
      </trkpt>
      <trkpt lat="44.91739" lon="6.50266">
        <ele>2035</ele>
        <time>2020-11-07T09:46:47Z</time>
      </trkpt>
      <trkpt lat="44.91817" lon="6.50176">
        <ele>2023</ele>
        <time>2020-11-07T09:49:01Z</time>
      </trkpt>
      <trkpt lat="44.91697" lon="6.50206">
        <ele>1998</ele>
        <time>2020-11-07T09:51:44Z</time>
      </trkpt>
      <trkpt lat="44.91789" lon="6.50082">
        <ele>1973</ele>
        <time>2020-11-07T09:54:33Z</time>
      </trkpt>
      <trkpt lat="44.91486" lon="6.50069">
        <ele>1885</ele>
        <time>2020-11-07T10:01:18Z</time>
      </trkpt>
      <trkpt lat="44.91183" lon="6.50024">
        <ele>1818</ele>
        <time>2020-11-07T10:08:04Z</time>
      </trkpt>
      <trkpt lat="44.90964" lon="6.49893">
        <ele>1782</ele>
        <time>2020-11-07T10:13:22Z</time>
      </trkpt>
      <trkpt lat="44.90929" lon="6.49715">
        <ele>1755</ele>
        <time>2020-11-07T10:16:16Z</time>
      </trkpt>
      <trkpt lat="44.90726" lon="6.49543">
        <ele>1741</ele>
        <time>2020-11-07T10:21:32Z</time>
      </trkpt>
      <trkpt lat="44.90559" lon="6.49554">
        <ele>1739</ele>
        <time>2020-11-07T10:25:15Z</time>
      </trkpt>
      <trkpt lat="44.90443" lon="6.49541">
        <ele>1738</ele>
        <time>2020-11-07T10:27:51Z</time>
      </trkpt>
      <trkpt lat="44.90285" lon="6.49438">
        <ele>1739</ele>
        <time>2020-11-07T10:31:43Z</time>
      </trkpt>
      <trkpt lat="44.90194" lon="6.49322">
        <ele>1722</ele>
        <time>2020-11-07T10:34:27Z</time>
      </trkpt>
      <trkpt lat="44.89571" lon="6.49129">
        <ele>1714</ele>
        <time>2020-11-07T10:48:38Z</time>
      </trkpt>
      <trkpt lat="44.89309" lon="6.49103">
        <ele>1711</ele>
        <time>2020-11-07T10:54:28Z</time>
      </trkpt>
      <trkpt lat="44.89218" lon="6.49043">
        <ele>1690</ele>
        <time>2020-11-07T10:56:42Z</time>
      </trkpt>
      <trkpt lat="44.89141" lon="6.49105">
        <ele>1689</ele>
        <time>2020-11-07T10:58:41Z</time>
      </trkpt>
      <trkpt lat="44.89099" lon="6.49099">
        <ele>1679</ele>
        <time>2020-11-07T10:59:37Z</time>
      </trkpt>
      <trkpt lat="44.88701" lon="6.48983">
        <ele>1620</ele>
        <time>2020-11-07T11:08:39Z</time>
      </trkpt>
      <trkpt lat="44.88564" lon="6.4897">
        <ele>1614</ele>
        <time>2020-11-07T11:11:42Z</time>
      </trkpt>
      <trkpt lat="44.88397" lon="6.48876">
        <ele>1578</ele>
        <time>2020-11-07T11:15:42Z</time>
      </trkpt>
      <trkpt lat="44.88233" lon="6.4888">
        <ele>1564</ele>
        <time>2020-11-07T11:19:21Z</time>
      </trkpt>
      <trkpt lat="44.87941" lon="6.48949">
        <ele>1529</ele>
        <time>2020-11-07T11:25:56Z</time>
      </trkpt>
      <trkpt lat="44.8785" lon="6.49108">
        <ele>1529</ele>
        <time>2020-11-07T11:29:10Z</time>
      </trkpt>
      <trkpt lat="44.87658" lon="6.49245">
        <ele>1478</ele>
        <time>2020-11-07T11:33:57Z</time>
      </trkpt>
      <trkpt lat="44.87579" lon="6.49382">
        <ele>1475</ele>
        <time>2020-11-07T11:36:44Z</time>
      </trkpt>
      <trkpt lat="44.87442" lon="6.49344">
        <ele>1429</ele>
        <time>2020-11-07T11:39:50Z</time>
      </trkpt>
      <trkpt lat="44.87372" lon="6.49443">
        <ele>1453</ele>
        <time>2020-11-07T11:42:02Z</time>
      </trkpt>
      <trkpt lat="44.87202" lon="6.49327">
        <ele>1421</ele>
        <time>2020-11-07T11:46:14Z</time>
      </trkpt>
      <trkpt lat="44.87001" lon="6.49335">
        <ele>1416</ele>
        <time>2020-11-07T11:50:43Z</time>
      </trkpt>
      <trkpt lat="44.86828" lon="6.49348">
        <ele>1406</ele>
        <time>2020-11-07T11:54:34Z</time>
      </trkpt>
      <trkpt lat="44.86651" lon="6.49524">
        <ele>1391</ele>
        <time>2020-11-07T11:59:23Z</time>
      </trkpt>
      <trkpt lat="44.86724" lon="6.49378">
        <ele>1377</ele>
        <time>2020-11-07T12:02:12Z</time>
      </trkpt>
      <trkpt lat="44.86624" lon="6.49447">
        <ele>1369</ele>
        <time>2020-11-07T12:04:40Z</time>
      </trkpt>
      <trkpt lat="44.86502" lon="6.49382">
        <ele>1352</ele>
        <time>2020-11-07T12:07:34Z</time>
      </trkpt>
      <trkpt lat="44.86463" lon="6.4934">
        <ele>1339</ele>
        <time>2020-11-07T12:08:40Z</time>
      </trkpt>
      <trkpt lat="44.86384" lon="6.49357">
        <ele>1331</ele>
        <time>2020-11-07T12:10:26Z</time>
      </trkpt>
      <trkpt lat="44.86235" lon="6.49348">
        <ele>1310</ele>
        <time>2020-11-07T12:13:46Z</time>
      </trkpt>
      <trkpt lat="44.86043" lon="6.49374">
        <ele>1288</ele>
        <time>2020-11-07T12:18:03Z</time>
      </trkpt>
      <trkpt lat="44.85973" lon="6.49301">
        <ele>1276</ele>
        <time>2020-11-07T12:19:59Z</time>
      </trkpt>
      <trkpt lat="44.85921" lon="6.49176">
        <ele>1262</ele>
        <time>2020-11-07T12:22:16Z</time>
      </trkpt>
      <trkpt lat="44.85623" lon="6.49211">
        <ele>1236</ele>
        <time>2020-11-07T12:28:55Z</time>
      </trkpt>
      <trkpt lat="44.85374" lon="6.49297">
        <ele>1222</ele>
        <time>2020-11-07T12:34:37Z</time>
      </trkpt>
      <trkpt lat="44.85246" lon="6.49211">
        <ele>1211</ele>
        <time>2020-11-07T12:37:47Z</time>
      </trkpt>
      <trkpt lat="44.84637" lon="6.4897">
        <ele>1166</ele>
        <time>2020-11-07T12:51:51Z</time>
      </trkpt>
      <trkpt lat="44.84637" lon="6.48812">
        <ele>1169</ele>
        <time>2020-11-07T12:54:20Z</time>
      </trkpt>
      <trkpt lat="44.84403" lon="6.48451">
        <ele>1175</ele>
        <time>2020-11-07T13:02:03Z</time>
      </trkpt>
      <trkpt lat="44.84348" lon="6.48485">
        <ele>1167</ele>
        <time>2020-11-07T13:03:23Z</time>
      </trkpt>
      <trkpt lat="44.84236" lon="6.4846">
        <ele>1164</ele>
        <time>2020-11-07T13:05:54Z</time>
      </trkpt>
      <trkpt lat="44.8409" lon="6.48267">
        <ele>1171</ele>
        <time>2020-11-07T13:10:21Z</time>
      </trkpt>
      <trkpt lat="44.84108" lon="6.48198">
        <ele>1175</ele>
        <time>2020-11-07T13:11:31Z</time>
      </trkpt>
      <trkpt lat="44.84044" lon="6.48108">
        <ele>1181</ele>
        <time>2020-11-07T13:13:32Z</time>
      </trkpt>
      <trkpt lat="44.84029" lon="6.47876">
        <ele>1188</ele>
        <time>2020-11-07T13:17:12Z</time>
      </trkpt>
      <trkpt lat="44.83953" lon="6.4767">
        <ele>1192</ele>
        <time>2020-11-07T13:20:52Z</time>
      </trkpt>
      <trkpt lat="44.83935" lon="6.47524">
        <ele>1197</ele>
        <time>2020-11-07T13:23:12Z</time>
      </trkpt>
      <trkpt lat="44.83901" lon="6.47533">
        <ele>1196</ele>
        <time>2020-11-07T13:23:58Z</time>
      </trkpt>
      <trkpt lat="44.83898" lon="6.47189">
        <ele>1218</ele>
        <time>2020-11-07T13:29:24Z</time>
      </trkpt>
      <trkpt lat="44.83901" lon="6.46996">
        <ele>1210</ele>
        <time>2020-11-07T13:32:26Z</time>
      </trkpt>
      <trkpt lat="44.83858" lon="6.4673">
        <ele>1217</ele>
        <time>2020-11-07T13:36:44Z</time>
      </trkpt>
      <trkpt lat="44.83779" lon="6.46529">
        <ele>1237</ele>
        <time>2020-11-07T13:40:22Z</time>
      </trkpt>
      <trkpt lat="44.83861" lon="6.46331">
        <ele>1240</ele>
        <time>2020-11-07T13:43:59Z</time>
      </trkpt>
      <trkpt lat="44.83904" lon="6.46108">
        <ele>1227</ele>
        <time>2020-11-07T13:47:38Z</time>
      </trkpt>
      <trkpt lat="44.8388" lon="6.46052">
        <ele>1241</ele>
        <time>2020-11-07T13:48:39Z</time>
      </trkpt>
      <trkpt lat="44.83916" lon="6.45778">
        <ele>1236</ele>
        <time>2020-11-07T13:53:03Z</time>
      </trkpt>
      <trkpt lat="44.83889" lon="6.45563">
        <ele>1248</ele>
        <time>2020-11-07T13:56:30Z</time>
      </trkpt>
      <trkpt lat="44.83924" lon="6.45486">
        <ele>1245</ele>
        <time>2020-11-07T13:57:56Z</time>
      </trkpt>
      <trkpt lat="44.83982" lon="6.45552">
        <ele>1252</ele>
        <time>2020-11-07T13:59:36Z</time>
      </trkpt>
      <trkpt lat="44.84026" lon="6.45421">
        <ele>1265</ele>
        <time>2020-11-07T14:01:53Z</time>
      </trkpt>
      <trkpt lat="44.83989" lon="6.45271">
        <ele>1263</ele>
        <time>2020-11-07T14:04:23Z</time>
      </trkpt>
      <trkpt lat="44.83989" lon="6.45091">
        <ele>1275</ele>
        <time>2020-11-07T14:07:14Z</time>
      </trkpt>
      <trkpt lat="44.83877" lon="6.44838">
        <ele>1275</ele>
        <time>2020-11-07T14:11:56Z</time>
      </trkpt>
      <trkpt lat="44.83877" lon="6.44516">
        <ele>1299</ele>
        <time>2020-11-07T14:17:00Z</time>
      </trkpt>
      <trkpt lat="44.83804" lon="6.44357">
        <ele>1308</ele>
        <time>2020-11-07T14:20:00Z</time>
      </trkpt>
      <trkpt lat="44.83758" lon="6.44125">
        <ele>1334</ele>
        <time>2020-11-07T14:23:48Z</time>
      </trkpt>
      <trkpt lat="44.83612" lon="6.43885">
        <ele>1352</ele>
        <time>2020-11-07T14:28:47Z</time>
      </trkpt>
      <trkpt lat="44.83618" lon="6.43726">
        <ele>1368</ele>
        <time>2020-11-07T14:31:18Z</time>
      </trkpt>
      <trkpt lat="44.83597" lon="6.43627">
        <ele>1377</ele>
        <time>2020-11-07T14:32:55Z</time>
      </trkpt>
      <trkpt lat="44.83597" lon="6.43499">
        <ele>1407</ele>
        <time>2020-11-07T14:34:56Z</time>
      </trkpt>
      <trkpt lat="44.83563" lon="6.43434">
        <ele>1404</ele>
        <time>2020-11-07T14:36:13Z</time>
      </trkpt>
      <trkpt lat="44.83548" lon="6.4337">
        <ele>1410</ele>
        <time>2020-11-07T14:37:17Z</time>
      </trkpt>
      <trkpt lat="44.83597" lon="6.43349">
        <ele>1437</ele>
        <time>2020-11-07T14:38:25Z</time>
      </trkpt>
      <trkpt lat="44.83553" lon="6.43273">
        <ele>1431</ele>
        <time>2020-11-07T14:39:58Z</time>
      </trkpt>
      <trkpt lat="44.836" lon="6.43263">
        <ele>1451</ele>
        <time>2020-11-07T14:41:01Z</time>
      </trkpt>
      <trkpt lat="44.83578" lon="6.43162">
        <ele>1450</ele>
        <time>2020-11-07T14:42:41Z</time>
      </trkpt>
      <trkpt lat="44.83603" lon="6.43048">
        <ele>1468</ele>
        <time>2020-11-07T14:44:34Z</time>
      </trkpt>
      <trkpt lat="44.83565" lon="6.42969">
        <ele>1469</ele>
        <time>2020-11-07T14:46:05Z</time>
      </trkpt>
      <trkpt lat="44.83531" lon="6.42939">
        <ele>1466</ele>
        <time>2020-11-07T14:46:58Z</time>
      </trkpt>
      <trkpt lat="44.83501" lon="6.42827">
        <ele>1473</ele>
        <time>2020-11-07T14:48:51Z</time>
      </trkpt>
      <trkpt lat="44.83533" lon="6.42683">
        <ele>1490</ele>
        <time>2020-11-07T14:51:14Z</time>
      </trkpt>
      <trkpt lat="44.83513" lon="6.42565">
        <ele>1496</ele>
        <time>2020-11-07T14:53:09Z</time>
      </trkpt>
      <trkpt lat="44.83451" lon="6.42497">
        <ele>1493</ele>
        <time>2020-11-07T14:54:54Z</time>
      </trkpt>
      <trkpt lat="44.83403" lon="6.42361">
        <ele>1504</ele>
        <time>2020-11-07T14:57:18Z</time>
      </trkpt>
      <trkpt lat="44.83382" lon="6.42265">
        <ele>1508</ele>
        <time>2020-11-07T14:58:53Z</time>
      </trkpt>
      <trkpt lat="44.8337" lon="6.42153">
        <ele>1520</ele>
        <time>2020-11-07T15:00:40Z</time>
      </trkpt>
      <trkpt lat="44.83315" lon="6.42048">
        <ele>1523</ele>
        <time>2020-11-07T15:02:43Z</time>
      </trkpt>
      <trkpt lat="44.83323" lon="6.41937">
        <ele>1542</ele>
        <time>2020-11-07T15:04:29Z</time>
      </trkpt>
      <trkpt lat="44.83305" lon="6.41868">
        <ele>1545</ele>
        <time>2020-11-07T15:05:39Z</time>
      </trkpt>
      <trkpt lat="44.83259" lon="6.41816">
        <ele>1534</ele>
        <time>2020-11-07T15:06:57Z</time>
      </trkpt>
      <trkpt lat="44.83273" lon="6.41589">
        <ele>1570</ele>
        <time>2020-11-07T15:10:33Z</time>
      </trkpt>
      <trkpt lat="44.83253" lon="6.41398">
        <ele>1574</ele>
        <time>2020-11-07T15:13:36Z</time>
      </trkpt>
      <trkpt lat="44.8327" lon="6.41276">
        <ele>1587</ele>
        <time>2020-11-07T15:15:33Z</time>
      </trkpt>
      <trkpt lat="44.83256" lon="6.4116">
        <ele>1593</ele>
        <time>2020-11-07T15:17:25Z</time>
      </trkpt>
      <trkpt lat="44.83228" lon="6.41048">
        <ele>1603</ele>
        <time>2020-11-07T15:19:17Z</time>
      </trkpt>
      <trkpt lat="44.83221" lon="6.40926">
        <ele>1609</ele>
        <time>2020-11-07T15:21:13Z</time>
      </trkpt>
      <trkpt lat="44.83088" lon="6.40634">
        <ele>1611</ele>
        <time>2020-11-07T15:26:41Z</time>
      </trkpt>
      <trkpt lat="44.83067" lon="6.40572">
        <ele>1612</ele>
        <time>2020-11-07T15:27:46Z</time>
      </trkpt>
      <trkpt lat="44.83063" lon="6.40428">
        <ele>1618</ele>
        <time>2020-11-07T15:30:03Z</time>
      </trkpt>
      <trkpt lat="44.83063" lon="6.40327">
        <ele>1616</ele>
        <time>2020-11-07T15:31:38Z</time>
      </trkpt>
      <trkpt lat="44.83105" lon="6.40177">
        <ele>1619</ele>
        <time>2020-11-07T15:34:11Z</time>
      </trkpt>
      <trkpt lat="44.83034" lon="6.40108">
        <ele>1608</ele>
        <time>2020-11-07T15:36:06Z</time>
      </trkpt>
      <trkpt lat="44.82888" lon="6.39662">
        <ele>1629</ele>
        <time>2020-11-07T15:43:51Z</time>
      </trkpt>
      <trkpt lat="44.82681" lon="6.39632">
        <ele>1659</ele>
        <time>2020-11-07T15:48:28Z</time>
      </trkpt>
      <trkpt lat="44.82638" lon="6.39619">
        <ele>1669</ele>
        <time>2020-11-07T15:49:27Z</time>
      </trkpt>
      <trkpt lat="44.82565" lon="6.39623">
        <ele>1683</ele>
        <time>2020-11-07T15:51:05Z</time>
      </trkpt>
      <trkpt lat="44.82419" lon="6.39572">
        <ele>1717</ele>
        <time>2020-11-07T15:54:25Z</time>
      </trkpt>
      <trkpt lat="44.82264" lon="6.39632">
        <ele>1733</ele>
        <time>2020-11-07T15:58:00Z</time>
      </trkpt>
      <trkpt lat="44.82139" lon="6.39589">
        <ele>1747</ele>
        <time>2020-11-07T16:00:52Z</time>
      </trkpt>
      <trkpt lat="44.82029" lon="6.39587">
        <ele>1765</ele>
        <time>2020-11-07T16:03:18Z</time>
      </trkpt>
      <trkpt lat="44.82049" lon="6.39546">
        <ele>1774</ele>
        <time>2020-11-07T16:04:05Z</time>
      </trkpt>
      <trkpt lat="44.81987" lon="6.39574">
        <ele>1773</ele>
        <time>2020-11-07T16:05:32Z</time>
      </trkpt>
      <trkpt lat="44.81839" lon="6.39488">
        <ele>1786</ele>
        <time>2020-11-07T16:09:06Z</time>
      </trkpt>
      <trkpt lat="44.81696" lon="6.39383">
        <ele>1800</ele>
        <time>2020-11-07T16:12:41Z</time>
      </trkpt>
      <trkpt lat="44.81679" lon="6.39312">
        <ele>1810</ele>
        <time>2020-11-07T16:13:52Z</time>
      </trkpt>
      <trkpt lat="44.81609" lon="6.3922">
        <ele>1815</ele>
        <time>2020-11-07T16:16:00Z</time>
      </trkpt>
      <trkpt lat="44.81551" lon="6.39205">
        <ele>1812</ele>
        <time>2020-11-07T16:17:18Z</time>
      </trkpt>
      <trkpt lat="44.81356" lon="6.38913">
        <ele>1831</ele>
        <time>2020-11-07T16:23:38Z</time>
      </trkpt>
      <trkpt lat="44.81344" lon="6.38847">
        <ele>1835</ele>
        <time>2020-11-07T16:24:43Z</time>
      </trkpt>
      <trkpt lat="44.81262" lon="6.38669">
        <ele>1839</ele>
        <time>2020-11-07T16:28:04Z</time>
      </trkpt>
      <trkpt lat="44.81162" lon="6.38514">
        <ele>1840</ele>
        <time>2020-11-07T16:31:22Z</time>
      </trkpt>
      <trkpt lat="44.81107" lon="6.38471">
        <ele>1839</ele>
        <time>2020-11-07T16:32:46Z</time>
      </trkpt>
      <trkpt lat="44.81105" lon="6.38351">
        <ele>1846</ele>
        <time>2020-11-07T16:34:39Z</time>
      </trkpt>
      <trkpt lat="44.81026" lon="6.38227">
        <ele>1855</ele>
        <time>2020-11-07T16:37:17Z</time>
      </trkpt>
      <trkpt lat="44.80965" lon="6.38177">
        <ele>1856</ele>
        <time>2020-11-07T16:38:51Z</time>
      </trkpt>
      <trkpt lat="44.80917" lon="6.38038">
        <ele>1868</ele>
        <time>2020-11-07T16:41:18Z</time>
      </trkpt>
      <trkpt lat="44.80868" lon="6.38016">
        <ele>1871</ele>
        <time>2020-11-07T16:42:26Z</time>
      </trkpt>
      <trkpt lat="44.80795" lon="6.37881">
        <ele>1895</ele>
        <time>2020-11-07T16:45:07Z</time>
      </trkpt>
      <trkpt lat="44.80804" lon="6.37853">
        <ele>1902</ele>
        <time>2020-11-07T16:45:36Z</time>
      </trkpt>
      <trkpt lat="44.80781" lon="6.37827">
        <ele>1906</ele>
        <time>2020-11-07T16:46:16Z</time>
      </trkpt>
      <trkpt lat="44.80766" lon="6.37742">
        <ele>1923</ele>
        <time>2020-11-07T16:47:38Z</time>
      </trkpt>
      <trkpt lat="44.80659" lon="6.37641">
        <ele>1936</ele>
        <time>2020-11-07T16:50:30Z</time>
      </trkpt>
      <trkpt lat="44.80591" lon="6.37536">
        <ele>1942</ele>
        <time>2020-11-07T16:52:45Z</time>
      </trkpt>
      <trkpt lat="44.80551" lon="6.37446">
        <ele>1945</ele>
        <time>2020-11-07T16:54:25Z</time>
      </trkpt>
      <trkpt lat="44.80504" lon="6.37428">
        <ele>1944</ele>
        <time>2020-11-07T16:55:30Z</time>
      </trkpt>
      <trkpt lat="44.80495" lon="6.37343">
        <ele>1951</ele>
        <time>2020-11-07T16:56:52Z</time>
      </trkpt>
      <trkpt lat="44.80376" lon="6.37225">
        <ele>1965</ele>
        <time>2020-11-07T17:00:06Z</time>
      </trkpt>
      <trkpt lat="44.80343" lon="6.37184">
        <ele>1968</ele>
        <time>2020-11-07T17:01:05Z</time>
      </trkpt>
      <trkpt lat="44.80329" lon="6.37115">
        <ele>1973</ele>
        <time>2020-11-07T17:02:13Z</time>
      </trkpt>
      <trkpt lat="44.80239" lon="6.36995">
        <ele>1979</ele>
        <time>2020-11-07T17:04:58Z</time>
      </trkpt>
      <trkpt lat="44.80269" lon="6.36864">
        <ele>1998</ele>
        <time>2020-11-07T17:07:08Z</time>
      </trkpt>
      <trkpt lat="44.80107" lon="6.36585">
        <ele>2019</ele>
        <time>2020-11-07T17:12:50Z</time>
      </trkpt>
      <trkpt lat="44.801" lon="6.36559">
        <ele>2023</ele>
        <time>2020-11-07T17:13:16Z</time>
      </trkpt>
      <trkpt lat="44.80075" lon="6.36561">
        <ele>2021</ele>
        <time>2020-11-07T17:13:49Z</time>
      </trkpt>
      <trkpt lat="44.80061" lon="6.36596">
        <ele>2018</ele>
        <time>2020-11-07T17:14:27Z</time>
      </trkpt>
      <trkpt lat="44.80065" lon="6.36634">
        <ele>2013</ele>
        <time>2020-11-07T17:15:04Z</time>
      </trkpt>
      <trkpt lat="44.80018" lon="6.36645">
        <ele>2018</ele>
        <time>2020-11-07T17:16:07Z</time>
      </trkpt>
      <trkpt lat="44.79992" lon="6.36613">
        <ele>2027</ele>
        <time>2020-11-07T17:16:54Z</time>
      </trkpt>
      <trkpt lat="44.79939" lon="6.36671">
        <ele>2039</ele>
        <time>2020-11-07T17:18:23Z</time>
      </trkpt>
      <trkpt lat="44.79927" lon="6.36639">
        <ele>2044</ele>
        <time>2020-11-07T17:18:57Z</time>
      </trkpt>
      <trkpt lat="44.79901" lon="6.36692">
        <ele>2053</ele>
        <time>2020-11-07T17:19:58Z</time>
      </trkpt>
      <trkpt lat="44.7988" lon="6.36639">
        <ele>2063</ele>
        <time>2020-11-07T17:20:56Z</time>
      </trkpt>
      <trkpt lat="44.79874" lon="6.36694">
        <ele>2064</ele>
        <time>2020-11-07T17:21:49Z</time>
      </trkpt>
      <trkpt lat="44.79842" lon="6.36675">
        <ele>2078</ele>
        <time>2020-11-07T17:22:35Z</time>
      </trkpt>
      <trkpt lat="44.79837" lon="6.36735">
        <ele>2076</ele>
        <time>2020-11-07T17:23:32Z</time>
      </trkpt>
      <trkpt lat="44.79788" lon="6.36622">
        <ele>2093</ele>
        <time>2020-11-07T17:25:37Z</time>
      </trkpt>
      <trkpt lat="44.79717" lon="6.36617">
        <ele>2102</ele>
        <time>2020-11-07T17:27:12Z</time>
      </trkpt>
      <trkpt lat="44.79686" lon="6.36609">
        <ele>2103</ele>
        <time>2020-11-07T17:27:54Z</time>
      </trkpt>
      <trkpt lat="44.79632" lon="6.36542">
        <ele>2114</ele>
        <time>2020-11-07T17:29:30Z</time>
      </trkpt>
      <trkpt lat="44.79484" lon="6.36497">
        <ele>2117</ele>
        <time>2020-11-07T17:32:52Z</time>
      </trkpt>
      <trkpt lat="44.79283" lon="6.36497">
        <ele>2132</ele>
        <time>2020-11-07T17:37:21Z</time>
      </trkpt>
      <trkpt lat="44.79228" lon="6.36538">
        <ele>2138</ele>
        <time>2020-11-07T17:38:44Z</time>
      </trkpt>
      <trkpt lat="44.79115" lon="6.36501">
        <ele>2151</ele>
        <time>2020-11-07T17:41:19Z</time>
      </trkpt>
      <trkpt lat="44.78975" lon="6.36422">
        <ele>2185</ele>
        <time>2020-11-07T17:44:40Z</time>
      </trkpt>
      <trkpt lat="44.78861" lon="6.36287">
        <ele>2230</ele>
        <time>2020-11-07T17:47:58Z</time>
      </trkpt>
      <trkpt lat="44.78843" lon="6.36306">
        <ele>2237</ele>
        <time>2020-11-07T17:48:28Z</time>
      </trkpt>
      <trkpt lat="44.78834" lon="6.36199">
        <ele>2249</ele>
        <time>2020-11-07T17:50:11Z</time>
      </trkpt>
      <trkpt lat="44.78777" lon="6.36246">
        <ele>2261</ele>
        <time>2020-11-07T17:51:39Z</time>
      </trkpt>
      <trkpt lat="44.7873" lon="6.3621">
        <ele>2281</ele>
        <time>2020-11-07T17:52:50Z</time>
      </trkpt>
      <trkpt lat="44.78697" lon="6.36325">
        <ele>2286</ele>
        <time>2020-11-07T17:54:48Z</time>
      </trkpt>
      <trkpt lat="44.78718" lon="6.36383">
        <ele>2279</ele>
        <time>2020-11-07T17:55:49Z</time>
      </trkpt>
      <trkpt lat="44.78628" lon="6.36407">
        <ele>2291</ele>
        <time>2020-11-07T17:57:51Z</time>
      </trkpt>
      <trkpt lat="44.78636" lon="6.36368">
        <ele>2294</ele>
        <time>2020-11-07T17:58:30Z</time>
      </trkpt>
      <trkpt lat="44.78593" lon="6.36381">
        <ele>2301</ele>
        <time>2020-11-07T17:59:29Z</time>
      </trkpt>
      <trkpt lat="44.78549" lon="6.3637">
        <ele>2311</ele>
        <time>2020-11-07T18:00:28Z</time>
      </trkpt>
      <trkpt lat="44.78561" lon="6.36328">
        <ele>2317</ele>
        <time>2020-11-07T18:01:11Z</time>
      </trkpt>
      <trkpt lat="44.78526" lon="6.36328">
        <ele>2325</ele>
        <time>2020-11-07T18:01:58Z</time>
      </trkpt>
      <trkpt lat="44.78537" lon="6.3628">
        <ele>2338</ele>
        <time>2020-11-07T18:02:46Z</time>
      </trkpt>
      <trkpt lat="44.78486" lon="6.36308">
        <ele>2344</ele>
        <time>2020-11-07T18:03:59Z</time>
      </trkpt>
      <trkpt lat="44.785" lon="6.36276">
        <ele>2349</ele>
        <time>2020-11-07T18:04:34Z</time>
      </trkpt>
      <trkpt lat="44.7845" lon="6.36274">
        <ele>2366</ele>
        <time>2020-11-07T18:05:41Z</time>
      </trkpt>
      <trkpt lat="44.78512" lon="6.36212">
        <ele>2369</ele>
        <time>2020-11-07T18:07:22Z</time>
      </trkpt>
      <trkpt lat="44.78477" lon="6.36188">
        <ele>2386</ele>
        <time>2020-11-07T18:08:14Z</time>
      </trkpt>
      <trkpt lat="44.78511" lon="6.36152">
        <ele>2389</ele>
        <time>2020-11-07T18:09:11Z</time>
      </trkpt>
      <trkpt lat="44.78473" lon="6.36128">
        <ele>2404</ele>
        <time>2020-11-07T18:10:07Z</time>
      </trkpt>
      <trkpt lat="44.78531" lon="6.36126">
        <ele>2390</ele>
        <time>2020-11-07T18:11:24Z</time>
      </trkpt>
      <trkpt lat="44.78511" lon="6.36092">
        <ele>2404</ele>
        <time>2020-11-07T18:12:06Z</time>
      </trkpt>
      <trkpt lat="44.78541" lon="6.36053">
        <ele>2395</ele>
        <time>2020-11-07T18:13:00Z</time>
      </trkpt>
      <trkpt lat="44.7847" lon="6.36066">
        <ele>2421</ele>
        <time>2020-11-07T18:14:36Z</time>
      </trkpt>
      <trkpt lat="44.78444" lon="6.36034">
        <ele>2436</ele>
        <time>2020-11-07T18:15:22Z</time>
      </trkpt>
      <trkpt lat="44.78485" lon="6.3601">
        <ele>2427</ele>
        <time>2020-11-07T18:16:21Z</time>
      </trkpt>
      <trkpt lat="44.78439" lon="6.35982">
        <ele>2454</ele>
        <time>2020-11-07T18:17:28Z</time>
      </trkpt>
      <trkpt lat="44.7841" lon="6.36014">
        <ele>2453</ele>
        <time>2020-11-07T18:18:17Z</time>
      </trkpt>
      <trkpt lat="44.78358" lon="6.36027">
        <ele>2458</ele>
        <time>2020-11-07T18:19:28Z</time>
      </trkpt>
      <trkpt lat="44.7829" lon="6.35939">
        <ele>2483</ele>
        <time>2020-11-07T18:21:31Z</time>
      </trkpt>
      <trkpt lat="44.78262" lon="6.35843">
        <ele>2491</ele>
        <time>2020-11-07T18:23:09Z</time>
      </trkpt>
      <trkpt lat="44.78238" lon="6.35817">
        <ele>2496</ele>
        <time>2020-11-07T18:23:50Z</time>
      </trkpt>
      <trkpt lat="44.78205" lon="6.36042">
        <ele>2496</ele>
        <time>2020-11-07T18:27:27Z</time>
      </trkpt>
      <trkpt lat="44.78224" lon="6.36102">
        <ele>2490</ele>
        <time>2020-11-07T18:28:30Z</time>
      </trkpt>
      <trkpt lat="44.78194" lon="6.36111">
        <ele>2495</ele>
        <time>2020-11-07T18:29:10Z</time>
      </trkpt>
      <trkpt lat="44.78063" lon="6.35986">
        <ele>2544</ele>
        <time>2020-11-07T18:32:42Z</time>
      </trkpt>
      <trkpt lat="44.77786" lon="6.35905">
        <ele>2608</ele>
        <time>2020-11-07T18:38:59Z</time>
      </trkpt>
      <trkpt lat="44.77589" lon="6.36025">
        <ele>2645</ele>
        <time>2020-11-07T18:43:46Z</time>
      </trkpt>
      <trkpt lat="44.77582" lon="6.35984">
        <ele>2663</ele>
        <time>2020-11-07T18:44:26Z</time>
      </trkpt>
      <trkpt lat="44.7747" lon="6.36119">
        <ele>2700</ele>
        <time>2020-11-07T18:47:42Z</time>
      </trkpt>
      <trkpt lat="44.77455" lon="6.35999">
        <ele>2728</ele>
        <time>2020-11-07T18:49:38Z</time>
      </trkpt>
      <trkpt lat="44.77419" lon="6.36036">
        <ele>2738</ele>
        <time>2020-11-07T18:50:37Z</time>
      </trkpt>
      <trkpt lat="44.77379" lon="6.35875">
        <ele>2753</ele>
        <time>2020-11-07T18:53:19Z</time>
      </trkpt>
      <trkpt lat="44.77279" lon="6.3575">
        <ele>2736</ele>
        <time>2020-11-07T18:56:17Z</time>
      </trkpt>
      <trkpt lat="44.77088" lon="6.3563">
        <ele>2715</ele>
        <time>2020-11-07T19:00:56Z</time>
      </trkpt>
      <trkpt lat="44.76861" lon="6.35431">
        <ele>2727</ele>
        <time>2020-11-07T19:06:53Z</time>
      </trkpt>
      <trkpt lat="44.7684" lon="6.35383">
        <ele>2726</ele>
        <time>2020-11-07T19:07:46Z</time>
      </trkpt>
      <trkpt lat="44.76847" lon="6.35289">
        <ele>2728</ele>
        <time>2020-11-07T19:09:16Z</time>
      </trkpt>
      <trkpt lat="44.76812" lon="6.35338">
        <ele>2717</ele>
        <time>2020-11-07T19:10:22Z</time>
      </trkpt>
      <trkpt lat="44.76788" lon="6.3522">
        <ele>2691</ele>
        <time>2020-11-07T19:12:18Z</time>
      </trkpt>
      <trkpt lat="44.76754" lon="6.35257">
        <ele>2678</ele>
        <time>2020-11-07T19:13:15Z</time>
      </trkpt>
      <trkpt lat="44.76736" lon="6.35205">
        <ele>2666</ele>
        <time>2020-11-07T19:14:10Z</time>
      </trkpt>
      <trkpt lat="44.76691" lon="6.35192">
        <ele>2648</ele>
        <time>2020-11-07T19:15:12Z</time>
      </trkpt>
      <trkpt lat="44.76657" lon="6.35167">
        <ele>2632</ele>
        <time>2020-11-07T19:16:03Z</time>
      </trkpt>
      <trkpt lat="44.76599" lon="6.35162">
        <ele>2612</ele>
        <time>2020-11-07T19:17:20Z</time>
      </trkpt>
      <trkpt lat="44.76532" lon="6.3512">
        <ele>2580</ele>
        <time>2020-11-07T19:18:58Z</time>
      </trkpt>
      <trkpt lat="44.76492" lon="6.35126">
        <ele>2574</ele>
        <time>2020-11-07T19:19:52Z</time>
      </trkpt>
      <trkpt lat="44.76543" lon="6.35068">
        <ele>2560</ele>
        <time>2020-11-07T19:21:19Z</time>
      </trkpt>
      <trkpt lat="44.76451" lon="6.35062">
        <ele>2537</ele>
        <time>2020-11-07T19:23:22Z</time>
      </trkpt>
      <trkpt lat="44.76483" lon="6.35006">
        <ele>2511</ele>
        <time>2020-11-07T19:24:30Z</time>
      </trkpt>
      <trkpt lat="44.76447" lon="6.34963">
        <ele>2473</ele>
        <time>2020-11-07T19:25:33Z</time>
      </trkpt>
      <trkpt lat="44.76508" lon="6.34935">
        <ele>2472</ele>
        <time>2020-11-07T19:26:59Z</time>
      </trkpt>
      <trkpt lat="44.76479" lon="6.34926">
        <ele>2457</ele>
        <time>2020-11-07T19:27:39Z</time>
      </trkpt>
      <trkpt lat="44.76505" lon="6.3489">
        <ele>2449</ele>
        <time>2020-11-07T19:28:27Z</time>
      </trkpt>
      <trkpt lat="44.7646" lon="6.34901">
        <ele>2437</ele>
        <time>2020-11-07T19:29:28Z</time>
      </trkpt>
      <trkpt lat="44.76486" lon="6.3487">
        <ele>2434</ele>
        <time>2020-11-07T19:30:14Z</time>
      </trkpt>
      <trkpt lat="44.7646" lon="6.3487">
        <ele>2424</ele>
        <time>2020-11-07T19:30:48Z</time>
      </trkpt>
      <trkpt lat="44.76485" lon="6.34835">
        <ele>2419</ele>
        <time>2020-11-07T19:31:35Z</time>
      </trkpt>
      <trkpt lat="44.76436" lon="6.34834">
        <ele>2398</ele>
        <time>2020-11-07T19:32:41Z</time>
      </trkpt>
      <trkpt lat="44.76463" lon="6.34791">
        <ele>2394</ele>
        <time>2020-11-07T19:33:35Z</time>
      </trkpt>
      <trkpt lat="44.76431" lon="6.34803">
        <ele>2385</ele>
        <time>2020-11-07T19:34:19Z</time>
      </trkpt>
      <trkpt lat="44.76438" lon="6.34779">
        <ele>2379</ele>
        <time>2020-11-07T19:34:44Z</time>
      </trkpt>
      <trkpt lat="44.76419" lon="6.34789">
        <ele>2375</ele>
        <time>2020-11-07T19:35:11Z</time>
      </trkpt>
      <trkpt lat="44.76428" lon="6.34771">
        <ele>2372</ele>
        <time>2020-11-07T19:35:32Z</time>
      </trkpt>
      <trkpt lat="44.76414" lon="6.34775">
        <ele>2368</ele>
        <time>2020-11-07T19:35:51Z</time>
      </trkpt>
      <trkpt lat="44.76365" lon="6.34704">
        <ele>2321</ele>
        <time>2020-11-07T19:37:25Z</time>
      </trkpt>
      <trkpt lat="44.76364" lon="6.34671">
        <ele>2308</ele>
        <time>2020-11-07T19:37:56Z</time>
      </trkpt>
      <trkpt lat="44.76336" lon="6.34699">
        <ele>2306</ele>
        <time>2020-11-07T19:38:42Z</time>
      </trkpt>
      <trkpt lat="44.76316" lon="6.34689">
        <ele>2294</ele>
        <time>2020-11-07T19:39:10Z</time>
      </trkpt>
      <trkpt lat="44.76284" lon="6.34728">
        <ele>2296</ele>
        <time>2020-11-07T19:40:07Z</time>
      </trkpt>
      <trkpt lat="44.76255" lon="6.3471">
        <ele>2277</ele>
        <time>2020-11-07T19:40:49Z</time>
      </trkpt>
      <trkpt lat="44.7623" lon="6.3471">
        <ele>2272</ele>
        <time>2020-11-07T19:41:22Z</time>
      </trkpt>
      <trkpt lat="44.76212" lon="6.34677">
        <ele>2255</ele>
        <time>2020-11-07T19:42:02Z</time>
      </trkpt>
      <trkpt lat="44.7616" lon="6.3467">
        <ele>2247</ele>
        <time>2020-11-07T19:43:11Z</time>
      </trkpt>
      <trkpt lat="44.76157" lon="6.34639">
        <ele>2236</ele>
        <time>2020-11-07T19:43:41Z</time>
      </trkpt>
      <trkpt lat="44.7614" lon="6.34626">
        <ele>2234</ele>
        <time>2020-11-07T19:44:07Z</time>
      </trkpt>
      <trkpt lat="44.76168" lon="6.34611">
        <ele>2225</ele>
        <time>2020-11-07T19:44:47Z</time>
      </trkpt>
      <trkpt lat="44.76135" lon="6.34585">
        <ele>2219</ele>
        <time>2020-11-07T19:45:37Z</time>
      </trkpt>
      <trkpt lat="44.76188" lon="6.34561">
        <ele>2209</ele>
        <time>2020-11-07T19:46:52Z</time>
      </trkpt>
      <trkpt lat="44.76132" lon="6.34524">
        <ele>2197</ele>
        <time>2020-11-07T19:48:14Z</time>
      </trkpt>
      <trkpt lat="44.76211" lon="6.34478">
        <ele>2178</ele>
        <time>2020-11-07T19:50:08Z</time>
      </trkpt>
      <trkpt lat="44.76187" lon="6.34423">
        <ele>2161</ele>
        <time>2020-11-07T19:51:09Z</time>
      </trkpt>
      <trkpt lat="44.76144" lon="6.34399">
        <ele>2155</ele>
        <time>2020-11-07T19:52:11Z</time>
      </trkpt>
      <trkpt lat="44.76165" lon="6.34385">
        <ele>2151</ele>
        <time>2020-11-07T19:52:42Z</time>
      </trkpt>
      <trkpt lat="44.76099" lon="6.34321">
        <ele>2129</ele>
        <time>2020-11-07T19:54:29Z</time>
      </trkpt>
      <trkpt lat="44.76109" lon="6.343">
        <ele>2124</ele>
        <time>2020-11-07T19:54:53Z</time>
      </trkpt>
      <trkpt lat="44.76049" lon="6.34303">
        <ele>2121</ele>
        <time>2020-11-07T19:56:13Z</time>
      </trkpt>
      <trkpt lat="44.76009" lon="6.34278">
        <ele>2113</ele>
        <time>2020-11-07T19:57:12Z</time>
      </trkpt>
      <trkpt lat="44.76192" lon="6.3407">
        <ele>2072</ele>
        <time>2020-11-07T20:02:25Z</time>
      </trkpt>
      <trkpt lat="44.76226" lon="6.34036">
        <ele>2062</ele>
        <time>2020-11-07T20:03:21Z</time>
      </trkpt>
      <trkpt lat="44.76334" lon="6.34027">
        <ele>2046</ele>
        <time>2020-11-07T20:05:45Z</time>
      </trkpt>
      <trkpt lat="44.76296" lon="6.34004">
        <ele>2046</ele>
        <time>2020-11-07T20:06:41Z</time>
      </trkpt>
      <trkpt lat="44.76329" lon="6.33972">
        <ele>2034</ele>
        <time>2020-11-07T20:07:34Z</time>
      </trkpt>
      <trkpt lat="44.763" lon="6.33965">
        <ele>2035</ele>
        <time>2020-11-07T20:08:13Z</time>
      </trkpt>
      <trkpt lat="44.76335" lon="6.33955">
        <ele>2029</ele>
        <time>2020-11-07T20:09:01Z</time>
      </trkpt>
      <trkpt lat="44.76318" lon="6.33914">
        <ele>2020</ele>
        <time>2020-11-07T20:09:46Z</time>
      </trkpt>
      <trkpt lat="44.76339" lon="6.339">
        <ele>2016</ele>
        <time>2020-11-07T20:10:17Z</time>
      </trkpt>
      <trkpt lat="44.76323" lon="6.3388">
        <ele>2012</ele>
        <time>2020-11-07T20:10:45Z</time>
      </trkpt>
      <trkpt lat="44.7635" lon="6.33825">
        <ele>1996</ele>
        <time>2020-11-07T20:11:49Z</time>
      </trkpt>
      <trkpt lat="44.76348" lon="6.33769">
        <ele>1981</ele>
        <time>2020-11-07T20:12:42Z</time>
      </trkpt>
      <trkpt lat="44.76357" lon="6.33723">
        <ele>1971</ele>
        <time>2020-11-07T20:13:27Z</time>
      </trkpt>
      <trkpt lat="44.7632" lon="6.33716">
        <ele>1977</ele>
        <time>2020-11-07T20:14:17Z</time>
      </trkpt>
      <trkpt lat="44.76393" lon="6.33605">
        <ele>1954</ele>
        <time>2020-11-07T20:16:40Z</time>
      </trkpt>
      <trkpt lat="44.76433" lon="6.33442">
        <ele>1928</ele>
        <time>2020-11-07T20:19:24Z</time>
      </trkpt>
      <trkpt lat="44.76456" lon="6.33438">
        <ele>1917</ele>
        <time>2020-11-07T20:19:55Z</time>
      </trkpt>
      <trkpt lat="44.76448" lon="6.33337">
        <ele>1903</ele>
        <time>2020-11-07T20:21:31Z</time>
      </trkpt>
      <trkpt lat="44.76472" lon="6.33372">
        <ele>1897</ele>
        <time>2020-11-07T20:22:17Z</time>
      </trkpt>
      <trkpt lat="44.76473" lon="6.33328">
        <ele>1886</ele>
        <time>2020-11-07T20:22:59Z</time>
      </trkpt>
      <trkpt lat="44.76502" lon="6.33336">
        <ele>1872</ele>
        <time>2020-11-07T20:23:38Z</time>
      </trkpt>
      <trkpt lat="44.76489" lon="6.33283">
        <ele>1864</ele>
        <time>2020-11-07T20:24:31Z</time>
      </trkpt>
      <trkpt lat="44.76454" lon="6.33172">
        <ele>1847</ele>
        <time>2020-11-07T20:26:26Z</time>
      </trkpt>
      <trkpt lat="44.7645" lon="6.3307">
        <ele>1826</ele>
        <time>2020-11-07T20:28:03Z</time>
      </trkpt>
      <trkpt lat="44.76456" lon="6.32884">
        <ele>1807</ele>
        <time>2020-11-07T20:31:00Z</time>
      </trkpt>
      <trkpt lat="44.76544" lon="6.32834">
        <ele>1808</ele>
        <time>2020-11-07T20:33:06Z</time>
      </trkpt>
      <trkpt lat="44.76556" lon="6.32731">
        <ele>1806</ele>
        <time>2020-11-07T20:34:45Z</time>
      </trkpt>
      <trkpt lat="44.76846" lon="6.32954">
        <ele>1860</ele>
        <time>2020-11-07T20:42:06Z</time>
      </trkpt>
      <trkpt lat="44.77151" lon="6.32946">
        <ele>1912</ele>
        <time>2020-11-07T20:48:53Z</time>
      </trkpt>
      <trkpt lat="44.77355" lon="6.32778">
        <ele>1968</ele>
        <time>2020-11-07T20:54:08Z</time>
      </trkpt>
      <trkpt lat="44.77469" lon="6.32731">
        <ele>1995</ele>
        <time>2020-11-07T20:56:47Z</time>
      </trkpt>
      <trkpt lat="44.77557" lon="6.32809">
        <ele>2006</ele>
        <time>2020-11-07T20:59:06Z</time>
      </trkpt>
      <trkpt lat="44.77591" lon="6.32727">
        <ele>2023</ele>
        <time>2020-11-07T21:00:36Z</time>
      </trkpt>
      <trkpt lat="44.77641" lon="6.32744">
        <ele>2034</ele>
        <time>2020-11-07T21:01:44Z</time>
      </trkpt>
      <trkpt lat="44.77649" lon="6.32695">
        <ele>2044</ele>
        <time>2020-11-07T21:02:32Z</time>
      </trkpt>
      <trkpt lat="44.77654" lon="6.32725">
        <ele>2041</ele>
        <time>2020-11-07T21:03:01Z</time>
      </trkpt>
      <trkpt lat="44.77663" lon="6.32685">
        <ele>2049</ele>
        <time>2020-11-07T21:03:41Z</time>
      </trkpt>
      <trkpt lat="44.77694" lon="6.32704">
        <ele>2055</ele>
        <time>2020-11-07T21:04:26Z</time>
      </trkpt>
      <trkpt lat="44.77715" lon="6.3261">
        <ele>2076</ele>
        <time>2020-11-07T21:05:59Z</time>
      </trkpt>
      <trkpt lat="44.7768" lon="6.32574">
        <ele>2078</ele>
        <time>2020-11-07T21:06:57Z</time>
      </trkpt>
      <trkpt lat="44.7771" lon="6.3257">
        <ele>2085</ele>
        <time>2020-11-07T21:07:37Z</time>
      </trkpt>
      <trkpt lat="44.7768" lon="6.32519">
        <ele>2102</ele>
        <time>2020-11-07T21:08:40Z</time>
      </trkpt>
      <trkpt lat="44.77624" lon="6.32528">
        <ele>2100</ele>
        <time>2020-11-07T21:09:55Z</time>
      </trkpt>
      <trkpt lat="44.77547" lon="6.3251">
        <ele>2115</ele>
        <time>2020-11-07T21:11:40Z</time>
      </trkpt>
      <trkpt lat="44.77502" lon="6.32474">
        <ele>2134</ele>
        <time>2020-11-07T21:12:49Z</time>
      </trkpt>
      <trkpt lat="44.77457" lon="6.32474">
        <ele>2129</ele>
        <time>2020-11-07T21:13:49Z</time>
      </trkpt>
      <trkpt lat="44.7746" lon="6.32379">
        <ele>2174</ele>
        <time>2020-11-07T21:15:19Z</time>
      </trkpt>
      <trkpt lat="44.77374" lon="6.32188">
        <ele>2211</ele>
        <time>2020-11-07T21:18:53Z</time>
      </trkpt>
      <trkpt lat="44.77425" lon="6.32171">
        <ele>2231</ele>
        <time>2020-11-07T21:20:03Z</time>
      </trkpt>
      <trkpt lat="44.77387" lon="6.32124">
        <ele>2239</ele>
        <time>2020-11-07T21:21:10Z</time>
      </trkpt>
      <trkpt lat="44.77515" lon="6.32154">
        <ele>2268</ele>
        <time>2020-11-07T21:24:04Z</time>
      </trkpt>
      <trkpt lat="44.77498" lon="6.32126">
        <ele>2278</ele>
        <time>2020-11-07T21:24:38Z</time>
      </trkpt>
      <trkpt lat="44.77541" lon="6.32133">
        <ele>2277</ele>
        <time>2020-11-07T21:25:36Z</time>
      </trkpt>
      <trkpt lat="44.77458" lon="6.31993">
        <ele>2314</ele>
        <time>2020-11-07T21:28:29Z</time>
      </trkpt>
      <trkpt lat="44.77473" lon="6.31957">
        <ele>2325</ele>
        <time>2020-11-07T21:29:09Z</time>
      </trkpt>
      <trkpt lat="44.77434" lon="6.31882">
        <ele>2340</ele>
        <time>2020-11-07T21:30:37Z</time>
      </trkpt>
      <trkpt lat="44.77371" lon="6.31897">
        <ele>2333</ele>
        <time>2020-11-07T21:32:02Z</time>
      </trkpt>
      <trkpt lat="44.7737" lon="6.31695">
        <ele>2384</ele>
        <time>2020-11-07T21:35:13Z</time>
      </trkpt>
      <trkpt lat="44.77408" lon="6.31611">
        <ele>2409</ele>
        <time>2020-11-07T21:36:48Z</time>
      </trkpt>
      <trkpt lat="44.77399" lon="6.31555">
        <ele>2421</ele>
        <time>2020-11-07T21:37:42Z</time>
      </trkpt>
      <trkpt lat="44.77416" lon="6.31493">
        <ele>2438</ele>
        <time>2020-11-07T21:38:45Z</time>
      </trkpt>
      <trkpt lat="44.77361" lon="6.31266">
        <ele>2476</ele>
        <time>2020-11-07T21:42:32Z</time>
      </trkpt>
      <trkpt lat="44.77324" lon="6.31287">
        <ele>2481</ele>
        <time>2020-11-07T21:43:25Z</time>
      </trkpt>
      <trkpt lat="44.77323" lon="6.31227">
        <ele>2489</ele>
        <time>2020-11-07T21:44:22Z</time>
      </trkpt>
      <trkpt lat="44.77304" lon="6.31234">
        <ele>2496</ele>
        <time>2020-11-07T21:44:48Z</time>
      </trkpt>
      <trkpt lat="44.77312" lon="6.31186">
        <ele>2500</ele>
        <time>2020-11-07T21:45:35Z</time>
      </trkpt>
      <trkpt lat="44.773" lon="6.31143">
        <ele>2510</ele>
        <time>2020-11-07T21:46:19Z</time>
      </trkpt>
      <trkpt lat="44.77265" lon="6.31096">
        <ele>2525</ele>
        <time>2020-11-07T21:47:23Z</time>
      </trkpt>
      <trkpt lat="44.7726" lon="6.31066">
        <ele>2531</ele>
        <time>2020-11-07T21:47:53Z</time>
      </trkpt>
      <trkpt lat="44.773" lon="6.30976">
        <ele>2538</ele>
        <time>2020-11-07T21:49:33Z</time>
      </trkpt>
      <trkpt lat="44.77307" lon="6.30931">
        <ele>2547</ele>
        <time>2020-11-07T21:50:17Z</time>
      </trkpt>
      <trkpt lat="44.77282" lon="6.30955">
        <ele>2549</ele>
        <time>2020-11-07T21:50:57Z</time>
      </trkpt>
      <trkpt lat="44.77263" lon="6.3091">
        <ele>2571</ele>
        <time>2020-11-07T21:51:47Z</time>
      </trkpt>
      <trkpt lat="44.77275" lon="6.30807">
        <ele>2605</ele>
        <time>2020-11-07T21:53:26Z</time>
      </trkpt>
      <trkpt lat="44.77314" lon="6.30622">
        <ele>2644</ele>
        <time>2020-11-07T21:56:29Z</time>
      </trkpt>
      <trkpt lat="44.77295" lon="6.30618">
        <ele>2643</ele>
        <time>2020-11-07T21:56:54Z</time>
      </trkpt>
      <trkpt lat="44.77393" lon="6.3051">
        <ele>2655</ele>
        <time>2020-11-07T21:59:40Z</time>
      </trkpt>
      <trkpt lat="44.77374" lon="6.30504">
        <ele>2658</ele>
        <time>2020-11-07T22:00:06Z</time>
      </trkpt>
      <trkpt lat="44.77397" lon="6.3049">
        <ele>2649</ele>
        <time>2020-11-07T22:00:40Z</time>
      </trkpt>
      <trkpt lat="44.77384" lon="6.3048">
        <ele>2648</ele>
        <time>2020-11-07T22:00:59Z</time>
      </trkpt>
      <trkpt lat="44.77406" lon="6.30463">
        <ele>2633</ele>
        <time>2020-11-07T22:01:33Z</time>
      </trkpt>
      <trkpt lat="44.77395" lon="6.30455">
        <ele>2634</ele>
        <time>2020-11-07T22:01:49Z</time>
      </trkpt>
      <trkpt lat="44.77418" lon="6.3045">
        <ele>2623</ele>
        <time>2020-11-07T22:02:21Z</time>
      </trkpt>
      <trkpt lat="44.7741" lon="6.30433">
        <ele>2617</ele>
        <time>2020-11-07T22:02:40Z</time>
      </trkpt>
      <trkpt lat="44.77445" lon="6.30443">
        <ele>2619</ele>
        <time>2020-11-07T22:03:28Z</time>
      </trkpt>
      <trkpt lat="44.77427" lon="6.30412">
        <ele>2603</ele>
        <time>2020-11-07T22:04:05Z</time>
      </trkpt>
      <trkpt lat="44.77425" lon="6.30373">
        <ele>2582</ele>
        <time>2020-11-07T22:04:42Z</time>
      </trkpt>
      <trkpt lat="44.77441" lon="6.30389">
        <ele>2590</ele>
        <time>2020-11-07T22:05:09Z</time>
      </trkpt>
      <trkpt lat="44.77441" lon="6.30347">
        <ele>2568</ele>
        <time>2020-11-07T22:05:48Z</time>
      </trkpt>
      <trkpt lat="44.77473" lon="6.30349">
        <ele>2570</ele>
        <time>2020-11-07T22:06:31Z</time>
      </trkpt>
      <trkpt lat="44.775" lon="6.30238">
        <ele>2533</ele>
        <time>2020-11-07T22:08:22Z</time>
      </trkpt>
      <trkpt lat="44.77534" lon="6.30253">
        <ele>2541</ele>
        <time>2020-11-07T22:09:10Z</time>
      </trkpt>
      <trkpt lat="44.77528" lon="6.30231">
        <ele>2531</ele>
        <time>2020-11-07T22:09:32Z</time>
      </trkpt>
      <trkpt lat="44.7755" lon="6.30214">
        <ele>2525</ele>
        <time>2020-11-07T22:10:06Z</time>
      </trkpt>
      <trkpt lat="44.77586" lon="6.30012">
        <ele>2485</ele>
        <time>2020-11-07T22:13:23Z</time>
      </trkpt>
      <trkpt lat="44.77693" lon="6.29721">
        <ele>2490</ele>
        <time>2020-11-07T22:18:33Z</time>
      </trkpt>
      <trkpt lat="44.77713" lon="6.29628">
        <ele>2494</ele>
        <time>2020-11-07T22:20:06Z</time>
      </trkpt>
      <trkpt lat="44.77711" lon="6.29311">
        <ele>2531</ele>
        <time>2020-11-07T22:25:06Z</time>
      </trkpt>
      <trkpt lat="44.77752" lon="6.29208">
        <ele>2564</ele>
        <time>2020-11-07T22:26:58Z</time>
      </trkpt>
      <trkpt lat="44.77754" lon="6.29154">
        <ele>2579</ele>
        <time>2020-11-07T22:27:49Z</time>
      </trkpt>
      <trkpt lat="44.77728" lon="6.29109">
        <ele>2590</ele>
        <time>2020-11-07T22:28:44Z</time>
      </trkpt>
      <trkpt lat="44.77774" lon="6.29107">
        <ele>2594</ele>
        <time>2020-11-07T22:29:45Z</time>
      </trkpt>
      <trkpt lat="44.77734" lon="6.29034">
        <ele>2587</ele>
        <time>2020-11-07T22:31:13Z</time>
      </trkpt>
      <trkpt lat="44.77777" lon="6.29028">
        <ele>2582</ele>
        <time>2020-11-07T22:32:10Z</time>
      </trkpt>
      <trkpt lat="44.77839" lon="6.28959">
        <ele>2560</ele>
        <time>2020-11-07T22:33:56Z</time>
      </trkpt>
      <trkpt lat="44.77961" lon="6.2889">
        <ele>2534</ele>
        <time>2020-11-07T22:36:51Z</time>
      </trkpt>
      <trkpt lat="44.78126" lon="6.28885">
        <ele>2506</ele>
        <time>2020-11-07T22:40:31Z</time>
      </trkpt>
      <trkpt lat="44.78116" lon="6.2885">
        <ele>2491</ele>
        <time>2020-11-07T22:41:07Z</time>
      </trkpt>
      <trkpt lat="44.78218" lon="6.28805">
        <ele>2471</ele>
        <time>2020-11-07T22:43:30Z</time>
      </trkpt>
      <trkpt lat="44.78255" lon="6.28691">
        <ele>2442</ele>
        <time>2020-11-07T22:45:28Z</time>
      </trkpt>
      <trkpt lat="44.78313" lon="6.28684">
        <ele>2446</ele>
        <time>2020-11-07T22:46:46Z</time>
      </trkpt>
      <trkpt lat="44.7834" lon="6.28644">
        <ele>2439</ele>
        <time>2020-11-07T22:47:38Z</time>
      </trkpt>
      <trkpt lat="44.78348" lon="6.28581">
        <ele>2427</ele>
        <time>2020-11-07T22:48:39Z</time>
      </trkpt>
      <trkpt lat="44.78371" lon="6.28586">
        <ele>2431</ele>
        <time>2020-11-07T22:49:10Z</time>
      </trkpt>
      <trkpt lat="44.7839" lon="6.2857">
        <ele>2430</ele>
        <time>2020-11-07T22:49:40Z</time>
      </trkpt>
      <trkpt lat="44.78383" lon="6.28544">
        <ele>2424</ele>
        <time>2020-11-07T22:50:06Z</time>
      </trkpt>
      <trkpt lat="44.78413" lon="6.28523">
        <ele>2421</ele>
        <time>2020-11-07T22:50:51Z</time>
      </trkpt>
      <trkpt lat="44.78445" lon="6.28532">
        <ele>2435</ele>
        <time>2020-11-07T22:51:34Z</time>
      </trkpt>
      <trkpt lat="44.78461" lon="6.28517">
        <ele>2437</ele>
        <time>2020-11-07T22:52:00Z</time>
      </trkpt>
      <trkpt lat="44.78458" lon="6.28478">
        <ele>2428</ele>
        <time>2020-11-07T22:52:37Z</time>
      </trkpt>
      <trkpt lat="44.78473" lon="6.28414">
        <ele>2424</ele>
        <time>2020-11-07T22:53:41Z</time>
      </trkpt>
      <trkpt lat="44.78496" lon="6.28354">
        <ele>2422</ele>
        <time>2020-11-07T22:54:45Z</time>
      </trkpt>
      <trkpt lat="44.78524" lon="6.28352">
        <ele>2432</ele>
        <time>2020-11-07T22:55:23Z</time>
      </trkpt>
      <trkpt lat="44.78515" lon="6.28311">
        <ele>2424</ele>
        <time>2020-11-07T22:56:04Z</time>
      </trkpt>
      <trkpt lat="44.78531" lon="6.28287">
        <ele>2428</ele>
        <time>2020-11-07T22:56:35Z</time>
      </trkpt>
      <trkpt lat="44.78532" lon="6.28303">
        <ele>2430</ele>
        <time>2020-11-07T22:56:50Z</time>
      </trkpt>
      <trkpt lat="44.78548" lon="6.28287">
        <ele>2435</ele>
        <time>2020-11-07T22:57:16Z</time>
      </trkpt>
      <trkpt lat="44.78547" lon="6.28307">
        <ele>2436</ele>
        <time>2020-11-07T22:57:35Z</time>
      </trkpt>
      <trkpt lat="44.78556" lon="6.28328">
        <ele>2442</ele>
        <time>2020-11-07T22:57:58Z</time>
      </trkpt>
      <trkpt lat="44.78563" lon="6.28306">
        <ele>2443</ele>
        <time>2020-11-07T22:58:21Z</time>
      </trkpt>
      <trkpt lat="44.78591" lon="6.2828">
        <ele>2453</ele>
        <time>2020-11-07T22:59:06Z</time>
      </trkpt>
      <trkpt lat="44.78623" lon="6.28264">
        <ele>2466</ele>
        <time>2020-11-07T22:59:51Z</time>
      </trkpt>
      <trkpt lat="44.78609" lon="6.28238">
        <ele>2458</ele>
        <time>2020-11-07T23:00:22Z</time>
      </trkpt>
      <trkpt lat="44.78659" lon="6.28226">
        <ele>2479</ele>
        <time>2020-11-07T23:01:30Z</time>
      </trkpt>
      <trkpt lat="44.78653" lon="6.28204">
        <ele>2476</ele>
        <time>2020-11-07T23:01:52Z</time>
      </trkpt>
      <trkpt lat="44.78675" lon="6.28189">
        <ele>2487</ele>
        <time>2020-11-07T23:02:25Z</time>
      </trkpt>
      <trkpt lat="44.78656" lon="6.28174">
        <ele>2478</ele>
        <time>2020-11-07T23:02:54Z</time>
      </trkpt>
      <trkpt lat="44.78658" lon="6.28148">
        <ele>2477</ele>
        <time>2020-11-07T23:03:19Z</time>
      </trkpt>
      <trkpt lat="44.78694" lon="6.28122">
        <ele>2494</ele>
        <time>2020-11-07T23:04:13Z</time>
      </trkpt>
      <trkpt lat="44.78719" lon="6.28132">
        <ele>2507</ele>
        <time>2020-11-07T23:04:47Z</time>
      </trkpt>
      <trkpt lat="44.7873" lon="6.28105">
        <ele>2512</ele>
        <time>2020-11-07T23:05:17Z</time>
      </trkpt>
      <trkpt lat="44.78723" lon="6.28084">
        <ele>2507</ele>
        <time>2020-11-07T23:05:39Z</time>
      </trkpt>
      <trkpt lat="44.78727" lon="6.28048">
        <ele>2508</ele>
        <time>2020-11-07T23:06:13Z</time>
      </trkpt>
      <trkpt lat="44.78747" lon="6.28064">
        <ele>2520</ele>
        <time>2020-11-07T23:06:44Z</time>
      </trkpt>
      <trkpt lat="44.78751" lon="6.28046">
        <ele>2523</ele>
        <time>2020-11-07T23:07:02Z</time>
      </trkpt>
      <trkpt lat="44.78769" lon="6.28028">
        <ele>2533</ele>
        <time>2020-11-07T23:07:31Z</time>
      </trkpt>
      <trkpt lat="44.78793" lon="6.28047">
        <ele>2547</ele>
        <time>2020-11-07T23:08:08Z</time>
      </trkpt>
      <trkpt lat="44.78807" lon="6.28063">
        <ele>2556</ele>
        <time>2020-11-07T23:08:32Z</time>
      </trkpt>
      <trkpt lat="44.78835" lon="6.28008">
        <ele>2572</ele>
        <time>2020-11-07T23:09:36Z</time>
      </trkpt>
      <trkpt lat="44.78859" lon="6.27986">
        <ele>2585</ele>
        <time>2020-11-07T23:10:14Z</time>
      </trkpt>
      <trkpt lat="44.78879" lon="6.28178">
        <ele>2587</ele>
        <time>2020-11-07T23:13:18Z</time>
      </trkpt>
      <trkpt lat="44.78939" lon="6.28126">
        <ele>2606</ele>
        <time>2020-11-07T23:14:52Z</time>
      </trkpt>
      <trkpt lat="44.7899" lon="6.28129">
        <ele>2597</ele>
        <time>2020-11-07T23:16:00Z</time>
      </trkpt>
      <trkpt lat="44.79032" lon="6.28174">
        <ele>2571</ele>
        <time>2020-11-07T23:17:11Z</time>
      </trkpt>
      <trkpt lat="44.79009" lon="6.28184">
        <ele>2571</ele>
        <time>2020-11-07T23:17:43Z</time>
      </trkpt>
      <trkpt lat="44.79047" lon="6.28249">
        <ele>2545</ele>
        <time>2020-11-07T23:19:03Z</time>
      </trkpt>
      <trkpt lat="44.79115" lon="6.28264">
        <ele>2542</ele>
        <time>2020-11-07T23:20:34Z</time>
      </trkpt>
      <trkpt lat="44.79106" lon="6.28369">
        <ele>2508</ele>
        <time>2020-11-07T23:22:15Z</time>
      </trkpt>
      <trkpt lat="44.79161" lon="6.28405">
        <ele>2498</ele>
        <time>2020-11-07T23:23:35Z</time>
      </trkpt>
      <trkpt lat="44.79128" lon="6.28416">
        <ele>2491</ele>
        <time>2020-11-07T23:24:21Z</time>
      </trkpt>
      <trkpt lat="44.79136" lon="6.28438">
        <ele>2483</ele>
        <time>2020-11-07T23:24:44Z</time>
      </trkpt>
      <trkpt lat="44.79134" lon="6.28459">
        <ele>2473</ele>
        <time>2020-11-07T23:25:04Z</time>
      </trkpt>
      <trkpt lat="44.79114" lon="6.28461">
        <ele>2472</ele>
        <time>2020-11-07T23:25:31Z</time>
      </trkpt>
      <trkpt lat="44.7917" lon="6.28484">
        <ele>2464</ele>
        <time>2020-11-07T23:26:49Z</time>
      </trkpt>
      <trkpt lat="44.79103" lon="6.28526">
        <ele>2449</ele>
        <time>2020-11-07T23:28:27Z</time>
      </trkpt>
      <trkpt lat="44.79147" lon="6.28556">
        <ele>2440</ele>
        <time>2020-11-07T23:29:32Z</time>
      </trkpt>
      <trkpt lat="44.79249" lon="6.28663">
        <ele>2423</ele>
        <time>2020-11-07T23:32:22Z</time>
      </trkpt>
      <trkpt lat="44.79278" lon="6.28712">
        <ele>2407</ele>
        <time>2020-11-07T23:33:22Z</time>
      </trkpt>
      <trkpt lat="44.79342" lon="6.28744">
        <ele>2386</ele>
        <time>2020-11-07T23:34:53Z</time>
      </trkpt>
      <trkpt lat="44.79467" lon="6.28663">
        <ele>2368</ele>
        <time>2020-11-07T23:37:56Z</time>
      </trkpt>
      <trkpt lat="44.79443" lon="6.2874">
        <ele>2355</ele>
        <time>2020-11-07T23:39:16Z</time>
      </trkpt>
      <trkpt lat="44.7954" lon="6.28759">
        <ele>2327</ele>
        <time>2020-11-07T23:41:27Z</time>
      </trkpt>
      <trkpt lat="44.796" lon="6.28751">
        <ele>2317</ele>
        <time>2020-11-07T23:42:47Z</time>
      </trkpt>
      <trkpt lat="44.7958" lon="6.2882">
        <ele>2309</ele>
        <time>2020-11-07T23:43:58Z</time>
      </trkpt>
      <trkpt lat="44.79587" lon="6.2886">
        <ele>2301</ele>
        <time>2020-11-07T23:44:37Z</time>
      </trkpt>
      <trkpt lat="44.79731" lon="6.28852">
        <ele>2284</ele>
        <time>2020-11-07T23:47:49Z</time>
      </trkpt>
      <trkpt lat="44.79852" lon="6.28931">
        <ele>2276</ele>
        <time>2020-11-07T23:50:47Z</time>
      </trkpt>
      <trkpt lat="44.79861" lon="6.28963">
        <ele>2274</ele>
        <time>2020-11-07T23:51:19Z</time>
      </trkpt>
      <trkpt lat="44.79843" lon="6.29017">
        <ele>2273</ele>
        <time>2020-11-07T23:52:16Z</time>
      </trkpt>
      <trkpt lat="44.7981" lon="6.29036">
        <ele>2273</ele>
        <time>2020-11-07T23:53:04Z</time>
      </trkpt>
      <trkpt lat="44.79801" lon="6.29122">
        <ele>2271</ele>
        <time>2020-11-07T23:54:26Z</time>
      </trkpt>
      <trkpt lat="44.79849" lon="6.2918">
        <ele>2265</ele>
        <time>2020-11-07T23:55:50Z</time>
      </trkpt>
      <trkpt lat="44.80023" lon="6.29135">
        <ele>2236</ele>
        <time>2020-11-07T23:59:46Z</time>
      </trkpt>
      <trkpt lat="44.80099" lon="6.29206">
        <ele>2202</ele>
        <time>2020-11-08T00:01:48Z</time>
      </trkpt>
      <trkpt lat="44.80117" lon="6.29161">
        <ele>2198</ele>
        <time>2020-11-08T00:02:37Z</time>
      </trkpt>
      <trkpt lat="44.80139" lon="6.29221">
        <ele>2182</ele>
        <time>2020-11-08T00:03:41Z</time>
      </trkpt>
      <trkpt lat="44.80215" lon="6.29201">
        <ele>2145</ele>
        <time>2020-11-08T00:05:24Z</time>
      </trkpt>
      <trkpt lat="44.80262" lon="6.29141">
        <ele>2122</ele>
        <time>2020-11-08T00:06:49Z</time>
      </trkpt>
      <trkpt lat="44.80282" lon="6.29212">
        <ele>2113</ele>
        <time>2020-11-08T00:08:01Z</time>
      </trkpt>
      <trkpt lat="44.80314" lon="6.29163">
        <ele>2097</ele>
        <time>2020-11-08T00:09:04Z</time>
      </trkpt>
      <trkpt lat="44.80311" lon="6.29064">
        <ele>2101</ele>
        <time>2020-11-08T00:10:38Z</time>
      </trkpt>
      <trkpt lat="44.80397" lon="6.29221">
        <ele>2070</ele>
        <time>2020-11-08T00:13:46Z</time>
      </trkpt>
      <trkpt lat="44.80496" lon="6.2924">
        <ele>2040</ele>
        <time>2020-11-08T00:15:59Z</time>
      </trkpt>
      <trkpt lat="44.80513" lon="6.29283">
        <ele>2035</ele>
        <time>2020-11-08T00:16:46Z</time>
      </trkpt>
      <trkpt lat="44.80505" lon="6.29347">
        <ele>2043</ele>
        <time>2020-11-08T00:17:47Z</time>
      </trkpt>
      <trkpt lat="44.80522" lon="6.29407">
        <ele>2038</ele>
        <time>2020-11-08T00:18:48Z</time>
      </trkpt>
      <trkpt lat="44.80545" lon="6.29341">
        <ele>2019</ele>
        <time>2020-11-08T00:19:58Z</time>
      </trkpt>
      <trkpt lat="44.80547" lon="6.29425">
        <ele>2020</ele>
        <time>2020-11-08T00:21:17Z</time>
      </trkpt>
      <trkpt lat="44.8058" lon="6.2951">
        <ele>2000</ele>
        <time>2020-11-08T00:22:49Z</time>
      </trkpt>
      <trkpt lat="44.80612" lon="6.29371">
        <ele>1977</ele>
        <time>2020-11-08T00:25:08Z</time>
      </trkpt>
      <trkpt lat="44.80647" lon="6.29534">
        <ele>1951</ele>
        <time>2020-11-08T00:27:49Z</time>
      </trkpt>
      <trkpt lat="44.80667" lon="6.29444">
        <ele>1936</ele>
        <time>2020-11-08T00:29:18Z</time>
      </trkpt>
      <trkpt lat="44.8069" lon="6.2956">
        <ele>1926</ele>
        <time>2020-11-08T00:31:12Z</time>
      </trkpt>
      <trkpt lat="44.807" lon="6.29517">
        <ele>1914</ele>
        <time>2020-11-08T00:31:55Z</time>
      </trkpt>
      <trkpt lat="44.80717" lon="6.29558">
        <ele>1909</ele>
        <time>2020-11-08T00:32:40Z</time>
      </trkpt>
      <trkpt lat="44.80726" lon="6.2948">
        <ele>1900</ele>
        <time>2020-11-08T00:33:55Z</time>
      </trkpt>
      <trkpt lat="44.80745" lon="6.29462">
        <ele>1892</ele>
        <time>2020-11-08T00:34:25Z</time>
      </trkpt>
      <trkpt lat="44.80775" lon="6.29561">
        <ele>1875</ele>
        <time>2020-11-08T00:36:07Z</time>
      </trkpt>
      <trkpt lat="44.80791" lon="6.29513">
        <ele>1867</ele>
        <time>2020-11-08T00:36:57Z</time>
      </trkpt>
      <trkpt lat="44.80802" lon="6.29554">
        <ele>1861</ele>
        <time>2020-11-08T00:37:39Z</time>
      </trkpt>
      <trkpt lat="44.80853" lon="6.29464">
        <ele>1844</ele>
        <time>2020-11-08T00:39:28Z</time>
      </trkpt>
      <trkpt lat="44.8086" lon="6.29567">
        <ele>1830</ele>
        <time>2020-11-08T00:41:06Z</time>
      </trkpt>
      <trkpt lat="44.80934" lon="6.29522">
        <ele>1803</ele>
        <time>2020-11-08T00:42:54Z</time>
      </trkpt>
      <trkpt lat="44.80934" lon="6.29575">
        <ele>1793</ele>
        <time>2020-11-08T00:43:44Z</time>
      </trkpt>
      <trkpt lat="44.8097" lon="6.29571">
        <ele>1776</ele>
        <time>2020-11-08T00:44:32Z</time>
      </trkpt>
      <trkpt lat="44.81029" lon="6.29523">
        <ele>1757</ele>
        <time>2020-11-08T00:46:03Z</time>
      </trkpt>
      <trkpt lat="44.81035" lon="6.29545">
        <ele>1750</ele>
        <time>2020-11-08T00:46:25Z</time>
      </trkpt>
      <trkpt lat="44.8107" lon="6.29502">
        <ele>1739</ele>
        <time>2020-11-08T00:47:27Z</time>
      </trkpt>
      <trkpt lat="44.81108" lon="6.29633">
        <ele>1709</ele>
        <time>2020-11-08T00:49:41Z</time>
      </trkpt>
      <trkpt lat="44.81165" lon="6.29586">
        <ele>1704</ele>
        <time>2020-11-08T00:51:09Z</time>
      </trkpt>
      <trkpt lat="44.81241" lon="6.29656">
        <ele>1687</ele>
        <time>2020-11-08T00:53:10Z</time>
      </trkpt>
      <trkpt lat="44.81331" lon="6.29656">
        <ele>1677</ele>
        <time>2020-11-08T00:55:10Z</time>
      </trkpt>
      <trkpt lat="44.81681" lon="6.29528">
        <ele>1650</ele>
        <time>2020-11-08T01:03:13Z</time>
      </trkpt>
      <trkpt lat="44.81748" lon="6.29549">
        <ele>1643</ele>
        <time>2020-11-08T01:04:45Z</time>
      </trkpt>
      <trkpt lat="44.81802" lon="6.29534">
        <ele>1640</ele>
        <time>2020-11-08T01:05:58Z</time>
      </trkpt>
      <trkpt lat="44.81914" lon="6.2956">
        <ele>1625</ele>
        <time>2020-11-08T01:08:29Z</time>
      </trkpt>
      <trkpt lat="44.82118" lon="6.29485">
        <ele>1595</ele>
        <time>2020-11-08T01:13:11Z</time>
      </trkpt>
      <trkpt lat="44.82212" lon="6.2941">
        <ele>1593</ele>
        <time>2020-11-08T01:15:35Z</time>
      </trkpt>
      <trkpt lat="44.82325" lon="6.29341">
        <ele>1585</ele>
        <time>2020-11-08T01:18:19Z</time>
      </trkpt>
      <trkpt lat="44.82382" lon="6.29343">
        <ele>1581</ele>
        <time>2020-11-08T01:19:35Z</time>
      </trkpt>
      <trkpt lat="44.82442" lon="6.29311">
        <ele>1582</ele>
        <time>2020-11-08T01:21:01Z</time>
      </trkpt>
      <trkpt lat="44.82478" lon="6.2935">
        <ele>1570</ele>
        <time>2020-11-08T01:22:02Z</time>
      </trkpt>
      <trkpt lat="44.82524" lon="6.29313">
        <ele>1564</ele>
        <time>2020-11-08T01:23:12Z</time>
      </trkpt>
      <trkpt lat="44.82582" lon="6.29294">
        <ele>1555</ele>
        <time>2020-11-08T01:24:32Z</time>
      </trkpt>
      <trkpt lat="44.82685" lon="6.29206">
        <ele>1556</ele>
        <time>2020-11-08T01:27:12Z</time>
      </trkpt>
      <trkpt lat="44.82798" lon="6.29206">
        <ele>1547</ele>
        <time>2020-11-08T01:29:43Z</time>
      </trkpt>
      <trkpt lat="44.82883" lon="6.29111">
        <ele>1532</ele>
        <time>2020-11-08T01:32:08Z</time>
      </trkpt>
      <trkpt lat="44.82991" lon="6.29013">
        <ele>1515</ele>
        <time>2020-11-08T01:34:59Z</time>
      </trkpt>
      <trkpt lat="44.83057" lon="6.2885">
        <ele>1497</ele>
        <time>2020-11-08T01:37:57Z</time>
      </trkpt>
      <trkpt lat="44.83085" lon="6.28723">
        <ele>1474</ele>
        <time>2020-11-08T01:40:03Z</time>
      </trkpt>
      <trkpt lat="44.83092" lon="6.28603">
        <ele>1461</ele>
        <time>2020-11-08T01:41:57Z</time>
      </trkpt>
      <trkpt lat="44.83155" lon="6.28388">
        <ele>1438</ele>
        <time>2020-11-08T01:45:37Z</time>
      </trkpt>
      <trkpt lat="44.83168" lon="6.28302">
        <ele>1435</ele>
        <time>2020-11-08T01:47:00Z</time>
      </trkpt>
      <trkpt lat="44.83146" lon="6.28079">
        <ele>1433</ele>
        <time>2020-11-08T01:50:33Z</time>
      </trkpt>
      <trkpt lat="44.83003" lon="6.27963">
        <ele>1415</ele>
        <time>2020-11-08T01:54:13Z</time>
      </trkpt>
      <trkpt lat="44.82939" lon="6.27775">
        <ele>1417</ele>
        <time>2020-11-08T01:57:31Z</time>
      </trkpt>
      <trkpt lat="44.82912" lon="6.2753">
        <ele>1403</ele>
        <time>2020-11-08T02:01:25Z</time>
      </trkpt>
      <trkpt lat="44.82894" lon="6.27333">
        <ele>1405</ele>
        <time>2020-11-08T02:04:33Z</time>
      </trkpt>
      <trkpt lat="44.829" lon="6.27101">
        <ele>1429</ele>
        <time>2020-11-08T02:08:13Z</time>
      </trkpt>
      <trkpt lat="44.82885" lon="6.27069">
        <ele>1425</ele>
        <time>2020-11-08T02:08:49Z</time>
      </trkpt>
      <trkpt lat="44.82824" lon="6.26809">
        <ele>1430</ele>
        <time>2020-11-08T02:13:09Z</time>
      </trkpt>
      <trkpt lat="44.82661" lon="6.26073">
        <ele>1402</ele>
        <time>2020-11-08T02:25:18Z</time>
      </trkpt>
      <trkpt lat="44.82702" lon="6.26011">
        <ele>1410</ele>
        <time>2020-11-08T02:26:39Z</time>
      </trkpt>
      <trkpt lat="44.8263" lon="6.25961">
        <ele>1377</ele>
        <time>2020-11-08T02:28:26Z</time>
      </trkpt>
      <trkpt lat="44.82594" lon="6.25867">
        <ele>1364</ele>
        <time>2020-11-08T02:30:07Z</time>
      </trkpt>
      <trkpt lat="44.82562" lon="6.25895">
        <ele>1349</ele>
        <time>2020-11-08T02:30:57Z</time>
      </trkpt>
      <trkpt lat="44.82538" lon="6.25704">
        <ele>1315</ele>
        <time>2020-11-08T02:34:01Z</time>
      </trkpt>
      <trkpt lat="44.82576" lon="6.25609">
        <ele>1318</ele>
        <time>2020-11-08T02:35:44Z</time>
      </trkpt>
      <trkpt lat="44.8255" lon="6.25472">
        <ele>1289</ele>
        <time>2020-11-08T02:37:58Z</time>
      </trkpt>
      <trkpt lat="44.82601" lon="6.25086">
        <ele>1263</ele>
        <time>2020-11-08T02:44:10Z</time>
      </trkpt>
      <trkpt lat="44.82518" lon="6.24414">
        <ele>1206</ele>
        <time>2020-11-08T02:54:55Z</time>
      </trkpt>
      <trkpt lat="44.82478" lon="6.24116">
        <ele>1189</ele>
        <time>2020-11-08T02:59:42Z</time>
      </trkpt>
      <trkpt lat="44.82484" lon="6.23796">
        <ele>1185</ele>
        <time>2020-11-08T03:04:45Z</time>
      </trkpt>
      <trkpt lat="44.82466" lon="6.23301">
        <ele>1179</ele>
        <time>2020-11-08T03:12:34Z</time>
      </trkpt>
      <trkpt lat="44.82387" lon="6.23324">
        <ele>1174</ele>
        <time>2020-11-08T03:14:22Z</time>
      </trkpt>
      <trkpt lat="44.82373" lon="6.23258">
        <ele>1176</ele>
        <time>2020-11-08T03:15:27Z</time>
      </trkpt>
      <trkpt lat="44.82352" lon="6.23245">
        <ele>1178</ele>
        <time>2020-11-08T03:15:58Z</time>
      </trkpt>
      <trkpt lat="44.82344" lon="6.2318">
        <ele>1176</ele>
        <time>2020-11-08T03:17:00Z</time>
      </trkpt>
      <trkpt lat="44.82089" lon="6.22625">
        <ele>1174</ele>
        <time>2020-11-08T03:27:26Z</time>
      </trkpt>
      <trkpt lat="44.82075" lon="6.22487">
        <ele>1173</ele>
        <time>2020-11-08T03:29:38Z</time>
      </trkpt>
      <trkpt lat="44.82032" lon="6.22367">
        <ele>1176</ele>
        <time>2020-11-08T03:31:45Z</time>
      </trkpt>
      <trkpt lat="44.82022" lon="6.22103">
        <ele>1154</ele>
        <time>2020-11-08T03:35:56Z</time>
      </trkpt>
      <trkpt lat="44.81984" lon="6.21895">
        <ele>1149</ele>
        <time>2020-11-08T03:39:19Z</time>
      </trkpt>
      <trkpt lat="44.81994" lon="6.21751">
        <ele>1140</ele>
        <time>2020-11-08T03:41:36Z</time>
      </trkpt>
      <trkpt lat="44.81965" lon="6.21558">
        <ele>1135</ele>
        <time>2020-11-08T03:44:43Z</time>
      </trkpt>
      <trkpt lat="44.81898" lon="6.21479">
        <ele>1132</ele>
        <time>2020-11-08T03:46:39Z</time>
      </trkpt>
      <trkpt lat="44.81865" lon="6.21309">
        <ele>1133</ele>
        <time>2020-11-08T03:49:26Z</time>
      </trkpt>
      <trkpt lat="44.81877" lon="6.21172">
        <ele>1128</ele>
        <time>2020-11-08T03:51:37Z</time>
      </trkpt>
      <trkpt lat="44.81889" lon="6.20814">
        <ele>1124</ele>
        <time>2020-11-08T03:57:16Z</time>
      </trkpt>
      <trkpt lat="44.81865" lon="6.20646">
        <ele>1117</ele>
        <time>2020-11-08T03:59:58Z</time>
      </trkpt>
      <trkpt lat="44.81871" lon="6.20488">
        <ele>1112</ele>
        <time>2020-11-08T04:02:28Z</time>
      </trkpt>
      <trkpt lat="44.81831" lon="6.2035">
        <ele>1116</ele>
        <time>2020-11-08T04:04:49Z</time>
      </trkpt>
      <trkpt lat="44.8185" lon="6.20254">
        <ele>1109</ele>
        <time>2020-11-08T04:06:24Z</time>
      </trkpt>
      <trkpt lat="44.81827" lon="6.202">
        <ele>1111</ele>
        <time>2020-11-08T04:07:23Z</time>
      </trkpt>
      <trkpt lat="44.81825" lon="6.20129">
        <ele>1109</ele>
        <time>2020-11-08T04:08:30Z</time>
      </trkpt>
      <trkpt lat="44.8178" lon="6.20099">
        <ele>1113</ele>
        <time>2020-11-08T04:09:37Z</time>
      </trkpt>
      <trkpt lat="44.8172" lon="6.20011">
        <ele>1119</ele>
        <time>2020-11-08T04:11:32Z</time>
      </trkpt>
      <trkpt lat="44.81632" lon="6.19561">
        <ele>1105</ele>
        <time>2020-11-08T04:18:54Z</time>
      </trkpt>
      <trkpt lat="44.81801" lon="6.19595">
        <ele>1094</ele>
        <time>2020-11-08T04:22:42Z</time>
      </trkpt>
      <trkpt lat="44.8199" lon="6.19629">
        <ele>1095</ele>
        <time>2020-11-08T04:26:56Z</time>
      </trkpt>
      <trkpt lat="44.82048" lon="6.19428">
        <ele>1101</ele>
        <time>2020-11-08T04:30:22Z</time>
      </trkpt>
      <trkpt lat="44.81996" lon="6.19277">
        <ele>1093</ele>
        <time>2020-11-08T04:33:01Z</time>
      </trkpt>
      <trkpt lat="44.81959" lon="6.19054">
        <ele>1088</ele>
        <time>2020-11-08T04:36:37Z</time>
      </trkpt>
      <trkpt lat="44.82008" lon="6.18805">
        <ele>1096</ele>
        <time>2020-11-08T04:40:42Z</time>
      </trkpt>
      <trkpt lat="44.81974" lon="6.18539">
        <ele>1082</ele>
        <time>2020-11-08T04:44:58Z</time>
      </trkpt>
      <trkpt lat="44.81999" lon="6.18325">
        <ele>1074</ele>
        <time>2020-11-08T04:48:23Z</time>
      </trkpt>
      <trkpt lat="44.81993" lon="6.18131">
        <ele>1072</ele>
        <time>2020-11-08T04:51:27Z</time>
      </trkpt>
      <trkpt lat="44.82069" lon="6.17917">
        <ele>1077</ele>
        <time>2020-11-08T04:55:13Z</time>
      </trkpt>
      <trkpt lat="44.82035" lon="6.1775">
        <ele>1072</ele>
        <time>2020-11-08T04:57:58Z</time>
      </trkpt>
      <trkpt lat="44.82054" lon="6.17479">
        <ele>1067</ele>
        <time>2020-11-08T05:02:16Z</time>
      </trkpt>
      <trkpt lat="44.82118" lon="6.17368">
        <ele>1071</ele>
        <time>2020-11-08T05:04:31Z</time>
      </trkpt>
      <trkpt lat="44.82069" lon="6.17325">
        <ele>1061</ele>
        <time>2020-11-08T05:05:48Z</time>
      </trkpt>
      <trkpt lat="44.82093" lon="6.17243">
        <ele>1060</ele>
        <time>2020-11-08T05:07:12Z</time>
      </trkpt>
      <trkpt lat="44.8209" lon="6.17119">
        <ele>1057</ele>
        <time>2020-11-08T05:09:10Z</time>
      </trkpt>
      <trkpt lat="44.822" lon="6.16926">
        <ele>1063</ele>
        <time>2020-11-08T05:13:04Z</time>
      </trkpt>
      <trkpt lat="44.82242" lon="6.16737">
        <ele>1055</ele>
        <time>2020-11-08T05:16:11Z</time>
      </trkpt>
      <trkpt lat="44.82178" lon="6.16419">
        <ele>1048</ele>
        <time>2020-11-08T05:21:24Z</time>
      </trkpt>
      <trkpt lat="44.82093" lon="6.16247">
        <ele>1051</ele>
        <time>2020-11-08T05:24:43Z</time>
      </trkpt>
      <trkpt lat="44.82169" lon="6.15642">
        <ele>1044</ele>
        <time>2020-11-08T05:34:24Z</time>
      </trkpt>
      <trkpt lat="44.82279" lon="6.15531">
        <ele>1034</ele>
        <time>2020-11-08T05:37:25Z</time>
      </trkpt>
      <trkpt lat="44.82325" lon="6.15406">
        <ele>1032</ele>
        <time>2020-11-08T05:39:38Z</time>
      </trkpt>
      <trkpt lat="44.82318" lon="6.15303">
        <ele>1032</ele>
        <time>2020-11-08T05:41:16Z</time>
      </trkpt>
      <trkpt lat="44.82358" lon="6.15183">
        <ele>1031</ele>
        <time>2020-11-08T05:43:21Z</time>
      </trkpt>
      <trkpt lat="44.82358" lon="6.1505">
        <ele>1034</ele>
        <time>2020-11-08T05:45:27Z</time>
      </trkpt>
      <trkpt lat="44.82419" lon="6.14986">
        <ele>1035</ele>
        <time>2020-11-08T05:47:09Z</time>
      </trkpt>
      <trkpt lat="44.82416" lon="6.14767">
        <ele>1029</ele>
        <time>2020-11-08T05:50:36Z</time>
      </trkpt>
      <trkpt lat="44.8248" lon="6.14582">
        <ele>1035</ele>
        <time>2020-11-08T05:53:51Z</time>
      </trkpt>
      <trkpt lat="44.82565" lon="6.14441">
        <ele>1037</ele>
        <time>2020-11-08T05:56:46Z</time>
      </trkpt>
      <trkpt lat="44.82662" lon="6.14436">
        <ele>1053</ele>
        <time>2020-11-08T05:58:56Z</time>
      </trkpt>
      <trkpt lat="44.82675" lon="6.14617">
        <ele>1084</ele>
        <time>2020-11-08T06:01:48Z</time>
      </trkpt>
      <trkpt lat="44.82735" lon="6.14593">
        <ele>1093</ele>
        <time>2020-11-08T06:03:11Z</time>
      </trkpt>
      <trkpt lat="44.82748" lon="6.14679">
        <ele>1111</ele>
        <time>2020-11-08T06:04:34Z</time>
      </trkpt>
      <trkpt lat="44.82892" lon="6.14456">
        <ele>1160</ele>
        <time>2020-11-08T06:09:20Z</time>
      </trkpt>
      <trkpt lat="44.82932" lon="6.14359">
        <ele>1155</ele>
        <time>2020-11-08T06:11:06Z</time>
      </trkpt>
      <trkpt lat="44.8304" lon="6.14327">
        <ele>1182</ele>
        <time>2020-11-08T06:13:33Z</time>
      </trkpt>
      <trkpt lat="44.8319" lon="6.14218">
        <ele>1210</ele>
        <time>2020-11-08T06:17:18Z</time>
      </trkpt>
      <trkpt lat="44.83277" lon="6.1413">
        <ele>1232</ele>
        <time>2020-11-08T06:19:41Z</time>
      </trkpt>
      <trkpt lat="44.83274" lon="6.14155">
        <ele>1235</ele>
        <time>2020-11-08T06:20:05Z</time>
      </trkpt>
      <trkpt lat="44.83414" lon="6.14055">
        <ele>1278</ele>
        <time>2020-11-08T06:23:35Z</time>
      </trkpt>
      <trkpt lat="44.83418" lon="6.14098">
        <ele>1295</ele>
        <time>2020-11-08T06:24:16Z</time>
      </trkpt>
      <trkpt lat="44.83443" lon="6.14085">
        <ele>1303</ele>
        <time>2020-11-08T06:24:51Z</time>
      </trkpt>
      <trkpt lat="44.83416" lon="6.14125">
        <ele>1311</ele>
        <time>2020-11-08T06:25:44Z</time>
      </trkpt>
      <trkpt lat="44.8348" lon="6.14063">
        <ele>1320</ele>
        <time>2020-11-08T06:27:27Z</time>
      </trkpt>
      <trkpt lat="44.83525" lon="6.14055">
        <ele>1348</ele>
        <time>2020-11-08T06:28:28Z</time>
      </trkpt>
      <trkpt lat="44.83589" lon="6.13988">
        <ele>1365</ele>
        <time>2020-11-08T06:30:14Z</time>
      </trkpt>
      <trkpt lat="44.83475" lon="6.14261">
        <ele>1408</ele>
        <time>2020-11-08T06:35:14Z</time>
      </trkpt>
      <trkpt lat="44.83537" lon="6.14226">
        <ele>1429</ele>
        <time>2020-11-08T06:36:43Z</time>
      </trkpt>
      <trkpt lat="44.83527" lon="6.14273">
        <ele>1444</ele>
        <time>2020-11-08T06:37:29Z</time>
      </trkpt>
      <trkpt lat="44.83697" lon="6.14209">
        <ele>1506</ele>
        <time>2020-11-08T06:41:24Z</time>
      </trkpt>
      <trkpt lat="44.83677" lon="6.14248">
        <ele>1510</ele>
        <time>2020-11-08T06:42:10Z</time>
      </trkpt>
      <trkpt lat="44.8379" lon="6.14181">
        <ele>1542</ele>
        <time>2020-11-08T06:44:53Z</time>
      </trkpt>
      <trkpt lat="44.8376" lon="6.1425">
        <ele>1562</ele>
        <time>2020-11-08T06:46:10Z</time>
      </trkpt>
      <trkpt lat="44.83973" lon="6.14168">
        <ele>1616</ele>
        <time>2020-11-08T06:51:05Z</time>
      </trkpt>
      <trkpt lat="44.83896" lon="6.14278">
        <ele>1638</ele>
        <time>2020-11-08T06:53:31Z</time>
      </trkpt>
      <trkpt lat="44.83965" lon="6.14258">
        <ele>1654</ele>
        <time>2020-11-08T06:55:05Z</time>
      </trkpt>
      <trkpt lat="44.83945" lon="6.1431">
        <ele>1673</ele>
        <time>2020-11-08T06:56:01Z</time>
      </trkpt>
      <trkpt lat="44.84067" lon="6.14263">
        <ele>1688</ele>
        <time>2020-11-08T06:58:50Z</time>
      </trkpt>
      <trkpt lat="44.84009" lon="6.14348">
        <ele>1712</ele>
        <time>2020-11-08T07:00:41Z</time>
      </trkpt>
      <trkpt lat="44.84102" lon="6.14329">
        <ele>1733</ele>
        <time>2020-11-08T07:02:47Z</time>
      </trkpt>
      <trkpt lat="44.84144" lon="6.14385">
        <ele>1779</ele>
        <time>2020-11-08T07:04:04Z</time>
      </trkpt>
      <trkpt lat="44.8421" lon="6.14286">
        <ele>1756</ele>
        <time>2020-11-08T07:06:12Z</time>
      </trkpt>
      <trkpt lat="44.84321" lon="6.14276">
        <ele>1791</ele>
        <time>2020-11-08T07:08:41Z</time>
      </trkpt>
      <trkpt lat="44.84234" lon="6.14355">
        <ele>1800</ele>
        <time>2020-11-08T07:10:59Z</time>
      </trkpt>
      <trkpt lat="44.84298" lon="6.14359">
        <ele>1828</ele>
        <time>2020-11-08T07:12:24Z</time>
      </trkpt>
      <trkpt lat="44.84227" lon="6.14469">
        <ele>1855</ele>
        <time>2020-11-08T07:14:45Z</time>
      </trkpt>
      <trkpt lat="44.84342" lon="6.14424">
        <ele>1879</ele>
        <time>2020-11-08T07:17:24Z</time>
      </trkpt>
      <trkpt lat="44.84481" lon="6.14469">
        <ele>1912</ele>
        <time>2020-11-08T07:20:35Z</time>
      </trkpt>
      <trkpt lat="44.84466" lon="6.1449">
        <ele>1919</ele>
        <time>2020-11-08T07:21:03Z</time>
      </trkpt>
      <trkpt lat="44.84554" lon="6.14542">
        <ele>1938</ele>
        <time>2020-11-08T07:23:10Z</time>
      </trkpt>
      <trkpt lat="44.84578" lon="6.14505">
        <ele>1931</ele>
        <time>2020-11-08T07:23:58Z</time>
      </trkpt>
      <trkpt lat="44.84602" lon="6.14546">
        <ele>1945</ele>
        <time>2020-11-08T07:24:48Z</time>
      </trkpt>
      <trkpt lat="44.84616" lon="6.1446">
        <ele>1932</ele>
        <time>2020-11-08T07:26:11Z</time>
      </trkpt>
      <trkpt lat="44.84721" lon="6.14396">
        <ele>1963</ele>
        <time>2020-11-08T07:28:44Z</time>
      </trkpt>
      <trkpt lat="44.84858" lon="6.14055">
        <ele>1970</ele>
        <time>2020-11-08T07:34:55Z</time>
      </trkpt>
      <trkpt lat="44.84954" lon="6.13924">
        <ele>2001</ele>
        <time>2020-11-08T07:37:53Z</time>
      </trkpt>
      <trkpt lat="44.84942" lon="6.14042">
        <ele>2024</ele>
        <time>2020-11-08T07:39:46Z</time>
      </trkpt>
      <trkpt lat="44.85065" lon="6.13868">
        <ele>2069</ele>
        <time>2020-11-08T07:43:38Z</time>
      </trkpt>
      <trkpt lat="44.85104" lon="6.13836">
        <ele>2092</ele>
        <time>2020-11-08T07:44:39Z</time>
      </trkpt>
      <trkpt lat="44.85065" lon="6.13803">
        <ele>2066</ele>
        <time>2020-11-08T07:45:39Z</time>
      </trkpt>
      <trkpt lat="44.85074" lon="6.1372">
        <ele>2064</ele>
        <time>2020-11-08T07:46:59Z</time>
      </trkpt>
      <trkpt lat="44.85045" lon="6.13722">
        <ele>2042</ele>
        <time>2020-11-08T07:47:37Z</time>
      </trkpt>
      <trkpt lat="44.85104" lon="6.13591">
        <ele>2077</ele>
        <time>2020-11-08T07:50:04Z</time>
      </trkpt>
      <trkpt lat="44.85048" lon="6.13555">
        <ele>2057</ele>
        <time>2020-11-08T07:51:26Z</time>
      </trkpt>
      <trkpt lat="44.85036" lon="6.13501">
        <ele>2071</ele>
        <time>2020-11-08T07:52:20Z</time>
      </trkpt>
      <trkpt lat="44.84978" lon="6.13464">
        <ele>2056</ele>
        <time>2020-11-08T07:53:45Z</time>
      </trkpt>
      <trkpt lat="44.8496" lon="6.13413">
        <ele>2060</ele>
        <time>2020-11-08T07:54:39Z</time>
      </trkpt>
      <trkpt lat="44.84916" lon="6.13355">
        <ele>2047</ele>
        <time>2020-11-08T07:55:59Z</time>
      </trkpt>
      <trkpt lat="44.84907" lon="6.13303">
        <ele>2049</ele>
        <time>2020-11-08T07:56:50Z</time>
      </trkpt>
      <trkpt lat="44.84818" lon="6.13177">
        <ele>2029</ele>
        <time>2020-11-08T07:59:38Z</time>
      </trkpt>
      <trkpt lat="44.84797" lon="6.13057">
        <ele>2048</ele>
        <time>2020-11-08T08:01:35Z</time>
      </trkpt>
      <trkpt lat="44.84773" lon="6.12973">
        <ele>2050</ele>
        <time>2020-11-08T08:03:01Z</time>
      </trkpt>
      <trkpt lat="44.84761" lon="6.12801">
        <ele>2057</ele>
        <time>2020-11-08T08:05:44Z</time>
      </trkpt>
      <trkpt lat="44.84723" lon="6.12675">
        <ele>2061</ele>
        <time>2020-11-08T08:07:54Z</time>
      </trkpt>
      <trkpt lat="44.8471" lon="6.12527">
        <ele>2077</ele>
        <time>2020-11-08T08:10:15Z</time>
      </trkpt>
      <trkpt lat="44.84644" lon="6.12441">
        <ele>2076</ele>
        <time>2020-11-08T08:12:15Z</time>
      </trkpt>
      <trkpt lat="44.84592" lon="6.12308">
        <ele>2095</ele>
        <time>2020-11-08T08:14:38Z</time>
      </trkpt>
      <trkpt lat="44.84424" lon="6.12419">
        <ele>2127</ele>
        <time>2020-11-08T08:18:46Z</time>
      </trkpt>
      <trkpt lat="44.84434" lon="6.12372">
        <ele>2143</ele>
        <time>2020-11-08T08:19:32Z</time>
      </trkpt>
      <trkpt lat="44.84411" lon="6.12402">
        <ele>2144</ele>
        <time>2020-11-08T08:20:14Z</time>
      </trkpt>
      <trkpt lat="44.84423" lon="6.12359">
        <ele>2158</ele>
        <time>2020-11-08T08:20:58Z</time>
      </trkpt>
      <trkpt lat="44.84389" lon="6.12395">
        <ele>2160</ele>
        <time>2020-11-08T08:21:55Z</time>
      </trkpt>
      <trkpt lat="44.84396" lon="6.12345">
        <ele>2180</ele>
        <time>2020-11-08T08:22:43Z</time>
      </trkpt>
      <trkpt lat="44.84378" lon="6.12359">
        <ele>2182</ele>
        <time>2020-11-08T08:23:10Z</time>
      </trkpt>
      <trkpt lat="44.84415" lon="6.12316">
        <ele>2183</ele>
        <time>2020-11-08T08:24:14Z</time>
      </trkpt>
      <trkpt lat="44.84367" lon="6.12337">
        <ele>2197</ele>
        <time>2020-11-08T08:25:21Z</time>
      </trkpt>
      <trkpt lat="44.84415" lon="6.12281">
        <ele>2195</ele>
        <time>2020-11-08T08:26:45Z</time>
      </trkpt>
      <trkpt lat="44.84382" lon="6.1226">
        <ele>2217</ele>
        <time>2020-11-08T08:27:33Z</time>
      </trkpt>
      <trkpt lat="44.84351" lon="6.12312">
        <ele>2212</ele>
        <time>2020-11-08T08:28:37Z</time>
      </trkpt>
      <trkpt lat="44.84348" lon="6.12272">
        <ele>2227</ele>
        <time>2020-11-08T08:29:15Z</time>
      </trkpt>
      <trkpt lat="44.84385" lon="6.12169">
        <ele>2240</ele>
        <time>2020-11-08T08:31:04Z</time>
      </trkpt>
      <trkpt lat="44.84425" lon="6.12181">
        <ele>2224</ele>
        <time>2020-11-08T08:31:59Z</time>
      </trkpt>
      <trkpt lat="44.84404" lon="6.12122">
        <ele>2249</ele>
        <time>2020-11-08T08:33:01Z</time>
      </trkpt>
      <trkpt lat="44.8435" lon="6.12145">
        <ele>2257</ele>
        <time>2020-11-08T08:34:17Z</time>
      </trkpt>
      <trkpt lat="44.84399" lon="6.1206">
        <ele>2275</ele>
        <time>2020-11-08T08:36:00Z</time>
      </trkpt>
      <trkpt lat="44.84441" lon="6.12048">
        <ele>2267</ele>
        <time>2020-11-08T08:36:58Z</time>
      </trkpt>
      <trkpt lat="44.84523" lon="6.11962">
        <ele>2289</ele>
        <time>2020-11-08T08:39:14Z</time>
      </trkpt>
      <trkpt lat="44.84619" lon="6.12005">
        <ele>2272</ele>
        <time>2020-11-08T08:41:28Z</time>
      </trkpt>
      <trkpt lat="44.84589" lon="6.11956">
        <ele>2293</ele>
        <time>2020-11-08T08:42:30Z</time>
      </trkpt>
      <trkpt lat="44.84707" lon="6.11926">
        <ele>2322</ele>
        <time>2020-11-08T08:45:10Z</time>
      </trkpt>
      <trkpt lat="44.8468" lon="6.11887">
        <ele>2332</ele>
        <time>2020-11-08T08:46:01Z</time>
      </trkpt>
      <trkpt lat="44.84609" lon="6.11892">
        <ele>2324</ele>
        <time>2020-11-08T08:47:36Z</time>
      </trkpt>
      <trkpt lat="44.84557" lon="6.11829">
        <ele>2350</ele>
        <time>2020-11-08T08:49:08Z</time>
      </trkpt>
      <trkpt lat="44.84478" lon="6.1181">
        <ele>2369</ele>
        <time>2020-11-08T08:50:54Z</time>
      </trkpt>
      <trkpt lat="44.84517" lon="6.11771">
        <ele>2377</ele>
        <time>2020-11-08T08:51:58Z</time>
      </trkpt>
      <trkpt lat="44.84628" lon="6.11761">
        <ele>2382</ele>
        <time>2020-11-08T08:54:27Z</time>
      </trkpt>
      <trkpt lat="44.84651" lon="6.11722">
        <ele>2397</ele>
        <time>2020-11-08T08:55:15Z</time>
      </trkpt>
      <trkpt lat="44.84609" lon="6.11735">
        <ele>2392</ele>
        <time>2020-11-08T08:56:12Z</time>
      </trkpt>
      <trkpt lat="44.84539" lon="6.11698">
        <ele>2409</ele>
        <time>2020-11-08T08:57:52Z</time>
      </trkpt>
      <trkpt lat="44.84577" lon="6.11587">
        <ele>2441</ele>
        <time>2020-11-08T08:59:48Z</time>
      </trkpt>
      <trkpt lat="44.84631" lon="6.11563">
        <ele>2459</ele>
        <time>2020-11-08T09:01:04Z</time>
      </trkpt>
      <trkpt lat="44.84747" lon="6.11641">
        <ele>2470</ele>
        <time>2020-11-08T09:03:56Z</time>
      </trkpt>
      <trkpt lat="44.84688" lon="6.11486">
        <ele>2499</ele>
        <time>2020-11-08T09:06:42Z</time>
      </trkpt>
      <trkpt lat="44.84683" lon="6.11435">
        <ele>2494</ele>
        <time>2020-11-08T09:07:31Z</time>
      </trkpt>
      <trkpt lat="44.84712" lon="6.11323">
        <ele>2442</ele>
        <time>2020-11-08T09:09:23Z</time>
      </trkpt>
      <trkpt lat="44.84756" lon="6.11351">
        <ele>2423</ele>
        <time>2020-11-08T09:10:28Z</time>
      </trkpt>
      <trkpt lat="44.84855" lon="6.11265">
        <ele>2351</ele>
        <time>2020-11-08T09:13:03Z</time>
      </trkpt>
      <trkpt lat="44.84993" lon="6.11179">
        <ele>2268</ele>
        <time>2020-11-08T09:16:24Z</time>
      </trkpt>
      <trkpt lat="44.85069" lon="6.1108">
        <ele>2209</ele>
        <time>2020-11-08T09:18:42Z</time>
      </trkpt>
      <trkpt lat="44.85129" lon="6.11042">
        <ele>2186</ele>
        <time>2020-11-08T09:20:10Z</time>
      </trkpt>
      <trkpt lat="44.85188" lon="6.10945">
        <ele>2150</ele>
        <time>2020-11-08T09:22:11Z</time>
      </trkpt>
      <trkpt lat="44.85313" lon="6.10892">
        <ele>2121</ele>
        <time>2020-11-08T09:25:05Z</time>
      </trkpt>
      <trkpt lat="44.85369" lon="6.10894">
        <ele>2111</ele>
        <time>2020-11-08T09:26:20Z</time>
      </trkpt>
      <trkpt lat="44.85667" lon="6.10739">
        <ele>2002</ele>
        <time>2020-11-08T09:33:24Z</time>
      </trkpt>
      <trkpt lat="44.85748" lon="6.10746">
        <ele>1980</ele>
        <time>2020-11-08T09:35:12Z</time>
      </trkpt>
      <trkpt lat="44.85842" lon="6.10741">
        <ele>1964</ele>
        <time>2020-11-08T09:37:18Z</time>
      </trkpt>
      <trkpt lat="44.85946" lon="6.10688">
        <ele>1943</ele>
        <time>2020-11-08T09:39:45Z</time>
      </trkpt>
      <trkpt lat="44.86025" lon="6.10722">
        <ele>1942</ele>
        <time>2020-11-08T09:41:35Z</time>
      </trkpt>
      <trkpt lat="44.86101" lon="6.10675">
        <ele>1896</ele>
        <time>2020-11-08T09:43:26Z</time>
      </trkpt>
      <trkpt lat="44.8621" lon="6.10716">
        <ele>1900</ele>
        <time>2020-11-08T09:45:57Z</time>
      </trkpt>
      <trkpt lat="44.86277" lon="6.10703">
        <ele>1890</ele>
        <time>2020-11-08T09:47:27Z</time>
      </trkpt>
      <trkpt lat="44.86349" lon="6.10681">
        <ele>1888</ele>
        <time>2020-11-08T09:49:05Z</time>
      </trkpt>
      <trkpt lat="44.86464" lon="6.10563">
        <ele>1871</ele>
        <time>2020-11-08T09:52:15Z</time>
      </trkpt>
      <trkpt lat="44.86481" lon="6.10415">
        <ele>1834</ele>
        <time>2020-11-08T09:54:37Z</time>
      </trkpt>
      <trkpt lat="44.86461" lon="6.10349">
        <ele>1802</ele>
        <time>2020-11-08T09:55:45Z</time>
      </trkpt>
      <trkpt lat="44.86406" lon="6.10344">
        <ele>1797</ele>
        <time>2020-11-08T09:56:58Z</time>
      </trkpt>
      <trkpt lat="44.86423" lon="6.10308">
        <ele>1781</ele>
        <time>2020-11-08T09:57:39Z</time>
      </trkpt>
      <trkpt lat="44.86394" lon="6.1029">
        <ele>1762</ele>
        <time>2020-11-08T09:58:22Z</time>
      </trkpt>
      <trkpt lat="44.86378" lon="6.10307">
        <ele>1764</ele>
        <time>2020-11-08T09:58:48Z</time>
      </trkpt>
      <trkpt lat="44.86348" lon="6.10314">
        <ele>1755</ele>
        <time>2020-11-08T09:59:29Z</time>
      </trkpt>
      <trkpt lat="44.86357" lon="6.10273">
        <ele>1737</ele>
        <time>2020-11-08T10:00:09Z</time>
      </trkpt>
      <trkpt lat="44.86318" lon="6.1029">
        <ele>1730</ele>
        <time>2020-11-08T10:01:04Z</time>
      </trkpt>
      <trkpt lat="44.86319" lon="6.10269">
        <ele>1720</ele>
        <time>2020-11-08T10:01:24Z</time>
      </trkpt>
      <trkpt lat="44.86276" lon="6.10299">
        <ele>1716</ele>
        <time>2020-11-08T10:02:28Z</time>
      </trkpt>
      <trkpt lat="44.86263" lon="6.10296">
        <ele>1709</ele>
        <time>2020-11-08T10:02:45Z</time>
      </trkpt>
      <trkpt lat="44.86282" lon="6.10243">
        <ele>1692</ele>
        <time>2020-11-08T10:03:42Z</time>
      </trkpt>
      <trkpt lat="44.86265" lon="6.10249">
        <ele>1688</ele>
        <time>2020-11-08T10:04:05Z</time>
      </trkpt>
      <trkpt lat="44.86267" lon="6.10229">
        <ele>1679</ele>
        <time>2020-11-08T10:04:24Z</time>
      </trkpt>
      <trkpt lat="44.86247" lon="6.10223">
        <ele>1669</ele>
        <time>2020-11-08T10:04:51Z</time>
      </trkpt>
      <trkpt lat="44.8626" lon="6.10204">
        <ele>1665</ele>
        <time>2020-11-08T10:05:16Z</time>
      </trkpt>
      <trkpt lat="44.86232" lon="6.10208">
        <ele>1657</ele>
        <time>2020-11-08T10:05:54Z</time>
      </trkpt>
      <trkpt lat="44.86271" lon="6.10088">
        <ele>1611</ele>
        <time>2020-11-08T10:07:59Z</time>
      </trkpt>
      <trkpt lat="44.86314" lon="6.10089">
        <ele>1630</ele>
        <time>2020-11-08T10:08:56Z</time>
      </trkpt>
      <trkpt lat="44.86325" lon="6.10047">
        <ele>1611</ele>
        <time>2020-11-08T10:09:38Z</time>
      </trkpt>
      <trkpt lat="44.86325" lon="6.1003">
        <ele>1601</ele>
        <time>2020-11-08T10:09:55Z</time>
      </trkpt>
      <trkpt lat="44.86283" lon="6.10038">
        <ele>1588</ele>
        <time>2020-11-08T10:10:51Z</time>
      </trkpt>
      <trkpt lat="44.86282" lon="6.1001">
        <ele>1572</ele>
        <time>2020-11-08T10:11:18Z</time>
      </trkpt>
      <trkpt lat="44.86316" lon="6.09949">
        <ele>1554</ele>
        <time>2020-11-08T10:12:31Z</time>
      </trkpt>
      <trkpt lat="44.86297" lon="6.09944">
        <ele>1544</ele>
        <time>2020-11-08T10:12:57Z</time>
      </trkpt>
      <trkpt lat="44.86417" lon="6.09731">
        <ele>1461</ele>
        <time>2020-11-08T10:17:14Z</time>
      </trkpt>
      <trkpt lat="44.86501" lon="6.09709">
        <ele>1433</ele>
        <time>2020-11-08T10:19:08Z</time>
      </trkpt>
      <trkpt lat="44.86559" lon="6.09658">
        <ele>1368</ele>
        <time>2020-11-08T10:20:39Z</time>
      </trkpt>
      <trkpt lat="44.86609" lon="6.09754">
        <ele>1384</ele>
        <time>2020-11-08T10:22:32Z</time>
      </trkpt>
      <trkpt lat="44.86698" lon="6.09778">
        <ele>1346</ele>
        <time>2020-11-08T10:24:33Z</time>
      </trkpt>
      <trkpt lat="44.86627" lon="6.09658">
        <ele>1335</ele>
        <time>2020-11-08T10:27:01Z</time>
      </trkpt>
      <trkpt lat="44.86724" lon="6.09465">
        <ele>1289</ele>
        <time>2020-11-08T10:30:45Z</time>
      </trkpt>
      <trkpt lat="44.86787" lon="6.09418">
        <ele>1275</ele>
        <time>2020-11-08T10:32:20Z</time>
      </trkpt>
      <trkpt lat="44.86828" lon="6.09274">
        <ele>1268</ele>
        <time>2020-11-08T10:34:46Z</time>
      </trkpt>
      <trkpt lat="44.86867" lon="6.09205">
        <ele>1271</ele>
        <time>2020-11-08T10:36:10Z</time>
      </trkpt>
      <trkpt lat="44.87036" lon="6.09186">
        <ele>1304</ele>
        <time>2020-11-08T10:39:56Z</time>
      </trkpt>
      <trkpt lat="44.87126" lon="6.09257">
        <ele>1323</ele>
        <time>2020-11-08T10:42:14Z</time>
      </trkpt>
      <trkpt lat="44.87281" lon="6.09317">
        <ele>1359</ele>
        <time>2020-11-08T10:45:48Z</time>
      </trkpt>
      <trkpt lat="44.87358" lon="6.0928">
        <ele>1387</ele>
        <time>2020-11-08T10:47:37Z</time>
      </trkpt>
      <trkpt lat="44.87419" lon="6.09269">
        <ele>1407</ele>
        <time>2020-11-08T10:48:59Z</time>
      </trkpt>
      <trkpt lat="44.87755" lon="6.09059">
        <ele>1501</ele>
        <time>2020-11-08T10:57:09Z</time>
      </trkpt>
      <trkpt lat="44.87968" lon="6.08982">
        <ele>1575</ele>
        <time>2020-11-08T11:02:03Z</time>
      </trkpt>
      <trkpt lat="44.88265" lon="6.08825">
        <ele>1667</ele>
        <time>2020-11-08T11:09:06Z</time>
      </trkpt>
      <trkpt lat="44.88362" lon="6.08782">
        <ele>1714</ele>
        <time>2020-11-08T11:11:22Z</time>
      </trkpt>
      <trkpt lat="44.8842" lon="6.08791">
        <ele>1735</ele>
        <time>2020-11-08T11:12:39Z</time>
      </trkpt>
      <trkpt lat="44.88465" lon="6.08716">
        <ele>1762</ele>
        <time>2020-11-08T11:14:12Z</time>
      </trkpt>
      <trkpt lat="44.88589" lon="6.08645">
        <ele>1826</ele>
        <time>2020-11-08T11:17:11Z</time>
      </trkpt>
      <trkpt lat="44.88722" lon="6.08533">
        <ele>1924</ele>
        <time>2020-11-08T11:20:38Z</time>
      </trkpt>
      <trkpt lat="44.88852" lon="6.08559">
        <ele>1993</ele>
        <time>2020-11-08T11:23:33Z</time>
      </trkpt>
      <trkpt lat="44.88855" lon="6.08478">
        <ele>2001</ele>
        <time>2020-11-08T11:24:50Z</time>
      </trkpt>
      <trkpt lat="44.88836" lon="6.08392">
        <ele>2017</ele>
        <time>2020-11-08T11:26:15Z</time>
      </trkpt>
      <trkpt lat="44.88853" lon="6.08207">
        <ele>2096</ele>
        <time>2020-11-08T11:29:11Z</time>
      </trkpt>
      <trkpt lat="44.88899" lon="6.08167">
        <ele>2121</ele>
        <time>2020-11-08T11:30:23Z</time>
      </trkpt>
      <trkpt lat="44.88949" lon="6.08263">
        <ele>2113</ele>
        <time>2020-11-08T11:32:16Z</time>
      </trkpt>
      <trkpt lat="44.88953" lon="6.08213">
        <ele>2129</ele>
        <time>2020-11-08T11:33:03Z</time>
      </trkpt>
      <trkpt lat="44.88979" lon="6.08232">
        <ele>2136</ele>
        <time>2020-11-08T11:33:42Z</time>
      </trkpt>
      <trkpt lat="44.88985" lon="6.08202">
        <ele>2147</ele>
        <time>2020-11-08T11:34:12Z</time>
      </trkpt>
      <trkpt lat="44.89002" lon="6.08223">
        <ele>2150</ele>
        <time>2020-11-08T11:34:42Z</time>
      </trkpt>
      <trkpt lat="44.89004" lon="6.0817">
        <ele>2165</ele>
        <time>2020-11-08T11:35:32Z</time>
      </trkpt>
      <trkpt lat="44.89025" lon="6.08205">
        <ele>2166</ele>
        <time>2020-11-08T11:36:16Z</time>
      </trkpt>
      <trkpt lat="44.89028" lon="6.08176">
        <ele>2175</ele>
        <time>2020-11-08T11:36:43Z</time>
      </trkpt>
      <trkpt lat="44.8904" lon="6.08197">
        <ele>2176</ele>
        <time>2020-11-08T11:37:09Z</time>
      </trkpt>
      <trkpt lat="44.89044" lon="6.08165">
        <ele>2185</ele>
        <time>2020-11-08T11:37:40Z</time>
      </trkpt>
      <trkpt lat="44.8906" lon="6.08191">
        <ele>2188</ele>
        <time>2020-11-08T11:38:12Z</time>
      </trkpt>
      <trkpt lat="44.89062" lon="6.08164">
        <ele>2194</ele>
        <time>2020-11-08T11:38:38Z</time>
      </trkpt>
      <trkpt lat="44.89073" lon="6.08192">
        <ele>2194</ele>
        <time>2020-11-08T11:39:08Z</time>
      </trkpt>
      <trkpt lat="44.89086" lon="6.08129">
        <ele>2211</ele>
        <time>2020-11-08T11:40:10Z</time>
      </trkpt>
      <trkpt lat="44.89102" lon="6.08164">
        <ele>2216</ele>
        <time>2020-11-08T11:40:49Z</time>
      </trkpt>
      <trkpt lat="44.89107" lon="6.08118">
        <ele>2226</ele>
        <time>2020-11-08T11:41:33Z</time>
      </trkpt>
      <trkpt lat="44.89124" lon="6.08169">
        <ele>2228</ele>
        <time>2020-11-08T11:42:27Z</time>
      </trkpt>
      <trkpt lat="44.8914" lon="6.08049">
        <ele>2257</ele>
        <time>2020-11-08T11:44:22Z</time>
      </trkpt>
      <trkpt lat="44.89156" lon="6.08083">
        <ele>2260</ele>
        <time>2020-11-08T11:45:01Z</time>
      </trkpt>
      <trkpt lat="44.89168" lon="6.08012">
        <ele>2275</ele>
        <time>2020-11-08T11:46:10Z</time>
      </trkpt>
      <trkpt lat="44.89227" lon="6.07993">
        <ele>2296</ele>
        <time>2020-11-08T11:47:31Z</time>
      </trkpt>
      <trkpt lat="44.89274" lon="6.07952">
        <ele>2295</ele>
        <time>2020-11-08T11:48:44Z</time>
      </trkpt>
      <trkpt lat="44.8927" lon="6.07864">
        <ele>2270</ele>
        <time>2020-11-08T11:50:08Z</time>
      </trkpt>
      <trkpt lat="44.89405" lon="6.07918">
        <ele>2249</ele>
        <time>2020-11-08T11:53:15Z</time>
      </trkpt>
      <trkpt lat="44.89353" lon="6.078">
        <ele>2214</ele>
        <time>2020-11-08T11:55:26Z</time>
      </trkpt>
      <trkpt lat="44.89657" lon="6.08014">
        <ele>2160</ele>
        <time>2020-11-08T12:03:00Z</time>
      </trkpt>
      <trkpt lat="44.89625" lon="6.07922">
        <ele>2132</ele>
        <time>2020-11-08T12:04:36Z</time>
      </trkpt>
      <trkpt lat="44.89653" lon="6.07936">
        <ele>2129</ele>
        <time>2020-11-08T12:05:16Z</time>
      </trkpt>
      <trkpt lat="44.89618" lon="6.07895">
        <ele>2119</ele>
        <time>2020-11-08T12:06:17Z</time>
      </trkpt>
      <trkpt lat="44.89735" lon="6.07947">
        <ele>2094</ele>
        <time>2020-11-08T12:09:00Z</time>
      </trkpt>
      <trkpt lat="44.89664" lon="6.07831">
        <ele>2056</ele>
        <time>2020-11-08T12:11:25Z</time>
      </trkpt>
      <trkpt lat="44.89707" lon="6.07861">
        <ele>2061</ele>
        <time>2020-11-08T12:12:29Z</time>
      </trkpt>
      <trkpt lat="44.89678" lon="6.07805">
        <ele>2033</ele>
        <time>2020-11-08T12:13:35Z</time>
      </trkpt>
      <trkpt lat="44.89773" lon="6.07858">
        <ele>2026</ele>
        <time>2020-11-08T12:15:51Z</time>
      </trkpt>
      <trkpt lat="44.89729" lon="6.07786">
        <ele>2007</ele>
        <time>2020-11-08T12:17:21Z</time>
      </trkpt>
      <trkpt lat="44.89813" lon="6.07859">
        <ele>1997</ele>
        <time>2020-11-08T12:19:33Z</time>
      </trkpt>
      <trkpt lat="44.89777" lon="6.0775">
        <ele>1967</ele>
        <time>2020-11-08T12:21:27Z</time>
      </trkpt>
      <trkpt lat="44.89814" lon="6.07771">
        <ele>1957</ele>
        <time>2020-11-08T12:22:20Z</time>
      </trkpt>
      <trkpt lat="44.89799" lon="6.07729">
        <ele>1944</ele>
        <time>2020-11-08T12:23:04Z</time>
      </trkpt>
      <trkpt lat="44.89903" lon="6.0784">
        <ele>1930</ele>
        <time>2020-11-08T12:25:58Z</time>
      </trkpt>
      <trkpt lat="44.89992" lon="6.07898">
        <ele>1898</ele>
        <time>2020-11-08T12:28:09Z</time>
      </trkpt>
      <trkpt lat="44.90063" lon="6.07954">
        <ele>1872</ele>
        <time>2020-11-08T12:29:58Z</time>
      </trkpt>
      <trkpt lat="44.90145" lon="6.0813">
        <ele>1854</ele>
        <time>2020-11-08T12:33:17Z</time>
      </trkpt>
      <trkpt lat="44.90107" lon="6.08186">
        <ele>1871</ele>
        <time>2020-11-08T12:34:30Z</time>
      </trkpt>
      <trkpt lat="44.90119" lon="6.08237">
        <ele>1862</ele>
        <time>2020-11-08T12:35:21Z</time>
      </trkpt>
      <trkpt lat="44.90192" lon="6.08252">
        <ele>1823</ele>
        <time>2020-11-08T12:36:59Z</time>
      </trkpt>
      <trkpt lat="44.90218" lon="6.08327">
        <ele>1831</ele>
        <time>2020-11-08T12:38:18Z</time>
      </trkpt>
      <trkpt lat="44.90279" lon="6.0834">
        <ele>1802</ele>
        <time>2020-11-08T12:39:40Z</time>
      </trkpt>
      <trkpt lat="44.90358" lon="6.08392">
        <ele>1782</ele>
        <time>2020-11-08T12:41:37Z</time>
      </trkpt>
      <trkpt lat="44.90315" lon="6.08282">
        <ele>1765</ele>
        <time>2020-11-08T12:43:36Z</time>
      </trkpt>
      <trkpt lat="44.90369" lon="6.08278">
        <ele>1737</ele>
        <time>2020-11-08T12:44:48Z</time>
      </trkpt>
      <trkpt lat="44.90344" lon="6.08169">
        <ele>1712</ele>
        <time>2020-11-08T12:46:36Z</time>
      </trkpt>
      <trkpt lat="44.90411" lon="6.08186">
        <ele>1685</ele>
        <time>2020-11-08T12:48:07Z</time>
      </trkpt>
      <trkpt lat="44.90393" lon="6.08111">
        <ele>1667</ele>
        <time>2020-11-08T12:49:22Z</time>
      </trkpt>
      <trkpt lat="44.90435" lon="6.08111">
        <ele>1649</ele>
        <time>2020-11-08T12:50:18Z</time>
      </trkpt>
      <trkpt lat="44.90413" lon="6.08064">
        <ele>1643</ele>
        <time>2020-11-08T12:51:11Z</time>
      </trkpt>
      <trkpt lat="44.90464" lon="6.0807">
        <ele>1625</ele>
        <time>2020-11-08T12:52:19Z</time>
      </trkpt>
      <trkpt lat="44.9046" lon="6.08025">
        <ele>1614</ele>
        <time>2020-11-08T12:53:02Z</time>
      </trkpt>
      <trkpt lat="44.90499" lon="6.08046">
        <ele>1606</ele>
        <time>2020-11-08T12:53:58Z</time>
      </trkpt>
      <trkpt lat="44.90479" lon="6.07918">
        <ele>1584</ele>
        <time>2020-11-08T12:56:02Z</time>
      </trkpt>
      <trkpt lat="44.90445" lon="6.07877">
        <ele>1585</ele>
        <time>2020-11-08T12:57:01Z</time>
      </trkpt>
      <trkpt lat="44.90375" lon="6.07774">
        <ele>1568</ele>
        <time>2020-11-08T12:59:16Z</time>
      </trkpt>
      <trkpt lat="44.90437" lon="6.07767">
        <ele>1552</ele>
        <time>2020-11-08T13:00:39Z</time>
      </trkpt>
      <trkpt lat="44.90425" lon="6.0772">
        <ele>1537</ele>
        <time>2020-11-08T13:01:27Z</time>
      </trkpt>
      <trkpt lat="44.90481" lon="6.07688">
        <ele>1523</ele>
        <time>2020-11-08T13:02:47Z</time>
      </trkpt>
      <trkpt lat="44.90545" lon="6.07609">
        <ele>1499</ele>
        <time>2020-11-08T13:04:41Z</time>
      </trkpt>
      <trkpt lat="44.90642" lon="6.07671">
        <ele>1506</ele>
        <time>2020-11-08T13:07:03Z</time>
      </trkpt>
      <trkpt lat="44.90697" lon="6.07765">
        <ele>1525</ele>
        <time>2020-11-08T13:08:58Z</time>
      </trkpt>
      <trkpt lat="44.9075" lon="6.07791">
        <ele>1530</ele>
        <time>2020-11-08T13:10:13Z</time>
      </trkpt>
      <trkpt lat="44.90802" lon="6.0787">
        <ele>1546</ele>
        <time>2020-11-08T13:11:55Z</time>
      </trkpt>
      <trkpt lat="44.90791" lon="6.07982">
        <ele>1564</ele>
        <time>2020-11-08T13:13:42Z</time>
      </trkpt>
      <trkpt lat="44.90837" lon="6.08033">
        <ele>1576</ele>
        <time>2020-11-08T13:15:00Z</time>
      </trkpt>
      <trkpt lat="44.90855" lon="6.08119">
        <ele>1594</ele>
        <time>2020-11-08T13:16:24Z</time>
      </trkpt>
      <trkpt lat="44.90776" lon="6.08156">
        <ele>1596</ele>
        <time>2020-11-08T13:18:15Z</time>
      </trkpt>
      <trkpt lat="44.90858" lon="6.08218">
        <ele>1612</ele>
        <time>2020-11-08T13:20:20Z</time>
      </trkpt>
      <trkpt lat="44.90992" lon="6.08411">
        <ele>1642</ele>
        <time>2020-11-08T13:24:35Z</time>
      </trkpt>
      <trkpt lat="44.91037" lon="6.08381">
        <ele>1647</ele>
        <time>2020-11-08T13:25:41Z</time>
      </trkpt>
      <trkpt lat="44.91011" lon="6.08323">
        <ele>1640</ele>
        <time>2020-11-08T13:26:46Z</time>
      </trkpt>
      <trkpt lat="44.91037" lon="6.08274">
        <ele>1657</ele>
        <time>2020-11-08T13:27:44Z</time>
      </trkpt>
      <trkpt lat="44.91142" lon="6.08398">
        <ele>1678</ele>
        <time>2020-11-08T13:30:47Z</time>
      </trkpt>
      <trkpt lat="44.9134" lon="6.08458">
        <ele>1734</ele>
        <time>2020-11-08T13:35:17Z</time>
      </trkpt>
      <trkpt lat="44.91305" lon="6.08293">
        <ele>1778</ele>
        <time>2020-11-08T13:38:00Z</time>
      </trkpt>
      <trkpt lat="44.91528" lon="6.0828">
        <ele>1861</ele>
        <time>2020-11-08T13:42:58Z</time>
      </trkpt>
      <trkpt lat="44.91761" lon="6.08428">
        <ele>1921</ele>
        <time>2020-11-08T13:48:39Z</time>
      </trkpt>
      <trkpt lat="44.91792" lon="6.08471">
        <ele>1917</ele>
        <time>2020-11-08T13:49:37Z</time>
      </trkpt>
      <trkpt lat="44.91808" lon="6.08403">
        <ele>1950</ele>
        <time>2020-11-08T13:50:44Z</time>
      </trkpt>
      <trkpt lat="44.91827" lon="6.08458">
        <ele>1939</ele>
        <time>2020-11-08T13:51:42Z</time>
      </trkpt>
      <trkpt lat="44.91909" lon="6.08469">
        <ele>1958</ele>
        <time>2020-11-08T13:53:32Z</time>
      </trkpt>
      <trkpt lat="44.91905" lon="6.08368">
        <ele>1998</ele>
        <time>2020-11-08T13:55:08Z</time>
      </trkpt>
      <trkpt lat="44.91949" lon="6.08392">
        <ele>2002</ele>
        <time>2020-11-08T13:56:11Z</time>
      </trkpt>
      <trkpt lat="44.92004" lon="6.08342">
        <ele>2036</ele>
        <time>2020-11-08T13:57:38Z</time>
      </trkpt>
      <trkpt lat="44.92187" lon="6.0837">
        <ele>2085</ele>
        <time>2020-11-08T14:01:44Z</time>
      </trkpt>
      <trkpt lat="44.92232" lon="6.08428">
        <ele>2092</ele>
        <time>2020-11-08T14:03:05Z</time>
      </trkpt>
      <trkpt lat="44.9237" lon="6.08497">
        <ele>2123</ele>
        <time>2020-11-08T14:06:20Z</time>
      </trkpt>
      <trkpt lat="44.92513" lon="6.08521">
        <ele>2170</ele>
        <time>2020-11-08T14:09:32Z</time>
      </trkpt>
      <trkpt lat="44.92706" lon="6.08615">
        <ele>2226</ele>
        <time>2020-11-08T14:14:05Z</time>
      </trkpt>
      <trkpt lat="44.92935" lon="6.0869">
        <ele>2349</ele>
        <time>2020-11-08T14:19:18Z</time>
      </trkpt>
      <trkpt lat="44.93278" lon="6.08842">
        <ele>2602</ele>
        <time>2020-11-08T14:27:18Z</time>
      </trkpt>
      <trkpt lat="44.93345" lon="6.08733">
        <ele>2609</ele>
        <time>2020-11-08T14:29:35Z</time>
      </trkpt>
      <trkpt lat="44.9333" lon="6.088">
        <ele>2595</ele>
        <time>2020-11-08T14:30:41Z</time>
      </trkpt>
      <trkpt lat="44.93363" lon="6.08853">
        <ele>2562</ele>
        <time>2020-11-08T14:31:48Z</time>
      </trkpt>
      <trkpt lat="44.93439" lon="6.08791">
        <ele>2546</ele>
        <time>2020-11-08T14:33:45Z</time>
      </trkpt>
      <trkpt lat="44.93436" lon="6.08855">
        <ele>2525</ele>
        <time>2020-11-08T14:34:45Z</time>
      </trkpt>
      <trkpt lat="44.93508" lon="6.08806">
        <ele>2522</ele>
        <time>2020-11-08T14:36:32Z</time>
      </trkpt>
      <trkpt lat="44.93617" lon="6.08875">
        <ele>2460</ele>
        <time>2020-11-08T14:39:11Z</time>
      </trkpt>
      <trkpt lat="44.93772" lon="6.0901">
        <ele>2378</ele>
        <time>2020-11-08T14:43:14Z</time>
      </trkpt>
      <trkpt lat="44.94027" lon="6.09016">
        <ele>2303</ele>
        <time>2020-11-08T14:48:55Z</time>
      </trkpt>
      <trkpt lat="44.94243" lon="6.09113">
        <ele>2260</ele>
        <time>2020-11-08T14:53:57Z</time>
      </trkpt>
      <trkpt lat="44.94325" lon="6.09207">
        <ele>2220</ele>
        <time>2020-11-08T14:56:18Z</time>
      </trkpt>
      <trkpt lat="44.94512" lon="6.09244">
        <ele>2171</ele>
        <time>2020-11-08T15:00:30Z</time>
      </trkpt>
      <trkpt lat="44.94604" lon="6.09312">
        <ele>2146</ele>
        <time>2020-11-08T15:02:49Z</time>
      </trkpt>
      <trkpt lat="44.94818" lon="6.09394">
        <ele>2119</ele>
        <time>2020-11-08T15:07:45Z</time>
      </trkpt>
      <trkpt lat="44.95086" lon="6.09516">
        <ele>2105</ele>
        <time>2020-11-08T15:14:00Z</time>
      </trkpt>
      <trkpt lat="44.95266" lon="6.09703">
        <ele>2113</ele>
        <time>2020-11-08T15:18:58Z</time>
      </trkpt>
      <trkpt lat="44.95332" lon="6.09722">
        <ele>2127</ele>
        <time>2020-11-08T15:20:28Z</time>
      </trkpt>
      <trkpt lat="44.95405" lon="6.0972">
        <ele>2137</ele>
        <time>2020-11-08T15:22:06Z</time>
      </trkpt>
      <trkpt lat="44.95481" lon="6.09761">
        <ele>2144</ele>
        <time>2020-11-08T15:23:54Z</time>
      </trkpt>
      <trkpt lat="44.95505" lon="6.09825">
        <ele>2144</ele>
        <time>2020-11-08T15:25:03Z</time>
      </trkpt>
      <trkpt lat="44.95616" lon="6.09911">
        <ele>2132</ele>
        <time>2020-11-08T15:27:52Z</time>
      </trkpt>
      <trkpt lat="44.95594" lon="6.09995">
        <ele>2135</ele>
        <time>2020-11-08T15:29:16Z</time>
      </trkpt>
      <trkpt lat="44.95605" lon="6.10089">
        <ele>2120</ele>
        <time>2020-11-08T15:30:46Z</time>
      </trkpt>
      <trkpt lat="44.95581" lon="6.10132">
        <ele>2122</ele>
        <time>2020-11-08T15:31:38Z</time>
      </trkpt>
      <trkpt lat="44.956" lon="6.10162">
        <ele>2111</ele>
        <time>2020-11-08T15:32:16Z</time>
      </trkpt>
      <trkpt lat="44.95663" lon="6.1013">
        <ele>2094</ele>
        <time>2020-11-08T15:33:45Z</time>
      </trkpt>
      <trkpt lat="44.95657" lon="6.10186">
        <ele>2087</ele>
        <time>2020-11-08T15:34:39Z</time>
      </trkpt>
      <trkpt lat="44.95723" lon="6.10158">
        <ele>2041</ele>
        <time>2020-11-08T15:36:11Z</time>
      </trkpt>
      <trkpt lat="44.95787" lon="6.10201">
        <ele>1995</ele>
        <time>2020-11-08T15:37:45Z</time>
      </trkpt>
      <trkpt lat="44.95778" lon="6.10248">
        <ele>2002</ele>
        <time>2020-11-08T15:38:31Z</time>
      </trkpt>
      <trkpt lat="44.95834" lon="6.10257">
        <ele>1968</ele>
        <time>2020-11-08T15:39:46Z</time>
      </trkpt>
      <trkpt lat="44.95889" lon="6.10162">
        <ele>1932</ele>
        <time>2020-11-08T15:41:42Z</time>
      </trkpt>
      <trkpt lat="44.95875" lon="6.10123">
        <ele>1928</ele>
        <time>2020-11-08T15:42:24Z</time>
      </trkpt>
      <trkpt lat="44.9589" lon="6.10085">
        <ele>1909</ele>
        <time>2020-11-08T15:43:05Z</time>
      </trkpt>
      <trkpt lat="44.95919" lon="6.10027">
        <ele>1871</ele>
        <time>2020-11-08T15:44:12Z</time>
      </trkpt>
      <trkpt lat="44.95904" lon="6.09969">
        <ele>1862</ele>
        <time>2020-11-08T15:45:10Z</time>
      </trkpt>
      <trkpt lat="44.95956" lon="6.0992">
        <ele>1826</ele>
        <time>2020-11-08T15:46:33Z</time>
      </trkpt>
      <trkpt lat="44.96103" lon="6.09982">
        <ele>1803</ele>
        <time>2020-11-08T15:49:58Z</time>
      </trkpt>
      <trkpt lat="44.96206" lon="6.10044">
        <ele>1795</ele>
        <time>2020-11-08T15:52:28Z</time>
      </trkpt>
      <trkpt lat="44.96314" lon="6.10128">
        <ele>1773</ele>
        <time>2020-11-08T15:55:12Z</time>
      </trkpt>
      <trkpt lat="44.96425" lon="6.10325">
        <ele>1707</ele>
        <time>2020-11-08T15:59:10Z</time>
      </trkpt>
      <trkpt lat="44.96592" lon="6.10362">
        <ele>1689</ele>
        <time>2020-11-08T16:02:55Z</time>
      </trkpt>
      <trkpt lat="44.96788" lon="6.10574">
        <ele>1640</ele>
        <time>2020-11-08T16:08:25Z</time>
      </trkpt>
      <trkpt lat="44.96779" lon="6.10593">
        <ele>1634</ele>
        <time>2020-11-08T16:08:46Z</time>
      </trkpt>
      <trkpt lat="44.96848" lon="6.10731">
        <ele>1600</ele>
        <time>2020-11-08T16:11:26Z</time>
      </trkpt>
      <trkpt lat="44.96886" lon="6.1084">
        <ele>1581</ele>
        <time>2020-11-08T16:13:21Z</time>
      </trkpt>
      <trkpt lat="44.96893" lon="6.11055">
        <ele>1537</ele>
        <time>2020-11-08T16:16:44Z</time>
      </trkpt>
      <trkpt lat="44.96923" lon="6.11113">
        <ele>1518</ele>
        <time>2020-11-08T16:17:52Z</time>
      </trkpt>
      <trkpt lat="44.969" lon="6.11158">
        <ele>1514</ele>
        <time>2020-11-08T16:18:44Z</time>
      </trkpt>
      <trkpt lat="44.96991" lon="6.11353">
        <ele>1437</ele>
        <time>2020-11-08T16:22:25Z</time>
      </trkpt>
      <trkpt lat="44.96967" lon="6.11389">
        <ele>1429</ele>
        <time>2020-11-08T16:23:11Z</time>
      </trkpt>
      <trkpt lat="44.97006" lon="6.11484">
        <ele>1390</ele>
        <time>2020-11-08T16:24:55Z</time>
      </trkpt>
      <trkpt lat="44.97087" lon="6.11529">
        <ele>1368</ele>
        <time>2020-11-08T16:26:51Z</time>
      </trkpt>
      <trkpt lat="44.97097" lon="6.1157">
        <ele>1348</ele>
        <time>2020-11-08T16:27:32Z</time>
      </trkpt>
      <trkpt lat="44.97239" lon="6.11718">
        <ele>1294</ele>
        <time>2020-11-08T16:31:28Z</time>
      </trkpt>
      <trkpt lat="44.97231" lon="6.1175">
        <ele>1283</ele>
        <time>2020-11-08T16:32:00Z</time>
      </trkpt>
      <trkpt lat="44.97251" lon="6.11823">
        <ele>1270</ele>
        <time>2020-11-08T16:33:14Z</time>
      </trkpt>
      <trkpt lat="44.97345" lon="6.11855">
        <ele>1275</ele>
        <time>2020-11-08T16:35:23Z</time>
      </trkpt>
      <trkpt lat="44.97372" lon="6.11898">
        <ele>1264</ele>
        <time>2020-11-08T16:36:17Z</time>
      </trkpt>
      <trkpt lat="44.97475" lon="6.1193">
        <ele>1247</ele>
        <time>2020-11-08T16:38:38Z</time>
      </trkpt>
      <trkpt lat="44.97535" lon="6.11904">
        <ele>1255</ele>
        <time>2020-11-08T16:40:01Z</time>
      </trkpt>
      <trkpt lat="44.97683" lon="6.11977">
        <ele>1227</ele>
        <time>2020-11-08T16:43:31Z</time>
      </trkpt>
      <trkpt lat="44.97817" lon="6.11913">
        <ele>1217</ele>
        <time>2020-11-08T16:46:39Z</time>
      </trkpt>
      <trkpt lat="44.97861" lon="6.12005">
        <ele>1158</ele>
        <time>2020-11-08T16:48:24Z</time>
      </trkpt>
      <trkpt lat="44.98016" lon="6.12074">
        <ele>1047</ele>
        <time>2020-11-08T16:52:01Z</time>
      </trkpt>
      <trkpt lat="44.98066" lon="6.12068">
        <ele>1030</ele>
        <time>2020-11-08T16:53:08Z</time>
      </trkpt>
      <trkpt lat="44.98225" lon="6.11995">
        <ele>983</ele>
        <time>2020-11-08T16:56:51Z</time>
      </trkpt>
      <trkpt lat="44.98281" lon="6.12025">
        <ele>963</ele>
        <time>2020-11-08T16:58:11Z</time>
      </trkpt>
      <trkpt lat="44.98277" lon="6.11982">
        <ele>965</ele>
        <time>2020-11-08T16:58:52Z</time>
      </trkpt>
      <trkpt lat="44.98371" lon="6.11844">
        <ele>955</ele>
        <time>2020-11-08T17:01:53Z</time>
      </trkpt>
      <trkpt lat="44.98404" lon="6.11746">
        <ele>949</ele>
        <time>2020-11-08T17:03:35Z</time>
      </trkpt>
      <trkpt lat="44.98511" lon="6.11559">
        <ele>947</ele>
        <time>2020-11-08T17:07:22Z</time>
      </trkpt>
      <trkpt lat="44.98608" lon="6.11299">
        <ele>954</ele>
        <time>2020-11-08T17:12:00Z</time>
      </trkpt>
      <trkpt lat="44.98658" lon="6.10973">
        <ele>940</ele>
        <time>2020-11-08T17:17:14Z</time>
      </trkpt>
      <trkpt lat="44.98637" lon="6.10737">
        <ele>959</ele>
        <time>2020-11-08T17:20:59Z</time>
      </trkpt>
      <trkpt lat="44.98627" lon="6.10591">
        <ele>964</ele>
        <time>2020-11-08T17:23:17Z</time>
      </trkpt>
      <trkpt lat="44.98647" lon="6.10525">
        <ele>947</ele>
        <time>2020-11-08T17:24:25Z</time>
      </trkpt>
      <trkpt lat="44.98895" lon="6.10192">
        <ele>914</ele>
        <time>2020-11-08T17:32:02Z</time>
      </trkpt>
      <trkpt lat="44.98895" lon="6.10091">
        <ele>915</ele>
        <time>2020-11-08T17:33:37Z</time>
      </trkpt>
      <trkpt lat="44.98825" lon="6.09879">
        <ele>924</ele>
        <time>2020-11-08T17:37:18Z</time>
      </trkpt>
      <trkpt lat="44.98819" lon="6.0978">
        <ele>927</ele>
        <time>2020-11-08T17:38:51Z</time>
      </trkpt>
      <trkpt lat="44.98863" lon="6.09679">
        <ele>909</ele>
        <time>2020-11-08T17:40:43Z</time>
      </trkpt>
      <trkpt lat="44.98846" lon="6.09321">
        <ele>911</ele>
        <time>2020-11-08T17:46:22Z</time>
      </trkpt>
      <trkpt lat="44.98901" lon="6.09166">
        <ele>911</ele>
        <time>2020-11-08T17:49:06Z</time>
      </trkpt>
      <trkpt lat="44.98887" lon="6.09044">
        <ele>926</ele>
        <time>2020-11-08T17:51:02Z</time>
      </trkpt>
      <trkpt lat="44.98955" lon="6.08733">
        <ele>929</ele>
        <time>2020-11-08T17:56:10Z</time>
      </trkpt>
      <trkpt lat="44.98846" lon="6.0836">
        <ele>965</ele>
        <time>2020-11-08T18:02:31Z</time>
      </trkpt>
      <trkpt lat="44.98946" lon="6.08287">
        <ele>952</ele>
        <time>2020-11-08T18:05:01Z</time>
      </trkpt>
      <trkpt lat="44.98957" lon="6.08327">
        <ele>942</ele>
        <time>2020-11-08T18:05:41Z</time>
      </trkpt>
      <trkpt lat="44.99194" lon="6.08021">
        <ele>908</ele>
        <time>2020-11-08T18:12:49Z</time>
      </trkpt>
      <trkpt lat="44.99219" lon="6.07948">
        <ele>901</ele>
        <time>2020-11-08T18:14:06Z</time>
      </trkpt>
      <trkpt lat="44.99259" lon="6.07973">
        <ele>886</ele>
        <time>2020-11-08T18:15:04Z</time>
      </trkpt>
      <trkpt lat="44.99266" lon="6.07851">
        <ele>881</ele>
        <time>2020-11-08T18:17:00Z</time>
      </trkpt>
      <trkpt lat="44.99296" lon="6.07909">
        <ele>874</ele>
        <time>2020-11-08T18:18:08Z</time>
      </trkpt>
      <trkpt lat="44.9931" lon="6.08049">
        <ele>862</ele>
        <time>2020-11-08T18:20:21Z</time>
      </trkpt>
      <trkpt lat="44.99353" lon="6.07982">
        <ele>859</ele>
        <time>2020-11-08T18:21:47Z</time>
      </trkpt>
      <trkpt lat="44.9942" lon="6.07297">
        <ele>843</ele>
        <time>2020-11-08T18:32:39Z</time>
      </trkpt>
      <trkpt lat="44.99667" lon="6.07094">
        <ele>806</ele>
        <time>2020-11-08T18:39:00Z</time>
      </trkpt>
      <trkpt lat="44.99712" lon="6.06995">
        <ele>808</ele>
        <time>2020-11-08T18:40:51Z</time>
      </trkpt>
      <trkpt lat="44.99834" lon="6.06909">
        <ele>810</ele>
        <time>2020-11-08T18:43:53Z</time>
      </trkpt>
      <trkpt lat="44.99949" lon="6.06931">
        <ele>790</ele>
        <time>2020-11-08T18:46:28Z</time>
      </trkpt>
      <trkpt lat="45.00055" lon="6.06789">
        <ele>802</ele>
        <time>2020-11-08T18:49:43Z</time>
      </trkpt>
      <trkpt lat="45.00283" lon="6.06798">
        <ele>776</ele>
        <time>2020-11-08T18:54:47Z</time>
      </trkpt>
      <trkpt lat="45.00392" lon="6.06729">
        <ele>775</ele>
        <time>2020-11-08T18:57:27Z</time>
      </trkpt>
      <trkpt lat="45.0048" lon="6.06742">
        <ele>768</ele>
        <time>2020-11-08T18:59:25Z</time>
      </trkpt>
      <trkpt lat="45.00732" lon="6.06373">
        <ele>763</ele>
        <time>2020-11-08T19:07:29Z</time>
      </trkpt>
      <trkpt lat="45.00844" lon="6.0636">
        <ele>762</ele>
        <time>2020-11-08T19:09:59Z</time>
      </trkpt>
      <trkpt lat="45.00963" lon="6.06192">
        <ele>759</ele>
        <time>2020-11-08T19:13:43Z</time>
      </trkpt>
      <trkpt lat="45.01202" lon="6.06025">
        <ele>752</ele>
        <time>2020-11-08T19:19:39Z</time>
      </trkpt>
      <trkpt lat="45.01299" lon="6.06029">
        <ele>748</ele>
        <time>2020-11-08T19:21:48Z</time>
      </trkpt>
      <trkpt lat="45.01409" lon="6.05965">
        <ele>749</ele>
        <time>2020-11-08T19:24:27Z</time>
      </trkpt>
      <trkpt lat="45.014" lon="6.05832">
        <ele>759</ele>
        <time>2020-11-08T19:26:33Z</time>
      </trkpt>
      <trkpt lat="45.01424" lon="6.05742">
        <ele>768</ele>
        <time>2020-11-08T19:28:04Z</time>
      </trkpt>
      <trkpt lat="45.01484" lon="6.05699">
        <ele>770</ele>
        <time>2020-11-08T19:29:34Z</time>
      </trkpt>
      <trkpt lat="45.01512" lon="6.05611">
        <ele>786</ele>
        <time>2020-11-08T19:31:05Z</time>
      </trkpt>
      <trkpt lat="45.01621" lon="6.05519">
        <ele>815</ele>
        <time>2020-11-08T19:33:54Z</time>
      </trkpt>
      <trkpt lat="45.01695" lon="6.05577">
        <ele>780</ele>
        <time>2020-11-08T19:35:47Z</time>
      </trkpt>
      <trkpt lat="45.0177" lon="6.05587">
        <ele>773</ele>
        <time>2020-11-08T19:37:28Z</time>
      </trkpt>
      <trkpt lat="45.01827" lon="6.05607">
        <ele>767</ele>
        <time>2020-11-08T19:38:46Z</time>
      </trkpt>
      <trkpt lat="45.01923" lon="6.05604">
        <ele>757</ele>
        <time>2020-11-08T19:40:54Z</time>
      </trkpt>
      <trkpt lat="45.01924" lon="6.05787">
        <ele>751</ele>
        <time>2020-11-08T19:43:47Z</time>
      </trkpt>
      <trkpt lat="45.01976" lon="6.05849">
        <ele>748</ele>
        <time>2020-11-08T19:45:17Z</time>
      </trkpt>
      <trkpt lat="45.0205" lon="6.05791">
        <ele>746</ele>
        <time>2020-11-08T19:47:10Z</time>
      </trkpt>
      <trkpt lat="45.02091" lon="6.05825">
        <ele>746</ele>
        <time>2020-11-08T19:48:14Z</time>
      </trkpt>
      <trkpt lat="45.02237" lon="6.05714">
        <ele>744</ele>
        <time>2020-11-08T19:51:55Z</time>
      </trkpt>
      <trkpt lat="45.02275" lon="6.05559">
        <ele>741</ele>
        <time>2020-11-08T19:54:30Z</time>
      </trkpt>
      <trkpt lat="45.02344" lon="6.05504">
        <ele>741</ele>
        <time>2020-11-08T19:56:15Z</time>
      </trkpt>
      <trkpt lat="45.0241" lon="6.05375">
        <ele>740</ele>
        <time>2020-11-08T19:58:46Z</time>
      </trkpt>
      <trkpt lat="45.02478" lon="6.0533">
        <ele>738</ele>
        <time>2020-11-08T20:00:26Z</time>
      </trkpt>
      <trkpt lat="45.02564" lon="6.05195">
        <ele>755</ele>
        <time>2020-11-08T20:03:17Z</time>
      </trkpt>
      <trkpt lat="45.02639" lon="6.05223">
        <ele>741</ele>
        <time>2020-11-08T20:05:01Z</time>
      </trkpt>
      <trkpt lat="45.02769" lon="6.05053">
        <ele>758</ele>
        <time>2020-11-08T20:08:57Z</time>
      </trkpt>
      <trkpt lat="45.0311" lon="6.04832">
        <ele>739</ele>
        <time>2020-11-08T20:17:17Z</time>
      </trkpt>
      <trkpt lat="45.03207" lon="6.04678">
        <ele>738</ele>
        <time>2020-11-08T20:20:32Z</time>
      </trkpt>
      <trkpt lat="45.0321" lon="6.04575">
        <ele>758</ele>
        <time>2020-11-08T20:22:09Z</time>
      </trkpt>
      <trkpt lat="45.03332" lon="6.04506">
        <ele>741</ele>
        <time>2020-11-08T20:25:05Z</time>
      </trkpt>
      <trkpt lat="45.03423" lon="6.04532">
        <ele>732</ele>
        <time>2020-11-08T20:27:08Z</time>
      </trkpt>
      <trkpt lat="45.03499" lon="6.04437">
        <ele>729</ele>
        <time>2020-11-08T20:29:24Z</time>
      </trkpt>
      <trkpt lat="45.03577" lon="6.04248">
        <ele>732</ele>
        <time>2020-11-08T20:32:50Z</time>
      </trkpt>
      <trkpt lat="45.0379" lon="6.04051">
        <ele>724</ele>
        <time>2020-11-08T20:38:30Z</time>
      </trkpt>
      <trkpt lat="45.03984" lon="6.0357">
        <ele>739</ele>
        <time>2020-11-08T20:47:12Z</time>
      </trkpt>
      <trkpt lat="45.04108" lon="6.0345">
        <ele>731</ele>
        <time>2020-11-08T20:50:32Z</time>
      </trkpt>
      <trkpt lat="45.0436" lon="6.03386">
        <ele>743</ele>
        <time>2020-11-08T20:56:14Z</time>
      </trkpt>
      <trkpt lat="45.04663" lon="6.02944">
        <ele>743</ele>
        <time>2020-11-08T21:05:55Z</time>
      </trkpt>
      <trkpt lat="45.04812" lon="6.02901">
        <ele>729</ele>
        <time>2020-11-08T21:09:18Z</time>
      </trkpt>
      <trkpt lat="45.04887" lon="6.02781">
        <ele>738</ele>
        <time>2020-11-08T21:11:49Z</time>
      </trkpt>
      <trkpt lat="45.05148" lon="6.02969">
        <ele>727</ele>
        <time>2020-11-08T21:18:20Z</time>
      </trkpt>
      <trkpt lat="45.05388" lon="6.02897">
        <ele>733</ele>
        <time>2020-11-08T21:23:47Z</time>
      </trkpt>
      <trkpt lat="45.05479" lon="6.03266">
        <ele>720</ele>
        <time>2020-11-08T21:29:55Z</time>
      </trkpt>
      <trkpt lat="45.05912" lon="6.03776">
        <ele>723</ele>
        <time>2020-11-08T21:42:27Z</time>
      </trkpt>
      <trkpt lat="45.0627" lon="6.03708">
        <ele>719</ele>
        <time>2020-11-08T21:50:29Z</time>
      </trkpt>
      <trkpt lat="45.06418" lon="6.03891">
        <ele>724</ele>
        <time>2020-11-08T21:54:51Z</time>
      </trkpt>
    </trkseg>
  </trk>
</gpx>